Darstellungsparameter: Aktuell verwendete Einstellungen:
Skalierung der Graphiken ... ?
xyx+y,   Skalierungsfaktor:      Skalierung: Modus: x, Faktor: 1
Darstellungszeitraum ... ?
Vom - - bis: - -   Zeitraum: 17.05.2003 - 17.01.2011
Min/Max/Avg-Anzeige ... ?
Zeige MMA aktuell
Zeige MMA Monat
Zeige MMA alles
Zeige --A aktuell
Zeige --A Monat
Zeige --A alles
Keine MMA-Anzeige
MMA:
Average (ber die Originaldaten)
MMA-Basis: 17.05.2003 - 17.01.2011
Quicknavigation für Darstellung... ?
Tage:      1T, 2T, 3T, 5T -1T -2T -3T -5T +1T +2T +3T +5T
Wochen: 1W, 2W, 3W -1W -2W -3W +1W +2W +3W
Monate: 1M, 3M, 6M -1M -3M -6M +1M +3M +6M
Jahre:    1J, 3J, 5J, 10J -1J -3J -5J -10J +1J +3J +5J +10J
Nutze für die Darstellung ... ?
Originaldaten oder ...
Mittelwerte Minima Maxima auf...
Stundenbasis Tagesbasis Wochenbasis
Monatsbasis Jahresbasis      Datenbasis: Mittelwerte auf Tagesbasis
Darstellen als:
Statistik (Auto) Statistik J:M      Darstellung:
Zur Graphik,    zurück zur Übersicht aller Sensoren.
 
Tabellarische Datenbersicht: ?
 
Sensor: Nr:Datum:Temp:Abs-Feuchte:Windchill:Wind:
Aussen-T/F 1 17-05-2003 00:00:00 14.35594 C 7.59 g/m*3 14.36 C 0 km/h
2 18-05-2003 00:00:00 16.15714 C 9.6 g/m*3 16.16 C 0 km/h
3 19-05-2003 00:00:00 13.69172 C 10.42 g/m*3 13.69 C 0 km/h
4 20-05-2003 00:00:00 12.97431 C 7.17 g/m*3 12.97 C 0 km/h
5 21-05-2003 00:00:00 11.90559 C 8.02 g/m*3 11.91 C 0 km/h
6 22-05-2003 00:00:00 13.89792 C 10.1 g/m*3 13.9 C 0 km/h
7 23-05-2003 00:00:00 18.97762 C 9.14 g/m*3 18.98 C 0 km/h
8 24-05-2003 00:00:00 19.54577 C 9.98 g/m*3 19.55 C 0 km/h
9 25-05-2003 00:00:00 16.0137 C 8.9 g/m*3 16.01 C 0 km/h
10 26-05-2003 00:00:00 17.77413 C 8.37 g/m*3 17.77 C 0 km/h
11 27-05-2003 00:00:00 19.34444 C 9.55 g/m*3 19.34 C 0 km/h
12 28-05-2003 00:00:00 20.5951 C 9.97 g/m*3 20.6 C 0 km/h
13 29-05-2003 00:00:00 22.73056 C 10.02 g/m*3 22.73 C 0 km/h
14 30-05-2003 00:00:00 23.71367 C 11.58 g/m*3 23.71 C 0 km/h
15 31-05-2003 00:00:00 21.47902 C 13.38 g/m*3 21.48 C 0 km/h
16 01-06-2003 00:00:00 23.35175 C 13.24 g/m*3 23.35 C 0 km/h
17 02-06-2003 00:00:00 23.57394 C 12.51 g/m*3 23.57 C 0 km/h
18 03-06-2003 00:00:00 23.12153 C 13.79 g/m*3 23.12 C 0 km/h
19 04-06-2003 00:00:00 25.04755 C 13.87 g/m*3 25.05 C 0 km/h
20 05-06-2003 00:00:00 22.86621 C 12.83 g/m*3 22.87 C 0 km/h
21 06-06-2003 00:00:00 22.71608 C 12.29 g/m*3 22.72 C 0 km/h
22 07-06-2003 00:00:00 24.90694 C 13.21 g/m*3 24.91 C 0 km/h
23 08-06-2003 00:00:00 22.7993 C 13.98 g/m*3 22.8 C 0 km/h
24 09-06-2003 00:00:00 19.85139 C 8.47 g/m*3 19.85 C 0 km/h
25 10-06-2003 00:00:00 21.51389 C 12.3 g/m*3 21.51 C 0 km/h
Sensor: Nr:Datum:Temp:Abs-Feuchte:Windchill:Wind:
Aussen-T/F 26 11-06-2003 00:00:00 23.96899 C 13.08 g/m*3 23.97 C 0 km/h
27 12-06-2003 00:00:00 22.99412 C 13.7 g/m*3 22.99 C 0 km/h
28 13-06-2003 00:00:00 22.87647 C 11.72 g/m*3 22.88 C 0 km/h
29 14-06-2003 00:00:00 19.34812 C 11.47 g/m*3 19.35 C 0 km/h
30 15-06-2003 00:00:00 22.11274 C 11.31 g/m*3 22.11 C 0 km/h
31 16-06-2003 00:00:00 22.74242 C 9.22 g/m*3 22.74 C 0 km/h
32 17-06-2003 00:00:00 22.74154 C 10.64 g/m*3 22.74 C 0 km/h
33 18-06-2003 00:00:00 20.45909 C 12.13 g/m*3 20.46 C 0 km/h
34 19-06-2003 00:00:00 20.73846 C 11.16 g/m*3 20.74 C 0 km/h
35 20-06-2003 00:00:00 20.76769 C 8.96 g/m*3 20.77 C 0 km/h
36 21-06-2003 00:00:00 18.57692 C 7.61 g/m*3 18.58 C 0 km/h
37 22-06-2003 00:00:00 22.50152 C 9.54 g/m*3 22.5 C 0 km/h
38 23-06-2003 00:00:00 23.88438 C 11.21 g/m*3 23.88 C 0 km/h
39 24-06-2003 00:00:00 22.05758 C 10.02 g/m*3 22.06 C 0 km/h
40 25-06-2003 00:00:00 21.8 C 9.1 g/m*3 21.8 C 0 km/h
41 26-06-2003 00:00:00 23.58 C 9.35 g/m*3 23.58 C 0 km/h
42 27-06-2003 00:00:00 22.64923 C 9.95 g/m*3 22.65 C 0 km/h
43 28-06-2003 00:00:00 22.94308 C 12.05 g/m*3 22.94 C 0 km/h
44 29-06-2003 00:00:00 25.77699 C 10.4 g/m*3 25.78 C 0 km/h
45 30-06-2003 00:00:00 22.11883 C 12.24 g/m*3 22.12 C 0 km/h
46 01-07-2003 00:00:00 19.41218 C 10.7 g/m*3 19.41 C 0 km/h
47 02-07-2003 00:00:00 17.99791 C 9.76 g/m*3 18 C 0 km/h
48 03-07-2003 00:00:00 17.02667 C 10.35 g/m*3 17.03 C 0 km/h
49 04-07-2003 00:00:00 17.05607 C 10.28 g/m*3 17.06 C 0 km/h
50 05-07-2003 00:00:00 16.84059 C 10.64 g/m*3 16.84 C 0 km/h
Sensor: Nr:Datum:Temp:Abs-Feuchte:Windchill:Wind:
Aussen-T/F 51 06-07-2003 00:00:00 20.31743 C 9.59 g/m*3 20.32 C 0 km/h
52 07-07-2003 00:00:00 21.54861 C 9.65 g/m*3 21.55 C 0 km/h
53 08-07-2003 00:00:00 21.54825 C 9.54 g/m*3 21.55 C 0 km/h
54 09-07-2003 00:00:00 20.83077 C 10.49 g/m*3 20.83 C 0 km/h
55 10-07-2003 00:00:00 21.87972 C 10.1 g/m*3 21.88 C 0 km/h
56 11-07-2003 00:00:00 22.96875 C 10.61 g/m*3 22.97 C 0 km/h
57 12-07-2003 00:00:00 21.7951 C 8.51 g/m*3 21.8 C 0 km/h
58 13-07-2003 00:00:00 22.62708 C 9.02 g/m*3 22.63 C 0 km/h
59 14-07-2003 00:00:00 24.49648 C 8.2 g/m*3 24.5 C 0 km/h
60 15-07-2003 00:00:00 25.82168 C 8.71 g/m*3 25.82 C 0 km/h
61 16-07-2003 00:00:00 26.9125 C 9.52 g/m*3 26.91 C 0 km/h
62 17-07-2003 00:00:00 21.73147 C 9.97 g/m*3 21.73 C 0 km/h
63 18-07-2003 00:00:00 23.17361 C 9.24 g/m*3 23.17 C 0 km/h
64 19-07-2003 00:00:00 25.16783 C 9.49 g/m*3 25.17 C 0 km/h
65 20-07-2003 00:00:00 25.17292 C 10.49 g/m*3 25.17 C 0 km/h
66 21-07-2003 00:00:00 24.85804 C 13.44 g/m*3 24.86 C 0 km/h
67 22-07-2003 00:00:00 23.93147 C 13.41 g/m*3 23.93 C 0 km/h
68 23-07-2003 00:00:00 23.35208 C 11.09 g/m*3 23.35 C 0 km/h
69 24-07-2003 00:00:00 21.31549 C 11.76 g/m*3 21.32 C 0 km/h
70 25-07-2003 00:00:00 21.11064 C 11.64 g/m*3 21.11 C 0 km/h
71 26-07-2003 00:00:00 21.33333 C 12.47 g/m*3 21.33 C 0 km/h
72 27-07-2003 00:00:00 20.99861 C 14.27 g/m*3 21 C 0 km/h
73 28-07-2003 00:00:00 20.96667 C 9.78 g/m*3 20.97 C 0 km/h
74 29-07-2003 00:00:00 21.55556 C 8.86 g/m*3 21.56 C 0 km/h
75 30-07-2003 00:00:00 19.87292 C 11.23 g/m*3 19.87 C 0 km/h
Sensor: Nr:Datum:Temp:Abs-Feuchte:Windchill:Wind:
Aussen-T/F 76 31-07-2003 00:00:00 22.51319 C 13.35 g/m*3 22.51 C 0 km/h
77 01-08-2003 00:00:00 24.69658 C 11.82 g/m*3 24.7 C 0 km/h
78 02-08-2003 00:00:00 26.31181 C 11.89 g/m*3 26.31 C 0 km/h
79 03-08-2003 00:00:00 26.94236 C 12.66 g/m*3 26.94 C 0 km/h
80 04-08-2003 00:00:00 27.77133 C 12.6 g/m*3 27.77 C 0 km/h
81 05-08-2003 00:00:00 27.84375 C 11.54 g/m*3 27.84 C 0 km/h
82 06-08-2003 00:00:00 27.87292 C 11.76 g/m*3 27.87 C 0 km/h
83 07-08-2003 00:00:00 28.54167 C 10.88 g/m*3 28.54 C 0 km/h
84 08-08-2003 00:00:00 28.9625 C 11.22 g/m*3 28.96 C 0 km/h
85 09-08-2003 00:00:00 28.56528 C 12.44 g/m*3 28.57 C 0 km/h
86 10-08-2003 00:00:00 27.40347 C 10.21 g/m*3 27.4 C 0 km/h
87 11-08-2003 00:00:00 26.68333 C 9.8 g/m*3 26.68 C 0 km/h
88 12-08-2003 00:00:00 28.33655 C 10.48 g/m*3 28.34 C 0 km/h
89 13-08-2003 00:00:00 27.60694 C 10.9 g/m*3 27.61 C 0 km/h
90 14-08-2003 00:00:00 24.19301 C 10.36 g/m*3 24.19 C 0 km/h
91 15-08-2003 00:00:00 21.19583 C 8.05 g/m*3 21.2 C 0 km/h
92 16-08-2003 00:00:00 20.93819 C 8.03 g/m*3 20.94 C 0 km/h
93 17-08-2003 00:00:00 21.95417 C 8.71 g/m*3 21.95 C 0 km/h
94 18-08-2003 00:00:00 19.58194 C 13.98 g/m*3 19.58 C 0 km/h
95 19-08-2003 00:00:00 21.01528 C 12.66 g/m*3 21.02 C 0 km/h
96 20-08-2003 00:00:00 20.52164 C 9.87 g/m*3 20.52 C 0 km/h
97 21-08-2003 00:00:00 20.59583 C 9.54 g/m*3 20.6 C 0 km/h
98 22-08-2003 00:00:00 20.25 C 9.6 g/m*3 20.25 C 0 km/h
99 23-08-2003 00:00:00 21.61417 C 11.02 g/m*3 21.61 C 0 km/h
100 24-08-2003 00:00:00 20.755 C 9.76 g/m*3 20.76 C 0 km/h
Sensor: Nr:Datum:Temp:Abs-Feuchte:Windchill:Wind:
Aussen-T/F 101 25-08-2003 00:00:00 20.085 C 8.94 g/m*3 20.09 C 0 km/h
102 26-08-2003 00:00:00 20.6475 C 9.1 g/m*3 20.65 C 0 km/h
103 27-08-2003 00:00:00 18.16083 C 9.11 g/m*3 18.16 C 0 km/h
104 28-08-2003 00:00:00 18.705 C 10.16 g/m*3 18.7 C 0 km/h
105 29-08-2003 00:00:00 17.34333 C 12.45 g/m*3 17.34 C 0 km/h
106 30-08-2003 00:00:00 14.92583 C 10.45 g/m*3 14.93 C 0 km/h
107 31-08-2003 00:00:00 14.155 C 8.69 g/m*3 14.16 C 0 km/h
108 01-09-2003 00:00:00 13.11417 C 8.14 g/m*3 13.11 C 0 km/h
109 02-09-2003 00:00:00 14.14167 C 8.13 g/m*3 14.14 C 0 km/h
110 03-09-2003 00:00:00 14.39 C 7.38 g/m*3 14.39 C 0 km/h
111 04-09-2003 00:00:00 16.6175 C 8.24 g/m*3 16.62 C 0 km/h
112 05-09-2003 00:00:00 17.74833 C 8.41 g/m*3 17.75 C 0 km/h
113 06-09-2003 00:00:00 19.795 C 10.64 g/m*3 19.8 C 0 km/h
114 07-09-2003 00:00:00 18.97417 C 10.92 g/m*3 18.97 C 0 km/h
115 08-09-2003 00:00:00 16.28824 C 10.4 g/m*3 16.29 C 0 km/h
116 09-09-2003 00:00:00 15.21417 C 9.12 g/m*3 15.21 C 0 km/h
117 10-09-2003 00:00:00 14.80667 C 9.88 g/m*3 14.81 C 0 km/h
118 11-09-2003 00:00:00 14.8625 C 8.4 g/m*3 14.86 C 0 km/h
119 12-09-2003 00:00:00 16.89667 C 8.98 g/m*3 16.9 C 0 km/h
120 13-09-2003 00:00:00 17.87 C 8.81 g/m*3 17.87 C 0 km/h
121 14-09-2003 00:00:00 15.66083 C 8.48 g/m*3 15.66 C 0 km/h
122 15-09-2003 00:00:00 16.91818 C 9.43 g/m*3 16.92 C 0 km/h
123 16-09-2003 00:00:00 16.72397 C 9.58 g/m*3 16.72 C 0 km/h
124 17-09-2003 00:00:00 17.685 C 9.86 g/m*3 17.68 C 0 km/h
125 18-09-2003 00:00:00 18.04583 C 9.06 g/m*3 18.05 C 0 km/h
Sensor: Nr:Datum:Temp:Abs-Feuchte:Windchill:Wind:
Aussen-T/F 126 19-09-2003 00:00:00 19.47083 C 9.69 g/m*3 19.47 C 0 km/h
127 20-09-2003 00:00:00 20.25882 C 10.57 g/m*3 20.26 C 0 km/h
128 21-09-2003 00:00:00 20.695 C 9.57 g/m*3 20.7 C 0 km/h
129 22-09-2003 00:00:00 18.3225 C 10.88 g/m*3 18.32 C 0 km/h
130 23-09-2003 00:00:00 13.95333 C 8.5 g/m*3 13.95 C 0 km/h
131 24-09-2003 00:00:00 10.7375 C 6.94 g/m*3 10.74 C 0 km/h
132 25-09-2003 00:00:00 11.6925 C 6.73 g/m*3 11.69 C 0 km/h
133 26-09-2003 00:00:00 12.8025 C 7.07 g/m*3 12.8 C 0 km/h
134 27-09-2003 00:00:00 13.93417 C 8.15 g/m*3 13.93 C 0 km/h
135 28-09-2003 00:00:00 14.33554 C 9.53 g/m*3 14.34 C 0 km/h
136 29-09-2003 00:00:00 13.1625 C 7.49 g/m*3 13.16 C 0 km/h
137 30-09-2003 00:00:00 12.02083 C 7.43 g/m*3 12.02 C 0 km/h
138 01-10-2003 00:00:00 10.64793 C 7.98 g/m*3 10.65 C 0 km/h
139 02-10-2003 00:00:00 16.3025 C 11.21 g/m*3 16.3 C 0 km/h
140 03-10-2003 00:00:00 16.015 C 10.52 g/m*3 16.02 C 0 km/h
141 04-10-2003 00:00:00 12.51583 C 8.78 g/m*3 12.52 C 0 km/h
142 05-10-2003 00:00:00 9.27917 C 6.68 g/m*3 9.28 C 0 km/h
143 06-10-2003 00:00:00 7.6025 C 6.17 g/m*3 7.6 C 0 km/h
144 07-10-2003 00:00:00 8.125 C 6.67 g/m*3 8.13 C 0 km/h
145 08-10-2003 00:00:00 9.46694 C 6.93 g/m*3 9.47 C 0 km/h
146 09-10-2003 00:00:00 12.52833 C 8.38 g/m*3 12.53 C 0 km/h
147 10-10-2003 00:00:00 13.88667 C 8.8 g/m*3 13.89 C 0 km/h
148 11-10-2003 00:00:00 13.46833 C 8.93 g/m*3 13.47 C 0 km/h
149 12-10-2003 00:00:00 10.71157 C 6.94 g/m*3 10.71 C 0 km/h
150 13-10-2003 00:00:00 8.84417 C 6.18 g/m*3 8.84 C 0 km/h
Sensor: Nr:Datum:Temp:Abs-Feuchte:Windchill:Wind:
Aussen-T/F 151 14-10-2003 00:00:00 8.61774 C 5.57 g/m*3 8.62 C 0 km/h
152 15-10-2003 00:00:00 6.7392 C 5.15 g/m*3 6.74 C 0 km/h
153 16-10-2003 00:00:00 7.11532 C 5.35 g/m*3 7.12 C 0 km/h
154 17-10-2003 00:00:00 6.33417 C 4.84 g/m*3 6.33 C 0 km/h
155 18-10-2003 00:00:00 4.57667 C 4.79 g/m*3 4.58 C 0 km/h
156 19-10-2003 00:00:00 4.02333 C 4.99 g/m*3 4.02 C 0 km/h
157 20-10-2003 00:00:00 6.06833 C 5.39 g/m*3 6.07 C 0 km/h
158 21-10-2003 00:00:00 5.19853 C 5.43 g/m*3 5.2 C 0 km/h
159 22-10-2003 00:00:00 3.7873 C 5.48 g/m*3 3.79 C 0 km/h
160 23-10-2003 00:00:00 3.55476 C 3.96 g/m*3 3.55 C 0 km/h
161 24-10-2003 00:00:00 0.92869 C 3.4 g/m*3 0.93 C 0 km/h
162 25-10-2003 00:00:00 4.80331 C 4.49 g/m*3 4.8 C 0 km/h
163 26-10-2003 00:00:00 6.43361 C 5.2 g/m*3 6.43 C 0 km/h
164 27-10-2003 00:00:00 6.27667 C 5.5 g/m*3 6.28 C 0 km/h
165 28-10-2003 00:00:00 4.52667 C 4.92 g/m*3 4.53 C 0 km/h
166 29-10-2003 00:00:00 5.675 C 6.08 g/m*3 5.68 C 0 km/h
167 30-10-2003 00:00:00 5.9688 C 6.02 g/m*3 5.97 C 0 km/h
168 31-10-2003 00:00:00 7.1 C 6.8 g/m*3 7.1 C 0 km/h
169 01-11-2003 00:00:00 9.5144 C 6.99 g/m*3 9.51 C 0 km/h
170 02-11-2003 00:00:00 9.956 C 6.37 g/m*3 9.96 C 0 km/h
171 03-11-2003 00:00:00 12.28333 C 7.25 g/m*3 12.28 C 0 km/h
172 04-11-2003 00:00:00 9.815 C 6.84 g/m*3 9.82 C 0 km/h
173 05-11-2003 00:00:00 6.345 C 5.98 g/m*3 6.35 C 0 km/h
174 06-11-2003 00:00:00 4.63388 C 5.31 g/m*3 4.63 C 0 km/h
175 07-11-2003 00:00:00 5.57323 C 4.97 g/m*3 5.57 C 0 km/h
Sensor: Nr:Datum:Temp:Abs-Feuchte:Windchill:Wind:
Aussen-T/F 176 08-11-2003 00:00:00 6.66748 C 5.03 g/m*3 6.67 C 0 km/h
177 09-11-2003 00:00:00 5.94409 C 5.25 g/m*3 5.94 C 0 km/h
178 10-11-2003 00:00:00 6.52937 C 5.72 g/m*3 6.53 C 0 km/h
179 11-11-2003 00:00:00 5.2064 C 4.78 g/m*3 5.21 C 0 km/h
180 12-11-2003 00:00:00 5.06859 C 4.88 g/m*3 5.07 C 0 km/h
181 13-11-2003 00:00:00 7.195 C 5.99 g/m*3 7.2 C 0 km/h
182 14-11-2003 00:00:00 5.67167 C 5.63 g/m*3 5.67 C 0 km/h
183 15-11-2003 00:00:00 6.93719 C 5.98 g/m*3 6.94 C 0 km/h
184 16-11-2003 00:00:00 4.36532 C 5.7 g/m*3 4.37 C 0 km/h
185 17-11-2003 00:00:00 6.63361 C 5.71 g/m*3 6.63 C 0 km/h
186 18-11-2003 00:00:00 8.51967 C 7 g/m*3 8.52 C 0 km/h
187 19-11-2003 00:00:00 11.89837 C 7.86 g/m*3 11.9 C 0 km/h
188 20-11-2003 00:00:00 10.56167 C 7.07 g/m*3 10.56 C 0 km/h
189 21-11-2003 00:00:00 9.79083 C 6.66 g/m*3 9.79 C 0 km/h
190 22-11-2003 00:00:00 9.85167 C 6.99 g/m*3 9.85 C 0 km/h
191 23-11-2003 00:00:00 13.305 C 6.83 g/m*3 13.31 C 0 km/h
192 24-11-2003 00:00:00 13.64667 C 7.3 g/m*3 13.65 C 0 km/h
193 25-11-2003 00:00:00 11.82683 C 7.35 g/m*3 11.83 C 0 km/h
194 26-11-2003 00:00:00 9.87317 C 6.37 g/m*3 9.87 C 0 km/h
195 27-11-2003 00:00:00 7.63871 C 7.01 g/m*3 7.64 C 0 km/h
196 28-11-2003 00:00:00 5.24797 C 5.9 g/m*3 5.25 C 0 km/h
197 29-11-2003 00:00:00 3.545 C 4.95 g/m*3 3.55 C 0 km/h
198 30-11-2003 00:00:00 5.35833 C 5.77 g/m*3 5.36 C 0 km/h
199 01-12-2003 00:00:00 7.79167 C 6.28 g/m*3 7.79 C 0 km/h
200 02-12-2003 00:00:00 5.15833 C 5.56 g/m*3 5.16 C 0 km/h
Sensor: Nr:Datum:Temp:Abs-Feuchte:Windchill:Wind:
Aussen-T/F 201 03-12-2003 00:00:00 3.17273 C 5.32 g/m*3 3.17 C 0 km/h
202 04-12-2003 00:00:00 4.92258 C 5.43 g/m*3 4.92 C 0 km/h
203 05-12-2003 00:00:00 5.37787 C 5.04 g/m*3 5.38 C 0 km/h
204 06-12-2003 00:00:00 3.05124 C 4.26 g/m*3 3.05 C 0 km/h
205 07-12-2003 00:00:00 -2.40492 C 2.91 g/m*3 -2.4 C 0 km/h
206 08-12-2003 00:00:00 -4.28 C 2.82 g/m*3 -4.28 C 0 km/h
207 09-12-2003 00:00:00 -4.81083 C 2.64 g/m*3 -4.81 C 0 km/h
208 10-12-2003 00:00:00 -3.95583 C 2.85 g/m*3 -3.96 C 0 km/h
209 11-12-2003 00:00:00 1.15083 C 3.9 g/m*3 1.15 C 0 km/h
210 12-12-2003 00:00:00 4.94758 C 5.36 g/m*3 4.95 C 0 km/h
211 13-12-2003 00:00:00 10.35 C 7.53 g/m*3 10.35 C 0 km/h
212 14-12-2003 00:00:00 7.74758 C 5.35 g/m*3 7.75 C 0 km/h
213 15-12-2003 00:00:00 3.0314 C 4.11 g/m*3 3.03 C 0 km/h
214 16-12-2003 00:00:00 3.83333 C 4.46 g/m*3 3.83 C 0 km/h
215 17-12-2003 00:00:00 3.71417 C 4.71 g/m*3 3.71 C 0 km/h
216 18-12-2003 00:00:00 -0.60917 C 3.92 g/m*3 -0.61 C 0 km/h
217 19-12-2003 00:00:00 2.1325 C 4.51 g/m*3 2.13 C 0 km/h
218 20-12-2003 00:00:00 8.76446 C 6.39 g/m*3 8.76 C 0 km/h
219 21-12-2003 00:00:00 6.09262 C 5.24 g/m*3 6.09 C 0 km/h
220 22-12-2003 00:00:00 1.6822 C 3.9 g/m*3 1.68 C 0 km/h
221 23-12-2003 00:00:00 -0.1781 C 3.56 g/m*3 -0.18 C 0 km/h
222 24-12-2003 00:00:00 1.48333 C 3.74 g/m*3 1.48 C 0 km/h
223 25-12-2003 00:00:00 3.60256 C 4.32 g/m*3 3.6 C 0 km/h
224 26-12-2003 00:00:00 5.71008 C 5.12 g/m*3 5.71 C 0 km/h
225 27-12-2003 00:00:00 7.0438 C 5.41 g/m*3 7.04 C 0 km/h
Sensor: Nr:Datum:Temp:Abs-Feuchte:Windchill:Wind:
Aussen-T/F 226 28-12-2003 00:00:00 7.02333 C 5.58 g/m*3 7.02 C 0 km/h
227 29-12-2003 00:00:00 1.82917 C 3.79 g/m*3 1.83 C 0 km/h
228 30-12-2003 00:00:00 -1.70333 C 3.6 g/m*3 -1.7 C 0 km/h
229 31-12-2003 00:00:00 -1.04017 C 3.54 g/m*3 -1.04 C 0 km/h
230 01-01-2004 00:00:00 -2.37115 C 3.12 g/m*3 -2.37 C 0 km/h
231 02-01-2004 00:00:00 -2.12212 C 2.04 g/m*3 -2.12 C 0 km/h
232 03-01-2004 00:00:00 -5.68621 C 2.3 g/m*3 -5.69 C 0 km/h
233 04-01-2004 00:00:00 -2.61969 C 2.92 g/m*3 -2.62 C 0 km/h
234 05-01-2004 00:00:00 1.15917 C 4.37 g/m*3 1.16 C 0 km/h
235 06-01-2004 00:00:00 2.9925 C 5.17 g/m*3 2.99 C 0 km/h
236 07-01-2004 00:00:00 5.665 C 5.73 g/m*3 5.67 C 0 km/h
237 08-01-2004 00:00:00 4.4437 C 5.17 g/m*3 4.44 C 0 km/h
238 09-01-2004 00:00:00 5.33898 C 5.6 g/m*3 5.34 C 0 km/h
239 10-01-2004 00:00:00 4.62667 C 4.95 g/m*3 4.63 C 0 km/h
240 11-01-2004 00:00:00 9.1975 C 6.62 g/m*3 9.2 C 0 km/h
241 12-01-2004 00:00:00 5.775 C 5.22 g/m*3 5.78 C 0 km/h
242 13-01-2004 00:00:00 7.80083 C 5.69 g/m*3 7.8 C 0 km/h
243 14-01-2004 00:00:00 5.86667 C 4.58 g/m*3 5.87 C 0 km/h
244 15-01-2004 00:00:00 4.12083 C 4.51 g/m*3 4.12 C 0 km/h
245 16-01-2004 00:00:00 5.9575 C 4.71 g/m*3 5.96 C 0 km/h
246 17-01-2004 00:00:00 4.54333 C 4.53 g/m*3 4.54 C 0 km/h
247 18-01-2004 00:00:00 2.49583 C 3.96 g/m*3 2.5 C 0 km/h
248 19-01-2004 00:00:00 0.56471 C 3.91 g/m*3 0.56 C 0 km/h
249 20-01-2004 00:00:00 4.19833 C 4.81 g/m*3 4.2 C 0 km/h
250 21-01-2004 00:00:00 0.6125 C 3.15 g/m*3 0.61 C 0 km/h
Sensor: Nr:Datum:Temp:Abs-Feuchte:Windchill:Wind:
Aussen-T/F 251 22-01-2004 00:00:00 -0.92333 C 3.11 g/m*3 -0.92 C 0 km/h
252 23-01-2004 00:00:00 -0.45583 C 3 g/m*3 -0.46 C 0 km/h
253 24-01-2004 00:00:00 -0.8575 C 3.11 g/m*3 -0.86 C 0 km/h
254 25-01-2004 00:00:00 2.03167 C 4.55 g/m*3 2.03 C 0 km/h
255 26-01-2004 00:00:00 1.7325 C 3.9 g/m*3 1.73 C 0 km/h
256 27-01-2004 00:00:00 0.47583 C 3.24 g/m*3 0.48 C 0 km/h
257 28-01-2004 00:00:00 0.665 C 3.39 g/m*3 0.67 C 0 km/h
258 29-01-2004 00:00:00 0.295 C 3.5 g/m*3 0.3 C 0 km/h
259 30-01-2004 00:00:00 0.67083 C 3 g/m*3 0.67 C 0 km/h
260 31-01-2004 00:00:00 6.21597 C 4.37 g/m*3 6.22 C 0 km/h
261 01-02-2004 00:00:00 11.11083 C 5.85 g/m*3 11.11 C 0 km/h
262 02-02-2004 00:00:00 11.24083 C 6.81 g/m*3 11.24 C 0 km/h
263 03-02-2004 00:00:00 11.46 C 6.4 g/m*3 11.46 C 0 km/h
264 04-02-2004 00:00:00 12.275 C 5.56 g/m*3 12.28 C 0 km/h
265 05-02-2004 00:00:00 12.8325 C 5.77 g/m*3 12.83 C 0 km/h
266 06-02-2004 00:00:00 13.52417 C 5.92 g/m*3 13.52 C 0 km/h
267 07-02-2004 00:00:00 9.05417 C 4.41 g/m*3 9.05 C 0 km/h
268 08-02-2004 00:00:00 4.03583 C 4.28 g/m*3 4.04 C 0 km/h
269 09-02-2004 00:00:00 3.1225 C 3.69 g/m*3 3.12 C 0 km/h
270 10-02-2004 00:00:00 2.2525 C 3.66 g/m*3 2.25 C 0 km/h
271 11-02-2004 00:00:00 5.42417 C 5.62 g/m*3 5.42 C 0 km/h
272 12-02-2004 00:00:00 3.90932 C 4.01 g/m*3 3.91 C 0 km/h
273 13-02-2004 00:00:00 5.5876 C 5.33 g/m*3 5.59 C 0 km/h
274 14-02-2004 00:00:00 6.88083 C 5.67 g/m*3 6.88 C 0 km/h
275 15-02-2004 00:00:00 6.2625 C 5.4 g/m*3 6.26 C 0 km/h
Sensor: Nr:Datum:Temp:Abs-Feuchte:Windchill:Wind:
Aussen-T/F 276 16-02-2004 00:00:00 5.3425 C 4.83 g/m*3 5.34 C 0 km/h
277 17-02-2004 00:00:00 3.33417 C 4.18 g/m*3 3.33 C 0 km/h
278 18-02-2004 00:00:00 4.05167 C 4.09 g/m*3 4.05 C 0 km/h
279 19-02-2004 00:00:00 1.21833 C 3.08 g/m*3 1.22 C 0 km/h
280 20-02-2004 00:00:00 2.01417 C 2.7 g/m*3 2.01 C 0 km/h
281 21-02-2004 00:00:00 1.18 C 2.9 g/m*3 1.18 C 0 km/h
282 22-02-2004 00:00:00 1.965 C 3.3 g/m*3 1.97 C 0 km/h
283 23-02-2004 00:00:00 0.45868 C 3 g/m*3 0.46 C 0 km/h
284 24-02-2004 00:00:00 -0.95167 C 2.8 g/m*3 -0.95 C 0 km/h
285 25-02-2004 00:00:00 1.34583 C 3.91 g/m*3 1.35 C 0 km/h
286 26-02-2004 00:00:00 -0.21417 C 3.08 g/m*3 -0.21 C 0 km/h
287 27-02-2004 00:00:00 -1.6575 C 2.58 g/m*3 -1.66 C 0 km/h
288 28-02-2004 00:00:00 0.15508 C 2.64 g/m*3 0.16 C 0 km/h
289 29-02-2004 00:00:00 -1.085 C 2.65 g/m*3 -1.09 C 0 km/h
290 01-03-2004 00:00:00 -0.13417 C 2.61 g/m*3 -0.13 C 0 km/h
291 02-03-2004 00:00:00 3.0575 C 3.76 g/m*3 3.06 C 0 km/h
292 03-03-2004 00:00:00 3.86667 C 3.33 g/m*3 3.87 C 0 km/h
293 04-03-2004 00:00:00 3.09 C 3.39 g/m*3 3.09 C 0 km/h
294 05-03-2004 00:00:00 3.3075 C 2.85 g/m*3 3.31 C 0 km/h
295 06-03-2004 00:00:00 1.425 C 4.24 g/m*3 1.43 C 0 km/h
296 07-03-2004 00:00:00 3.68583 C 4.59 g/m*3 3.69 C 0 km/h
297 08-03-2004 00:00:00 4.06167 C 3.66 g/m*3 4.06 C 0 km/h
298 09-03-2004 00:00:00 1.66333 C 3.41 g/m*3 1.66 C 0 km/h
299 10-03-2004 00:00:00 0.88 C 3.88 g/m*3 0.88 C 0 km/h
300 11-03-2004 00:00:00 1.12857 C 4.05 g/m*3 1.13 C 0 km/h
Sensor: Nr:Datum:Temp:Abs-Feuchte:Windchill:Wind:
Aussen-T/F 301 12-03-2004 00:00:00 3.4975 C 3.96 g/m*3 3.5 C 0 km/h
302 13-03-2004 00:00:00 9.25417 C 5.28 g/m*3 9.25 C 0 km/h
303 14-03-2004 00:00:00 9.66417 C 4.9 g/m*3 9.66 C 0 km/h
304 15-03-2004 00:00:00 11.64167 C 5.22 g/m*3 11.64 C 0 km/h
305 16-03-2004 00:00:00 12.85583 C 6.54 g/m*3 12.86 C 0 km/h
306 17-03-2004 00:00:00 12.58333 C 6.62 g/m*3 12.58 C 0 km/h
307 18-03-2004 00:00:00 14.18 C 7.14 g/m*3 14.18 C 0 km/h
308 19-03-2004 00:00:00 12.33333 C 6.93 g/m*3 12.33 C 0 km/h
309 20-03-2004 00:00:00 12.1875 C 7.53 g/m*3 12.19 C 0 km/h
310 21-03-2004 00:00:00 9.85583 C 5.92 g/m*3 9.86 C 0 km/h
311 22-03-2004 00:00:00 6.47917 C 5.54 g/m*3 6.48 C 0 km/h
312 23-03-2004 00:00:00 5.15966 C 5.49 g/m*3 5.16 C 0 km/h
313 24-03-2004 00:00:00 5.735 C 4.8 g/m*3 5.74 C 0 km/h
314 25-03-2004 00:00:00 4.39083 C 4.22 g/m*3 4.39 C 0 km/h
315 26-03-2004 00:00:00 2.8575 C 3.77 g/m*3 2.86 C 0 km/h
316 27-03-2004 00:00:00 2.76167 C 3.42 g/m*3 2.76 C 0 km/h
317 28-03-2004 00:00:00 4.98174 C 3.63 g/m*3 4.98 C 0 km/h
318 29-03-2004 00:00:00 7.27 C 4.13 g/m*3 7.27 C 0 km/h
319 30-03-2004 00:00:00 11.1075 C 4.45 g/m*3 11.11 C 0 km/h
320 31-03-2004 00:00:00 11.83 C 5.02 g/m*3 11.83 C 0 km/h
321 01-04-2004 00:00:00 14.11083 C 5.67 g/m*3 14.11 C 0 km/h
322 02-04-2004 00:00:00 13.71083 C 6.01 g/m*3 13.71 C 0 km/h
323 03-04-2004 00:00:00 12.5275 C 7.01 g/m*3 12.53 C 0 km/h
324 04-04-2004 00:00:00 12.14333 C 5.94 g/m*3 12.14 C 0 km/h
325 05-04-2004 00:00:00 8.31176 C 5.82 g/m*3 8.31 C 0 km/h
Sensor: Nr:Datum:Temp:Abs-Feuchte:Windchill:Wind:
Aussen-T/F 326 06-04-2004 00:00:00 6.33333 C 5.48 g/m*3 6.33 C 0 km/h
327 07-04-2004 00:00:00 5.33417 C 5.38 g/m*3 5.33 C 0 km/h
328 08-04-2004 00:00:00 6.565 C 5.43 g/m*3 6.57 C 0 km/h
329 09-04-2004 00:00:00 7.14583 C 5.29 g/m*3 7.15 C 0 km/h
330 10-04-2004 00:00:00 7.875 C 5.71 g/m*3 7.88 C 0 km/h
331 11-04-2004 00:00:00 7.40667 C 5.06 g/m*3 7.41 C 0 km/h
332 12-04-2004 00:00:00 8.5875 C 4.97 g/m*3 8.59 C 0 km/h
333 13-04-2004 00:00:00 10.13917 C 5.92 g/m*3 10.14 C 0 km/h
334 14-04-2004 00:00:00 11.98667 C 5.46 g/m*3 11.99 C 0 km/h
335 15-04-2004 00:00:00 11.55833 C 5.32 g/m*3 11.56 C 0 km/h
336 16-04-2004 00:00:00 14.20083 C 6.04 g/m*3 14.2 C 0 km/h
337 17-04-2004 00:00:00 14.72521 C 6.1 g/m*3 14.73 C 0 km/h
338 18-04-2004 00:00:00 12.97583 C 6.27 g/m*3 12.98 C 0 km/h
339 19-04-2004 00:00:00 10.14917 C 4.68 g/m*3 10.15 C 0 km/h
340 20-04-2004 00:00:00 10.01083 C 6.42 g/m*3 10.01 C 0 km/h
341 21-04-2004 00:00:00 14.15667 C 7.93 g/m*3 14.16 C 0 km/h
342 22-04-2004 00:00:00 16.29917 C 8.77 g/m*3 16.3 C 0 km/h
343 23-04-2004 00:00:00 13.10417 C 8.1 g/m*3 13.1 C 0 km/h
344 24-04-2004 00:00:00 12.5125 C 6.29 g/m*3 12.51 C 0 km/h
345 25-04-2004 00:00:00 12.58083 C 6.49 g/m*3 12.58 C 0 km/h
346 26-04-2004 00:00:00 14.825 C 6.6 g/m*3 14.83 C 0 km/h
347 27-04-2004 00:00:00 16.15917 C 7.23 g/m*3 16.16 C 0 km/h
348 28-04-2004 00:00:00 16.0125 C 8.73 g/m*3 16.01 C 0 km/h
349 29-04-2004 00:00:00 16.4958 C 9.99 g/m*3 16.5 C 0 km/h
350 30-04-2004 00:00:00 18.50167 C 9.7 g/m*3 18.5 C 0 km/h
Sensor: Nr:Datum:Temp:Abs-Feuchte:Windchill:Wind:
Aussen-T/F 351 01-05-2004 00:00:00 14.56639 C 10 g/m*3 14.57 C 0 km/h
352 02-05-2004 00:00:00 15.70083 C 8.35 g/m*3 15.7 C 0 km/h
353 03-05-2004 00:00:00 14.50667 C 7.67 g/m*3 14.51 C 0 km/h
354 04-05-2004 00:00:00 14.02167 C 7.33 g/m*3 14.02 C 0 km/h
355 05-05-2004 00:00:00 12.41083 C 5.81 g/m*3 12.41 C 0 km/h
356 06-05-2004 00:00:00 10.04167 C 6.93 g/m*3 10.04 C 0 km/h
357 07-05-2004 00:00:00 8.415 C 7.62 g/m*3 8.41 C 0 km/h
358 08-05-2004 00:00:00 7.58083 C 6.96 g/m*3 7.58 C 0 km/h
359 09-05-2004 00:00:00 10.3025 C 7.31 g/m*3 10.3 C 0 km/h
360 10-05-2004 00:00:00 12.86 C 8.86 g/m*3 12.86 C 0 km/h
361 11-05-2004 00:00:00 14.43866 C 8.64 g/m*3 14.44 C 0 km/h
362 12-05-2004 00:00:00 12.22583 C 6.55 g/m*3 12.23 C 0 km/h
363 13-05-2004 00:00:00 11.9225 C 6.73 g/m*3 11.92 C 0 km/h
364 14-05-2004 00:00:00 15.3875 C 7.71 g/m*3 15.39 C 0 km/h
365 15-05-2004 00:00:00 14.34333 C 7.71 g/m*3 14.34 C 0 km/h
366 16-05-2004 00:00:00 16.78167 C 8.21 g/m*3 16.78 C 0 km/h
367 17-05-2004 00:00:00 17.8875 C 8.72 g/m*3 17.89 C 0 km/h
368 18-05-2004 00:00:00 18.75917 C 8.84 g/m*3 18.76 C 0 km/h
369 19-05-2004 00:00:00 19.56 C 9.24 g/m*3 19.56 C 0 km/h
370 20-05-2004 00:00:00 19.53 C 8.61 g/m*3 19.53 C 0 km/h
371 21-05-2004 00:00:00 13.19833 C 8 g/m*3 13.2 C 0 km/h
372 22-05-2004 00:00:00 10.73083 C 5.07 g/m*3 10.73 C 0 km/h
373 23-05-2004 00:00:00 11.5479 C 5.05 g/m*3 11.55 C 0 km/h
374 24-05-2004 00:00:00 11.78 C 5.65 g/m*3 11.78 C 0 km/h
375 25-05-2004 00:00:00 14.72583 C 6.62 g/m*3 14.73 C 0 km/h
Sensor: Nr:Datum:Temp:Abs-Feuchte:Windchill:Wind:
Aussen-T/F 376 26-05-2004 00:00:00 14.9725 C 6.13 g/m*3 14.97 C 0 km/h
377 27-05-2004 00:00:00 12.81083 C 5.6 g/m*3 12.81 C 0 km/h
378 28-05-2004 00:00:00 13.97333 C 6.32 g/m*3 13.97 C 0 km/h
379 29-05-2004 00:00:00 17.0438 C 6.95 g/m*3 17.04 C 0 km/h
380 30-05-2004 00:00:00 18.69077 C 7.26 g/m*3 18.69 C 0 km/h
381 31-05-2004 00:00:00 15.58167 C 10.4 g/m*3 15.58 C 0 km/h
382 01-06-2004 00:00:00 16.40168 C 9.4 g/m*3 16.4 C 0 km/h
383 02-06-2004 00:00:00 14.86303 C 9.85 g/m*3 14.86 C 0 km/h
384 03-06-2004 00:00:00 16.36167 C 10.23 g/m*3 16.36 C 0 km/h
385 04-06-2004 00:00:00 13.82583 C 10.17 g/m*3 13.83 C 0 km/h
386 05-06-2004 00:00:00 14.33583 C 9.13 g/m*3 14.34 C 0 km/h
387 06-06-2004 00:00:00 16.84667 C 9.18 g/m*3 16.85 C 0 km/h
388 07-06-2004 00:00:00 20.69333 C 9.87 g/m*3 20.69 C 0 km/h
389 08-06-2004 00:00:00 23.6575 C 11.14 g/m*3 23.66 C 0 km/h
390 09-06-2004 00:00:00 24.735 C 13.13 g/m*3 24.74 C 0 km/h
391 10-06-2004 00:00:00 21.21417 C 14.55 g/m*3 21.21 C 0 km/h
392 11-06-2004 00:00:00 18.8725 C 12.84 g/m*3 18.87 C 0 km/h
393 12-06-2004 00:00:00 15.64417 C 9.74 g/m*3 15.64 C 0 km/h
394 13-06-2004 00:00:00 15.35042 C 9.24 g/m*3 15.35 C 0 km/h
395 14-06-2004 00:00:00 17.5175 C 9.03 g/m*3 17.52 C 0 km/h
396 15-06-2004 00:00:00 20.5725 C 10.96 g/m*3 20.57 C 0 km/h
397 16-06-2004 00:00:00 17.205 C 7.51 g/m*3 17.2 C 0 km/h
398 17-06-2004 00:00:00 18.3025 C 8.69 g/m*3 18.3 C 0 km/h
399 18-06-2004 00:00:00 15.54 C 9.61 g/m*3 15.54 C 0 km/h
400 19-06-2004 00:00:00 14.39167 C 8.28 g/m*3 14.39 C 0 km/h
Sensor: Nr:Datum:Temp:Abs-Feuchte:Windchill:Wind:
Aussen-T/F 401 20-06-2004 00:00:00 14.56583 C 7.37 g/m*3 14.57 C 0 km/h
402 21-06-2004 00:00:00 14.90333 C 8.02 g/m*3 14.9 C 0 km/h
403 22-06-2004 00:00:00 15.64583 C 10.33 g/m*3 15.65 C 0 km/h
404 23-06-2004 00:00:00 19.17083 C 10.61 g/m*3 19.17 C 0 km/h
405 24-06-2004 00:00:00 16.3775 C 7.16 g/m*3 16.38 C 0 km/h
406 25-06-2004 00:00:00 14.59167 C 7.8 g/m*3 14.59 C 0 km/h
407 26-06-2004 00:00:00 16.39328 C 8.74 g/m*3 16.39 C 0 km/h
408 27-06-2004 00:00:00 20.93475 C 11.55 g/m*3 20.93 C 0 km/h
409 28-06-2004 00:00:00 19.74667 C 7.96 g/m*3 19.75 C 0 km/h
410 29-06-2004 00:00:00 18.54833 C 8.3 g/m*3 18.55 C 0 km/h
411 30-06-2004 00:00:00 20.9875 C 9.12 g/m*3 20.99 C 0 km/h
412 01-07-2004 00:00:00 18.20084 C 8.16 g/m*3 18.2 C 0 km/h
413 02-07-2004 00:00:00 15.81417 C 9.1 g/m*3 15.81 C 0 km/h
414 03-07-2004 00:00:00 15.91333 C 8.88 g/m*3 15.91 C 0 km/h
415 04-07-2004 00:00:00 15.28 C 9.43 g/m*3 15.28 C 0 km/h
416 05-07-2004 00:00:00 18.50083 C 10.14 g/m*3 18.5 C 0 km/h
417 06-07-2004 00:00:00 19.60833 C 8.72 g/m*3 19.61 C 0 km/h
418 07-07-2004 00:00:00 18.90167 C 10.22 g/m*3 18.9 C 0 km/h
419 08-07-2004 00:00:00 18.76833 C 11.9 g/m*3 18.77 C 0 km/h
420 09-07-2004 00:00:00 15.12333 C 10.24 g/m*3 15.12 C 0 km/h
421 10-07-2004 00:00:00 14.9525 C 8.82 g/m*3 14.95 C 0 km/h
422 11-07-2004 00:00:00 14.95417 C 8.32 g/m*3 14.95 C 0 km/h
423 12-07-2004 00:00:00 14.17 C 9.42 g/m*3 14.17 C 0 km/h
424 13-07-2004 00:00:00 14.57815 C 8.55 g/m*3 14.58 C 0 km/h
425 14-07-2004 00:00:00 16.24083 C 9.35 g/m*3 16.24 C 0 km/h
Sensor: Nr:Datum:Temp:Abs-Feuchte:Windchill:Wind:
Aussen-T/F 426 15-07-2004 00:00:00 19.03167 C 12.77 g/m*3 19.03 C 0 km/h
427 16-07-2004 00:00:00 22.7475 C 12.5 g/m*3 22.75 C 0 km/h
428 17-07-2004 00:00:00 21.68 C 13.47 g/m*3 21.68 C 0 km/h
429 18-07-2004 00:00:00 19.98843 C 13.88 g/m*3 19.99 C 0 km/h
430 19-07-2004 00:00:00 21.74667 C 12.55 g/m*3 21.75 C 0 km/h
431 20-07-2004 00:00:00 19.855 C 12.88 g/m*3 19.86 C 0 km/h
432 21-07-2004 00:00:00 22.40083 C 13.38 g/m*3 22.4 C 0 km/h
433 22-07-2004 00:00:00 24.60504 C 14.07 g/m*3 24.61 C 0 km/h
434 23-07-2004 00:00:00 23.33 C 14.72 g/m*3 23.33 C 0 km/h
435 24-07-2004 00:00:00 22.0075 C 10.74 g/m*3 22.01 C 0 km/h
436 25-07-2004 00:00:00 18.13833 C 10.05 g/m*3 18.14 C 0 km/h
437 26-07-2004 00:00:00 16.53583 C 10.88 g/m*3 16.54 C 0 km/h
438 27-07-2004 00:00:00 18.31092 C 10.02 g/m*3 18.31 C 0 km/h
439 28-07-2004 00:00:00 20.28583 C 9.5 g/m*3 20.29 C 0 km/h
440 29-07-2004 00:00:00 21.75917 C 9.6 g/m*3 21.76 C 0 km/h
441 30-07-2004 00:00:00 22.845 C 10.59 g/m*3 22.85 C 0 km/h
442 31-07-2004 00:00:00 23.185 C 12.07 g/m*3 23.19 C 0 km/h
443 01-08-2004 00:00:00 23.30333 C 12.07 g/m*3 23.3 C 0 km/h
444 02-08-2004 00:00:00 23.80917 C 11.1 g/m*3 23.81 C 0 km/h
445 03-08-2004 00:00:00 24.1975 C 10.83 g/m*3 24.2 C 0 km/h
446 04-08-2004 00:00:00 23.40756 C 13.04 g/m*3 23.41 C 0 km/h
447 05-08-2004 00:00:00 25.28167 C 12.69 g/m*3 25.28 C 0 km/h
448 06-08-2004 00:00:00 25.0625 C 12.09 g/m*3 25.06 C 0 km/h
449 07-08-2004 00:00:00 24.03167 C 14.41 g/m*3 24.03 C 0 km/h
450 08-08-2004 00:00:00 24.36 C 13.84 g/m*3 24.36 C 0 km/h
Sensor: Nr:Datum:Temp:Abs-Feuchte:Windchill:Wind:
Aussen-T/F 451 09-08-2004 00:00:00 25.4775 C 10.89 g/m*3 25.48 C 0 km/h
452 10-08-2004 00:00:00 22.66333 C 11.69 g/m*3 22.66 C 0 km/h
453 11-08-2004 00:00:00 22.42804 C 14.99 g/m*3 22.43 C 0 km/h
454 12-08-2004 00:00:00 20.15417 C 13.25 g/m*3 20.15 C 0 km/h
455 13-08-2004 00:00:00 17.9625 C 11.42 g/m*3 17.96 C 0 km/h
456 14-08-2004 00:00:00 18.08333 C 12.27 g/m*3 18.08 C 0 km/h
457 15-08-2004 00:00:00 21.52708 C 11.93 g/m*3 21.53 C 0 km/h
458 16-08-2004 00:00:00 20.10625 C 12.61 g/m*3 20.11 C 0 km/h
459 17-08-2004 00:00:00 20.58958 C 13.87 g/m*3 20.59 C 0 km/h
460 18-08-2004 00:00:00 22.67292 C 13.2 g/m*3 22.67 C 0 km/h
461 19-08-2004 00:00:00 21.05417 C 11.68 g/m*3 21.05 C 0 km/h
462 20-08-2004 00:00:00 18.89583 C 10.4 g/m*3 18.9 C 0 km/h
463 21-08-2004 00:00:00 15.52708 C 10.53 g/m*3 15.53 C 0 km/h
464 22-08-2004 00:00:00 16.41042 C 9.01 g/m*3 16.41 C 0 km/h
465 23-08-2004 00:00:00 16.42708 C 10.17 g/m*3 16.43 C 0 km/h
466 24-08-2004 00:00:00 17.42083 C 11.51 g/m*3 17.42 C 0 km/h
467 25-08-2004 00:00:00 16.20847 C 10.15 g/m*3 16.21 C 0 km/h
468 26-08-2004 00:00:00 16.76083 C 9.98 g/m*3 16.76 C 0 km/h
469 27-08-2004 00:00:00 15.82269 C 9.42 g/m*3 15.82 C 0 km/h
470 28-08-2004 00:00:00 17.58 C 12.34 g/m*3 17.58 C 0 km/h
471 29-08-2004 00:00:00 18.84917 C 11.59 g/m*3 18.85 C 0 km/h
472 30-08-2004 00:00:00 15.81333 C 10.43 g/m*3 15.81 C 0 km/h
473 31-08-2004 00:00:00 14.84333 C 8.88 g/m*3 14.84 C 0 km/h
474 01-09-2004 00:00:00 15.91667 C 9.07 g/m*3 15.92 C 0 km/h
475 02-09-2004 00:00:00 17.21429 C 9.62 g/m*3 17.21 C 0 km/h
Sensor: Nr:Datum:Temp:Abs-Feuchte:Windchill:Wind:
Aussen-T/F 476 03-09-2004 00:00:00 20.0275 C 11.76 g/m*3 20.03 C 0 km/h
477 04-09-2004 00:00:00 21.15083 C 12.63 g/m*3 21.15 C 0 km/h
478 05-09-2004 00:00:00 21.63833 C 12.6 g/m*3 21.64 C 0 km/h
479 06-09-2004 00:00:00 20.35 C 10.92 g/m*3 20.35 C 0 km/h
480 07-09-2004 00:00:00 21.00167 C 11.07 g/m*3 21 C 0 km/h
481 08-09-2004 00:00:00 20.15294 C 10.46 g/m*3 20.15 C 0 km/h
482 09-09-2004 00:00:00 18.48167 C 8.08 g/m*3 18.48 C 0 km/h
483 10-09-2004 00:00:00 17.9825 C 8.26 g/m*3 17.98 C 0 km/h
484 11-09-2004 00:00:00 20.54583 C 12.35 g/m*3 20.55 C 0 km/h
485 12-09-2004 00:00:00 17.1475 C 9.04 g/m*3 17.15 C 0 km/h
486 13-09-2004 00:00:00 17.07 C 8.88 g/m*3 17.07 C 0 km/h
487 14-09-2004 00:00:00 17.45462 C 8.44 g/m*3 17.45 C 0 km/h
488 15-09-2004 00:00:00 14.54333 C 8.16 g/m*3 14.54 C 0 km/h
489 16-09-2004 00:00:00 12.64 C 7.27 g/m*3 12.64 C 0 km/h
490 17-09-2004 00:00:00 13.2175 C 7.39 g/m*3 13.22 C 0 km/h
491 18-09-2004 00:00:00 15.71667 C 8.66 g/m*3 15.72 C 0 km/h
492 19-09-2004 00:00:00 16.38 C 10.18 g/m*3 16.38 C 0 km/h
493 20-09-2004 00:00:00 13.69833 C 7.61 g/m*3 13.7 C 0 km/h
494 21-09-2004 00:00:00 15.01167 C 6.9 g/m*3 15.01 C 0 km/h
495 22-09-2004 00:00:00 12.50168 C 7.63 g/m*3 12.5 C 0 km/h
496 23-09-2004 00:00:00 13.44917 C 10.41 g/m*3 13.45 C 0 km/h
497 24-09-2004 00:00:00 12.08833 C 7.68 g/m*3 12.09 C 0 km/h
498 25-09-2004 00:00:00 12.41167 C 7.54 g/m*3 12.41 C 0 km/h
499 26-09-2004 00:00:00 12.71667 C 8.34 g/m*3 12.72 C 0 km/h
500 27-09-2004 00:00:00 13.985 C 9.75 g/m*3 13.99 C 0 km/h
Sensor: Nr:Datum:Temp:Abs-Feuchte:Windchill:Wind:
Aussen-T/F 501 28-09-2004 00:00:00 15.85833 C 10.38 g/m*3 15.86 C 0 km/h
502 29-09-2004 00:00:00 15.4525 C 8.97 g/m*3 15.45 C 0 km/h
503 30-09-2004 00:00:00 13.13583 C 8.54 g/m*3 13.14 C 0 km/h
504 01-10-2004 00:00:00 15.1775 C 9.42 g/m*3 15.18 C 0 km/h
505 02-10-2004 00:00:00 14.82333 C 9.08 g/m*3 14.82 C 0 km/h
506 03-10-2004 00:00:00 13.56417 C 8.33 g/m*3 13.56 C 0 km/h
507 04-10-2004 00:00:00 16.06303 C 9.8 g/m*3 16.06 C 0 km/h
508 05-10-2004 00:00:00 19.11667 C 11.19 g/m*3 19.12 C 0 km/h
509 06-10-2004 00:00:00 14.425 C 9.96 g/m*3 14.43 C 0 km/h
510 07-10-2004 00:00:00 11.63417 C 7.67 g/m*3 11.63 C 0 km/h
511 08-10-2004 00:00:00 9.55667 C 7.63 g/m*3 9.56 C 0 km/h
512 09-10-2004 00:00:00 10.71833 C 7.51 g/m*3 10.72 C 0 km/h
513 10-10-2004 00:00:00 9.49167 C 6.16 g/m*3 9.49 C 0 km/h
514 11-10-2004 00:00:00 8.54167 C 5.21 g/m*3 8.54 C 0 km/h
515 12-10-2004 00:00:00 8.30333 C 5.07 g/m*3 8.3 C 0 km/h
516 13-10-2004 00:00:00 9.11167 C 6.86 g/m*3 9.11 C 0 km/h
517 14-10-2004 00:00:00 11.28417 C 8.04 g/m*3 11.28 C 0 km/h
518 15-10-2004 00:00:00 10.13917 C 7.5 g/m*3 10.14 C 0 km/h
519 16-10-2004 00:00:00 7.7475 C 6.95 g/m*3 7.75 C 0 km/h
520 17-10-2004 00:00:00 8.67143 C 6.95 g/m*3 8.67 C 0 km/h
521 18-10-2004 00:00:00 9.92417 C 6.91 g/m*3 9.92 C 0 km/h
522 19-10-2004 00:00:00 8.205 C 7.02 g/m*3 8.21 C 0 km/h
523 20-10-2004 00:00:00 12.1075 C 9.58 g/m*3 12.11 C 0 km/h
524 21-10-2004 00:00:00 14.14083 C 8.35 g/m*3 14.14 C 0 km/h
525 22-10-2004 00:00:00 10.405 C 7.51 g/m*3 10.41 C 0 km/h
Sensor: Nr:Datum:Temp:Abs-Feuchte:Windchill:Wind:
Aussen-T/F 526 23-10-2004 00:00:00 14.51083 C 8.98 g/m*3 14.51 C 0 km/h
527 24-10-2004 00:00:00 15.26 C 10.21 g/m*3 15.26 C 0 km/h
528 25-10-2004 00:00:00 14.77917 C 8.83 g/m*3 14.78 C 0 km/h
529 26-10-2004 00:00:00 10.89917 C 7.87 g/m*3 10.9 C 0 km/h
530 27-10-2004 00:00:00 9.63083 C 7.31 g/m*3 9.63 C 0 km/h
531 28-10-2004 00:00:00 12.44833 C 8.74 g/m*3 12.45 C 0 km/h
532 29-10-2004 00:00:00 12.78908 C 9.56 g/m*3 12.79 C 0 km/h
533 30-10-2004 00:00:00 10.50417 C 8.76 g/m*3 10.5 C 0 km/h
534 31-10-2004 00:00:00 10.9848 C 8.21 g/m*3 10.98 C 0 km/h
535 01-11-2004 00:00:00 9.905 C 7.35 g/m*3 9.9 C 0 km/h
536 02-11-2004 00:00:00 10.325 C 7.68 g/m*3 10.33 C 0 km/h
537 03-11-2004 00:00:00 10.58917 C 8.6 g/m*3 10.59 C 0 km/h
538 04-11-2004 00:00:00 10.43417 C 9.03 g/m*3 10.43 C 0 km/h
539 05-11-2004 00:00:00 8.9725 C 6.72 g/m*3 8.97 C 0 km/h
540 06-11-2004 00:00:00 7.45417 C 6.76 g/m*3 7.45 C 0 km/h
541 07-11-2004 00:00:00 5.835 C 6.43 g/m*3 5.84 C 0 km/h
542 08-11-2004 00:00:00 3.9825 C 5.85 g/m*3 3.98 C 0 km/h
543 09-11-2004 00:00:00 2.1375 C 4.89 g/m*3 2.14 C 0 km/h
544 10-11-2004 00:00:00 1.37667 C 4.98 g/m*3 1.38 C 0 km/h
545 11-11-2004 00:00:00 3.1563 C 5.18 g/m*3 3.16 C 0 km/h
546 12-11-2004 00:00:00 4.21333 C 5.29 g/m*3 4.21 C 0 km/h
547 13-11-2004 00:00:00 4.75583 C 5.38 g/m*3 4.76 C 0 km/h
548 14-11-2004 00:00:00 3.52333 C 4.99 g/m*3 3.52 C 0 km/h
549 15-11-2004 00:00:00 2.90583 C 4.99 g/m*3 2.91 C 0 km/h
550 16-11-2004 00:00:00 6.5475 C 5.87 g/m*3 6.55 C 0 km/h
Sensor: Nr:Datum:Temp:Abs-Feuchte:Windchill:Wind:
Aussen-T/F 551 17-11-2004 00:00:00 9.91917 C 7.05 g/m*3 9.92 C 0 km/h
552 18-11-2004 00:00:00 9.40583 C 7.16 g/m*3 9.41 C 0 km/h
553 19-11-2004 00:00:00 3.91083 C 4.5 g/m*3 3.91 C 0 km/h
554 20-11-2004 00:00:00 2.23583 C 3.44 g/m*3 2.24 C 0 km/h
555 21-11-2004 00:00:00 0.33333 C 3.81 g/m*3 0.33 C 0 km/h
556 22-11-2004 00:00:00 8.65583 C 6.81 g/m*3 8.66 C 0 km/h
557 23-11-2004 00:00:00 7.97563 C 6.86 g/m*3 7.98 C 0 km/h
558 24-11-2004 00:00:00 1.78417 C 4.76 g/m*3 1.78 C 0 km/h
559 25-11-2004 00:00:00 -0.49667 C 4 g/m*3 -0.5 C 0 km/h
560 26-11-2004 00:00:00 3.6775 C 4.77 g/m*3 3.68 C 0 km/h
561 27-11-2004 00:00:00 7.69167 C 6.37 g/m*3 7.69 C 0 km/h
562 28-11-2004 00:00:00 8.34417 C 6.1 g/m*3 8.34 C 0 km/h
563 29-11-2004 00:00:00 5.86583 C 5.62 g/m*3 5.87 C 0 km/h
564 30-11-2004 00:00:00 2.81167 C 4.91 g/m*3 2.81 C 0 km/h
565 01-12-2004 00:00:00 4.71167 C 5.16 g/m*3 4.71 C 0 km/h
566 02-12-2004 00:00:00 4.24333 C 4.84 g/m*3 4.24 C 0 km/h
567 03-12-2004 00:00:00 3.0975 C 5.28 g/m*3 3.1 C 0 km/h
568 04-12-2004 00:00:00 1.99667 C 4.6 g/m*3 2 C 0 km/h
569 05-12-2004 00:00:00 1.255 C 4.17 g/m*3 1.25 C 0 km/h
570 06-12-2004 00:00:00 4.54622 C 5.31 g/m*3 4.55 C 0 km/h
571 07-12-2004 00:00:00 4.37667 C 4.85 g/m*3 4.38 C 0 km/h
572 08-12-2004 00:00:00 5.02833 C 5.01 g/m*3 5.03 C 0 km/h
573 09-12-2004 00:00:00 -0.1025 C 3.89 g/m*3 -0.1 C 0 km/h
574 10-12-2004 00:00:00 -3.5675 C 3.26 g/m*3 -3.57 C 0 km/h
575 11-12-2004 00:00:00 -2.575 C 3.5 g/m*3 -2.58 C 0 km/h
Sensor: Nr:Datum:Temp:Abs-Feuchte:Windchill:Wind:
Aussen-T/F 576 12-12-2004 00:00:00 -1.58833 C 3.25 g/m*3 -1.59 C 0 km/h
577 13-12-2004 00:00:00 -1.33917 C 3.22 g/m*3 -1.34 C 0 km/h
578 14-12-2004 00:00:00 -2.87083 C 3.12 g/m*3 -2.87 C 0 km/h
579 15-12-2004 00:00:00 -3.50917 C 3.26 g/m*3 -3.51 C 0 km/h
580 16-12-2004 00:00:00 -0.65333 C 4.04 g/m*3 -0.65 C 0 km/h
581 17-12-2004 00:00:00 5.17667 C 5.6 g/m*3 5.18 C 0 km/h
582 18-12-2004 00:00:00 3.6479 C 4.61 g/m*3 3.65 C 0 km/h
583 19-12-2004 00:00:00 1.25083 C 4.26 g/m*3 1.25 C 0 km/h
584 20-12-2004 00:00:00 -2.95667 C 3.26 g/m*3 -2.96 C 0 km/h
585 21-12-2004 00:00:00 -6.37167 C 2.46 g/m*3 -6.37 C 0 km/h
586 22-12-2004 00:00:00 -1.36667 C 3.44 g/m*3 -1.37 C 0 km/h
587 23-12-2004 00:00:00 5.19667 C 5.57 g/m*3 5.2 C 0 km/h
588 24-12-2004 00:00:00 8.21833 C 6.45 g/m*3 8.22 C 0 km/h
589 25-12-2004 00:00:00 6.31333 C 5.5 g/m*3 6.31 C 0 km/h
590 26-12-2004 00:00:00 1.5975 C 4.62 g/m*3 1.6 C 0 km/h
591 27-12-2004 00:00:00 1.34167 C 3.71 g/m*3 1.34 C 0 km/h
592 28-12-2004 00:00:00 0.25917 C 3.75 g/m*3 0.26 C 0 km/h
593 29-12-2004 00:00:00 2.37333 C 4.75 g/m*3 2.37 C 0 km/h
594 30-12-2004 00:00:00 3.3325 C 4.63 g/m*3 3.33 C 0 km/h
595 31-12-2004 00:00:00 6.41333 C 5.98 g/m*3 6.41 C 0 km/h
596 01-01-2005 00:00:00 7.80171 C 6.26 g/m*3 7.8 C 0 km/h
597 02-01-2005 00:00:00 5.9225 C 4.43 g/m*3 5.92 C 0 km/h
598 03-01-2005 00:00:00 4.92521 C 4.64 g/m*3 4.93 C 0 km/h
599 04-01-2005 00:00:00 5.78083 C 4.93 g/m*3 5.78 C 0 km/h
600 05-01-2005 00:00:00 4.83917 C 5.25 g/m*3 4.84 C 0 km/h
Sensor: Nr:Datum:Temp:Abs-Feuchte:Windchill:Wind:
Aussen-T/F 601 06-01-2005 00:00:00 6.5425 C 5.77 g/m*3 6.54 C 0 km/h
602 07-01-2005 00:00:00 10.02917 C 6.15 g/m*3 10.03 C 0 km/h
603 08-01-2005 00:00:00 9.30079 C 5.2 g/m*3 9.3 C 0 km/h
604 09-01-2005 00:00:00 6.9625 C 4.94 g/m*3 6.96 C 0 km/h
605 10-01-2005 00:00:00 10.83083 C 6.2 g/m*3 10.83 C 0 km/h
606 11-01-2005 00:00:00 9.06807 C 5.92 g/m*3 9.07 C 0 km/h
607 12-01-2005 00:00:00 8.70833 C 6.17 g/m*3 8.71 C 0 km/h
608 13-01-2005 00:00:00 4.19917 C 4.35 g/m*3 4.2 C 0 km/h
609 14-01-2005 00:00:00 1.69333 C 4.21 g/m*3 1.69 C 0 km/h
610 15-01-2005 00:00:00 -0.22583 C 3.87 g/m*3 -0.23 C 0 km/h
611 16-01-2005 00:00:00 -2.78333 C 3.26 g/m*3 -2.78 C 0 km/h
612 17-01-2005 00:00:00 2.64583 C 4.56 g/m*3 2.65 C 0 km/h
613 18-01-2005 00:00:00 4.8275 C 5.2 g/m*3 4.83 C 0 km/h
614 19-01-2005 00:00:00 3.46917 C 4.51 g/m*3 3.47 C 0 km/h
615 20-01-2005 00:00:00 8.7 C 6.22 g/m*3 8.7 C 0 km/h
616 21-01-2005 00:00:00 6.0475 C 4.06 g/m*3 6.05 C 0 km/h
617 22-01-2005 00:00:00 3.84167 C 4.3 g/m*3 3.84 C 0 km/h
618 23-01-2005 00:00:00 2.245 C 4.32 g/m*3 2.25 C 0 km/h
619 24-01-2005 00:00:00 -0.1275 C 3.31 g/m*3 -0.13 C 0 km/h
620 25-01-2005 00:00:00 -1.08333 C 2.78 g/m*3 -1.08 C 0 km/h
621 26-01-2005 00:00:00 -0.69496 C 2.53 g/m*3 -0.69 C 0 km/h
622 27-01-2005 00:00:00 -2.94167 C 2.65 g/m*3 -2.94 C 0 km/h
623 28-01-2005 00:00:00 -0.65417 C 3.36 g/m*3 -0.65 C 0 km/h
624 29-01-2005 00:00:00 -3.79333 C 2.57 g/m*3 -3.79 C 0 km/h
625 30-01-2005 00:00:00 -1.29083 C 3.07 g/m*3 -1.29 C 0 km/h
Sensor: Nr:Datum:Temp:Abs-Feuchte:Windchill:Wind:
Aussen-T/F 626 31-01-2005 00:00:00 3.05083 C 4.91 g/m*3 3.05 C 0 km/h
627 01-02-2005 00:00:00 3.62917 C 4.63 g/m*3 3.63 C 0 km/h
628 02-02-2005 00:00:00 4.28417 C 5.35 g/m*3 4.28 C 0 km/h
629 03-02-2005 00:00:00 5.17 C 5.38 g/m*3 5.17 C 0 km/h
630 04-02-2005 00:00:00 2.60917 C 4.59 g/m*3 2.61 C 0 km/h
631 05-02-2005 00:00:00 -0.30583 C 3.2 g/m*3 -0.31 C 0 km/h
632 06-02-2005 00:00:00 0.64333 C 2.99 g/m*3 0.64 C 0 km/h
633 07-02-2005 00:00:00 -0.38034 C 3.12 g/m*3 -0.38 C 0 km/h
634 08-02-2005 00:00:00 -0.04333 C 3.84 g/m*3 -0.04 C 0 km/h
635 09-02-2005 00:00:00 1.38333 C 4.21 g/m*3 1.38 C 0 km/h
636 10-02-2005 00:00:00 5.81917 C 5.24 g/m*3 5.82 C 0 km/h
637 11-02-2005 00:00:00 8.145 C 6.61 g/m*3 8.15 C 0 km/h
638 12-02-2005 00:00:00 9.7825 C 6.9 g/m*3 9.78 C 0 km/h
639 13-02-2005 00:00:00 3.3175 C 4.21 g/m*3 3.32 C 0 km/h
640 14-02-2005 00:00:00 1.97917 C 4.46 g/m*3 1.98 C 0 km/h
641 15-02-2005 00:00:00 0.3958 C 3.67 g/m*3 0.4 C 0 km/h
642 16-02-2005 00:00:00 -0.49083 C 3.08 g/m*3 -0.49 C 0 km/h
643 17-02-2005 00:00:00 -0.4075 C 2.88 g/m*3 -0.41 C 0 km/h
644 18-02-2005 00:00:00 -0.81333 C 2.67 g/m*3 -0.81 C 0 km/h
645 19-02-2005 00:00:00 0.64583 C 4.03 g/m*3 0.65 C 0 km/h
646 20-02-2005 00:00:00 1.39083 C 4.24 g/m*3 1.39 C 0 km/h
647 21-02-2005 00:00:00 1.055 C 4.1 g/m*3 1.06 C 0 km/h
648 22-02-2005 00:00:00 -0.25196 C 3.03 g/m*3 -0.25 C 0 km/h
649 23-02-2005 00:00:00 -1.68333 C 2.99 g/m*3 -1.68 C 0 km/h
650 24-02-2005 00:00:00 -1.31111 C 2.9 g/m*3 -1.31 C 0 km/h
Sensor: Nr:Datum:Temp:Abs-Feuchte:Windchill:Wind:
Aussen-T/F 651 25-02-2005 00:00:00 -2.17778 C 2.74 g/m*3 -2.18 C 0 km/h
652 26-02-2005 00:00:00 -0.5 C 3.46 g/m*3 -0.5 C 0 km/h
653 27-02-2005 00:00:00 -3.63472 C 2.28 g/m*3 -3.63 C 0 km/h
654 28-02-2005 00:00:00 -6.9625 C 1.63 g/m*3 -6.96 C 0 km/h
655 01-03-2005 00:00:00 -5.96528 C 1.39 g/m*3 -5.97 C 0 km/h
656 02-03-2005 00:00:00 -1.48056 C 1.75 g/m*3 -1.48 C 0 km/h
657 03-03-2005 00:00:00 -0.1375 C 2.18 g/m*3 -0.14 C 0 km/h
658 04-03-2005 00:00:00 -0.27982 C 2.64 g/m*3 -0.28 C 0 km/h
659 05-03-2005 00:00:00 -0.07014 C 3.18 g/m*3 -0.07 C 0 km/h
660 06-03-2005 00:00:00 -1.81042 C 2.3 g/m*3 -1.81 C 0 km/h
661 07-03-2005 00:00:00 1.11888 C 3.56 g/m*3 1.12 C 0 km/h
662 08-03-2005 00:00:00 3.91111 C 4.71 g/m*3 3.91 C 0 km/h
663 09-03-2005 00:00:00 3.77708 C 4.91 g/m*3 3.78 C 0 km/h
664 10-03-2005 00:00:00 4.05347 C 4.05 g/m*3 4.05 C 0 km/h
665 11-03-2005 00:00:00 2.94028 C 3.93 g/m*3 2.94 C 0 km/h
666 12-03-2005 00:00:00 2.99514 C 4.05 g/m*3 3 C 0 km/h
667 13-03-2005 00:00:00 4.81528 C 3.58 g/m*3 4.82 C 0 km/h
668 14-03-2005 00:00:00 5.70208 C 3.52 g/m*3 5.7 C 0 km/h
669 15-03-2005 00:00:00 7.14306 C 4.06 g/m*3 7.14 C 0 km/h
670 16-03-2005 00:00:00 12.97083 C 5.83 g/m*3 12.97 C 0 km/h
671 17-03-2005 00:00:00 14.52308 C 6.69 g/m*3 14.52 C 0 km/h
672 18-03-2005 00:00:00 14.71528 C 7.56 g/m*3 14.72 C 0 km/h
673 19-03-2005 00:00:00 13.49931 C 8.38 g/m*3 13.5 C 0 km/h
674 20-03-2005 00:00:00 11.45278 C 5.64 g/m*3 11.45 C 0 km/h
675 21-03-2005 00:00:00 9.87917 C 4.56 g/m*3 9.88 C 0 km/h
Sensor: Nr:Datum:Temp:Abs-Feuchte:Windchill:Wind:
Aussen-T/F 676 22-03-2005 00:00:00 11.33056 C 5.18 g/m*3 11.33 C 0 km/h
677 23-03-2005 00:00:00 14.70556 C 8.23 g/m*3 14.71 C 0 km/h
678 24-03-2005 00:00:00 12.16597 C 7.78 g/m*3 12.17 C 0 km/h
679 25-03-2005 00:00:00 13.2875 C 8.38 g/m*3 13.29 C 0 km/h
680 26-03-2005 00:00:00 12.16515 C 7.66 g/m*3 12.17 C 0 km/h
681 27-03-2005 00:00:00 12.68783 C 9.33 g/m*3 12.69 C 0 km/h
682 28-03-2005 00:00:00 12.38833 C 8.64 g/m*3 12.39 C 0 km/h
683 29-03-2005 00:00:00 13.05 C 8.2 g/m*3 13.05 C 0 km/h
684 30-03-2005 00:00:00 11.45917 C 8.8 g/m*3 11.46 C 0 km/h
685 31-03-2005 00:00:00 11.39 C 7.06 g/m*3 11.39 C 0 km/h
686 01-04-2005 00:00:00 10.41583 C 4.49 g/m*3 10.42 C 0 km/h
687 02-04-2005 00:00:00 10.82167 C 4.65 g/m*3 10.82 C 0 km/h
688 03-04-2005 00:00:00 12.61333 C 5.29 g/m*3 12.61 C 0 km/h
689 04-04-2005 00:00:00 13.35333 C 5.78 g/m*3 13.35 C 0 km/h
690 05-04-2005 00:00:00 11.55833 C 6.43 g/m*3 11.56 C 0 km/h
691 06-04-2005 00:00:00 10.38083 C 6.15 g/m*3 10.38 C 0 km/h
692 07-04-2005 00:00:00 12.06833 C 6.36 g/m*3 12.07 C 0 km/h
693 08-04-2005 00:00:00 7.8825 C 6.35 g/m*3 7.88 C 0 km/h
694 09-04-2005 00:00:00 5.93277 C 4.24 g/m*3 5.93 C 0 km/h
695 10-04-2005 00:00:00 7.76583 C 5.49 g/m*3 7.77 C 0 km/h
696 11-04-2005 00:00:00 10.6825 C 6.5 g/m*3 10.68 C 0 km/h
697 12-04-2005 00:00:00 11.34333 C 6.78 g/m*3 11.34 C 0 km/h
698 13-04-2005 00:00:00 12.79833 C 6.79 g/m*3 12.8 C 0 km/h
699 14-04-2005 00:00:00 13.26 C 6.74 g/m*3 13.26 C 0 km/h
700 15-04-2005 00:00:00 12.42583 C 7.07 g/m*3 12.43 C 0 km/h
Sensor: Nr:Datum:Temp:Abs-Feuchte:Windchill:Wind:
Aussen-T/F 701 16-04-2005 00:00:00 10.05167 C 7.71 g/m*3 10.05 C 0 km/h
702 17-04-2005 00:00:00 11.35583 C 8.37 g/m*3 11.36 C 0 km/h
703 18-04-2005 00:00:00 14.87083 C 7.91 g/m*3 14.87 C 0 km/h
704 19-04-2005 00:00:00 9.63167 C 8.13 g/m*3 9.63 C 0 km/h
705 20-04-2005 00:00:00 9.0325 C 7.01 g/m*3 9.03 C 0 km/h
706 21-04-2005 00:00:00 8.66134 C 4.72 g/m*3 8.66 C 0 km/h
707 22-04-2005 00:00:00 10.07 C 4.67 g/m*3 10.07 C 0 km/h
708 23-04-2005 00:00:00 10.6975 C 6 g/m*3 10.7 C 0 km/h
709 24-04-2005 00:00:00 14.47 C 8.87 g/m*3 14.47 C 0 km/h
710 25-04-2005 00:00:00 13.27583 C 9.86 g/m*3 13.28 C 0 km/h
711 26-04-2005 00:00:00 13.5575 C 8.22 g/m*3 13.56 C 0 km/h
712 27-04-2005 00:00:00 13.41667 C 7.37 g/m*3 13.42 C 0 km/h
713 28-04-2005 00:00:00 13.73417 C 6.84 g/m*3 13.73 C 0 km/h
714 29-04-2005 00:00:00 16.11 C 9.78 g/m*3 16.11 C 0 km/h
715 30-04-2005 00:00:00 20.35917 C 10.93 g/m*3 20.36 C 0 km/h
716 01-05-2005 00:00:00 21.73417 C 10.62 g/m*3 21.73 C 0 km/h
717 02-05-2005 00:00:00 20.5605 C 9.76 g/m*3 20.56 C 0 km/h
718 03-05-2005 00:00:00 17.2475 C 9.82 g/m*3 17.25 C 0 km/h
719 04-05-2005 00:00:00 12.76667 C 9.48 g/m*3 12.77 C 0 km/h
720 05-05-2005 00:00:00 12.50167 C 6.8 g/m*3 12.5 C 0 km/h
721 06-05-2005 00:00:00 11.26583 C 6.39 g/m*3 11.27 C 0 km/h
722 07-05-2005 00:00:00 8.97167 C 6.69 g/m*3 8.97 C 0 km/h
723 08-05-2005 00:00:00 7.88333 C 6.03 g/m*3 7.88 C 0 km/h
724 09-05-2005 00:00:00 8.5025 C 5.83 g/m*3 8.5 C 0 km/h
725 10-05-2005 00:00:00 9.0275 C 5.44 g/m*3 9.03 C 0 km/h
Sensor: Nr:Datum:Temp:Abs-Feuchte:Windchill:Wind:
Aussen-T/F 726 11-05-2005 00:00:00 10.67 C 5.6 g/m*3 10.67 C 0 km/h
727 12-05-2005 00:00:00 12.34917 C 5.9 g/m*3 12.35 C 0 km/h
728 13-05-2005 00:00:00 13.33583 C 5.67 g/m*3 13.34 C 0 km/h
729 14-05-2005 00:00:00 11.34917 C 8.9 g/m*3 11.35 C 0 km/h
730 15-05-2005 00:00:00 10.61176 C 7.06 g/m*3 10.61 C 0 km/h
731 16-05-2005 00:00:00 12.49 C 7.4 g/m*3 12.49 C 0 km/h
732 17-05-2005 00:00:00 10.19 C 6.48 g/m*3 10.19 C 0 km/h
733 18-05-2005 00:00:00 9.50333 C 5.38 g/m*3 9.5 C 0 km/h
734 19-05-2005 00:00:00 13.98667 C 6.1 g/m*3 13.99 C 0 km/h
735 20-05-2005 00:00:00 18.82 C 7.84 g/m*3 18.82 C 0 km/h
736 21-05-2005 00:00:00 17.09333 C 10.54 g/m*3 17.09 C 0 km/h
737 22-05-2005 00:00:00 16.69167 C 9.91 g/m*3 16.69 C 0 km/h
738 23-05-2005 00:00:00 15.47 C 8.81 g/m*3 15.47 C 0 km/h
739 24-05-2005 00:00:00 15.2125 C 7.47 g/m*3 15.21 C 0 km/h
740 25-05-2005 00:00:00 20.55083 C 9.07 g/m*3 20.55 C 0 km/h
741 26-05-2005 00:00:00 23.19417 C 10.55 g/m*3 23.19 C 0 km/h
742 27-05-2005 00:00:00 25.4563 C 11.26 g/m*3 25.46 C 0 km/h
743 28-05-2005 00:00:00 25.91333 C 11.84 g/m*3 25.91 C 0 km/h
744 29-05-2005 00:00:00 24.1375 C 9.98 g/m*3 24.14 C 0 km/h
745 30-05-2005 00:00:00 14.91167 C 10.28 g/m*3 14.91 C 0 km/h
746 31-05-2005 00:00:00 14.53333 C 7.22 g/m*3 14.53 C 0 km/h
747 01-06-2005 00:00:00 15.82667 C 7.19 g/m*3 15.83 C 0 km/h
748 02-06-2005 00:00:00 18.09167 C 8.27 g/m*3 18.09 C 0 km/h
749 03-06-2005 00:00:00 20.99667 C 10.8 g/m*3 21 C 0 km/h
750 04-06-2005 00:00:00 16.485 C 8.56 g/m*3 16.49 C 0 km/h
Sensor: Nr:Datum:Temp:Abs-Feuchte:Windchill:Wind:
Aussen-T/F 751 05-06-2005 00:00:00 14.8025 C 7.74 g/m*3 14.8 C 0 km/h
752 06-06-2005 00:00:00 15.25917 C 7.79 g/m*3 15.26 C 0 km/h
753 07-06-2005 00:00:00 12.26 C 5.02 g/m*3 12.26 C 0 km/h
754 08-06-2005 00:00:00 13.41429 C 6.24 g/m*3 13.41 C 0 km/h
755 09-06-2005 00:00:00 15.84167 C 6.69 g/m*3 15.84 C 0 km/h
756 10-06-2005 00:00:00 16.15833 C 7.12 g/m*3 16.16 C 0 km/h
757 11-06-2005 00:00:00 14.58 C 6.14 g/m*3 14.58 C 0 km/h
758 12-06-2005 00:00:00 14.0525 C 6.27 g/m*3 14.05 C 0 km/h
759 13-06-2005 00:00:00 17.27833 C 6.58 g/m*3 17.28 C 0 km/h
760 14-06-2005 00:00:00 16.55583 C 8.54 g/m*3 16.56 C 0 km/h
761 15-06-2005 00:00:00 20.05167 C 10.11 g/m*3 20.05 C 0 km/h
762 16-06-2005 00:00:00 21.46833 C 9.08 g/m*3 21.47 C 0 km/h
763 17-06-2005 00:00:00 21.405 C 12.17 g/m*3 21.41 C 0 km/h
764 18-06-2005 00:00:00 25.12583 C 10.68 g/m*3 25.13 C 0 km/h
765 19-06-2005 00:00:00 24.75417 C 8.2 g/m*3 24.75 C 0 km/h
766 20-06-2005 00:00:00 25.94538 C 10.02 g/m*3 25.95 C 0 km/h
767 21-06-2005 00:00:00 26.24583 C 10.89 g/m*3 26.25 C 0 km/h
768 22-06-2005 00:00:00 24.59333 C 9.45 g/m*3 24.59 C 0 km/h
769 23-06-2005 00:00:00 25.40417 C 9.9 g/m*3 25.4 C 0 km/h
770 24-06-2005 00:00:00 27.67167 C 10.61 g/m*3 27.67 C 0 km/h
771 25-06-2005 00:00:00 24.93083 C 12.35 g/m*3 24.93 C 0 km/h
772 26-06-2005 00:00:00 23.99833 C 11.73 g/m*3 24 C 0 km/h
773 27-06-2005 00:00:00 25.26083 C 10.77 g/m*3 25.26 C 0 km/h
774 28-06-2005 00:00:00 26.35917 C 9.96 g/m*3 26.36 C 0 km/h
775 29-06-2005 00:00:00 23.065 C 12.98 g/m*3 23.07 C 0 km/h
Sensor: Nr:Datum:Temp:Abs-Feuchte:Windchill:Wind:
Aussen-T/F 776 30-06-2005 00:00:00 20.43667 C 12.48 g/m*3 20.44 C 0 km/h
777 01-07-2005 00:00:00 18.08083 C 11.11 g/m*3 18.08 C 0 km/h
778 02-07-2005 00:00:00 19.26807 C 12.28 g/m*3 19.27 C 0 km/h
779 03-07-2005 00:00:00 24.03333 C 13.19 g/m*3 24.03 C 0 km/h
780 04-07-2005 00:00:00 21.58833 C 11.39 g/m*3 21.59 C 0 km/h
781 05-07-2005 00:00:00 17.17083 C 7.23 g/m*3 17.17 C 0 km/h
782 06-07-2005 00:00:00 16.24167 C 9.2 g/m*3 16.24 C 0 km/h
783 07-07-2005 00:00:00 14.92 C 9.47 g/m*3 14.92 C 0 km/h
784 08-07-2005 00:00:00 16.17583 C 9.49 g/m*3 16.18 C 0 km/h
785 09-07-2005 00:00:00 19.5375 C 9.84 g/m*3 19.54 C 0 km/h
786 10-07-2005 00:00:00 22.93917 C 10.79 g/m*3 22.94 C 0 km/h
787 11-07-2005 00:00:00 23.77333 C 10.84 g/m*3 23.77 C 0 km/h
788 12-07-2005 00:00:00 23.70667 C 11.85 g/m*3 23.71 C 0 km/h
789 13-07-2005 00:00:00 25.555 C 11.6 g/m*3 25.56 C 0 km/h
790 14-07-2005 00:00:00 25.76723 C 12.39 g/m*3 25.77 C 0 km/h
791 15-07-2005 00:00:00 25.0575 C 11.9 g/m*3 25.06 C 0 km/h
792 16-07-2005 00:00:00 23.73917 C 11.46 g/m*3 23.74 C 0 km/h
793 17-07-2005 00:00:00 23.48167 C 9.48 g/m*3 23.48 C 0 km/h
794 18-07-2005 00:00:00 22.98917 C 10.39 g/m*3 22.99 C 0 km/h
795 19-07-2005 00:00:00 19.165 C 10.11 g/m*3 19.17 C 0 km/h
796 20-07-2005 00:00:00 17.92333 C 9 g/m*3 17.92 C 0 km/h
797 21-07-2005 00:00:00 16.6875 C 8.29 g/m*3 16.69 C 0 km/h
798 22-07-2005 00:00:00 17.13833 C 8.74 g/m*3 17.14 C 0 km/h
799 23-07-2005 00:00:00 17.69 C 7.64 g/m*3 17.69 C 0 km/h
800 24-07-2005 00:00:00 17.87167 C 11.25 g/m*3 17.87 C 0 km/h
Sensor: Nr:Datum:Temp:Abs-Feuchte:Windchill:Wind:
Aussen-T/F 801 25-07-2005 00:00:00 20.895 C 11.75 g/m*3 20.9 C 0 km/h
802 26-07-2005 00:00:00 20.33361 C 10.75 g/m*3 20.33 C 0 km/h
803 27-07-2005 00:00:00 23.76 C 13.16 g/m*3 23.76 C 0 km/h
804 28-07-2005 00:00:00 25.00583 C 14.67 g/m*3 25.01 C 0 km/h
805 29-07-2005 00:00:00 23.18917 C 13.92 g/m*3 23.19 C 0 km/h
806 30-07-2005 00:00:00 20.03083 C 11.38 g/m*3 20.03 C 0 km/h
807 31-07-2005 00:00:00 17.3425 C 10.74 g/m*3 17.34 C 0 km/h
808 01-08-2005 00:00:00 19.36167 C 10.99 g/m*3 19.36 C 0 km/h
809 02-08-2005 00:00:00 19.71 C 9.16 g/m*3 19.71 C 0 km/h
810 03-08-2005 00:00:00 18.86917 C 8.93 g/m*3 18.87 C 0 km/h
811 04-08-2005 00:00:00 17.4025 C 8.67 g/m*3 17.4 C 0 km/h
812 05-08-2005 00:00:00 16.13083 C 9.86 g/m*3 16.13 C 0 km/h
813 06-08-2005 00:00:00 16.02 C 9 g/m*3 16.02 C 0 km/h
814 07-08-2005 00:00:00 13.69412 C 8.11 g/m*3 13.69 C 0 km/h
815 08-08-2005 00:00:00 14.66667 C 8.88 g/m*3 14.67 C 0 km/h
816 09-08-2005 00:00:00 16.6775 C 8.55 g/m*3 16.68 C 0 km/h
817 10-08-2005 00:00:00 16.66083 C 7.5 g/m*3 16.66 C 0 km/h
818 11-08-2005 00:00:00 17.4125 C 9.48 g/m*3 17.41 C 0 km/h
819 12-08-2005 00:00:00 18.20917 C 11.32 g/m*3 18.21 C 0 km/h
820 13-08-2005 00:00:00 18.01833 C 8.84 g/m*3 18.02 C 0 km/h
821 14-08-2005 00:00:00 15.59833 C 10.51 g/m*3 15.6 C 0 km/h
822 15-08-2005 00:00:00 14.56583 C 11.02 g/m*3 14.57 C 0 km/h
823 16-08-2005 00:00:00 19.1575 C 11.13 g/m*3 19.16 C 0 km/h
824 17-08-2005 00:00:00 20.12333 C 10.72 g/m*3 20.12 C 0 km/h
825 18-08-2005 00:00:00 22.1825 C 11.42 g/m*3 22.18 C 0 km/h
Sensor: Nr:Datum:Temp:Abs-Feuchte:Windchill:Wind:
Aussen-T/F 826 19-08-2005 00:00:00 21.06975 C 12.52 g/m*3 21.07 C 0 km/h
827 20-08-2005 00:00:00 19.5825 C 10.72 g/m*3 19.58 C 0 km/h
828 21-08-2005 00:00:00 17.13083 C 11.35 g/m*3 17.13 C 0 km/h
829 22-08-2005 00:00:00 18.24 C 11.79 g/m*3 18.24 C 0 km/h
830 23-08-2005 00:00:00 19.4425 C 11.39 g/m*3 19.44 C 0 km/h
831 24-08-2005 00:00:00 18.79417 C 10.31 g/m*3 18.79 C 0 km/h
832 25-08-2005 00:00:00 16.47333 C 10.06 g/m*3 16.47 C 0 km/h
833 26-08-2005 00:00:00 15.255 C 8.61 g/m*3 15.26 C 0 km/h
834 27-08-2005 00:00:00 16.45083 C 9.03 g/m*3 16.45 C 0 km/h
835 28-08-2005 00:00:00 17.84083 C 9.36 g/m*3 17.84 C 0 km/h
836 29-08-2005 00:00:00 19.6675 C 10.08 g/m*3 19.67 C 0 km/h
837 30-08-2005 00:00:00 21.65667 C 10.92 g/m*3 21.66 C 0 km/h
838 31-08-2005 00:00:00 23.08403 C 11.54 g/m*3 23.08 C 0 km/h
839 01-09-2005 00:00:00 22.76917 C 12.16 g/m*3 22.77 C 0 km/h
840 02-09-2005 00:00:00 21.29917 C 11.95 g/m*3 21.3 C 0 km/h
841 03-09-2005 00:00:00 22.07899 C 11.2 g/m*3 22.08 C 0 km/h
842 04-09-2005 00:00:00 21.90417 C 10.62 g/m*3 21.9 C 0 km/h
843 05-09-2005 00:00:00 21.3675 C 9.49 g/m*3 21.37 C 0 km/h
844 06-09-2005 00:00:00 20.89417 C 10.71 g/m*3 20.89 C 0 km/h
845 07-09-2005 00:00:00 22.66167 C 11.44 g/m*3 22.66 C 0 km/h
846 08-09-2005 00:00:00 23.19833 C 12.14 g/m*3 23.2 C 0 km/h
847 09-09-2005 00:00:00 21.58833 C 12.69 g/m*3 21.59 C 0 km/h
848 10-09-2005 00:00:00 21.80833 C 12.68 g/m*3 21.81 C 0 km/h
849 11-09-2005 00:00:00 18.13 C 13.92 g/m*3 18.13 C 0 km/h
850 12-09-2005 00:00:00 16.6975 C 13.04 g/m*3 16.7 C 0 km/h
Sensor: Nr:Datum:Temp:Abs-Feuchte:Windchill:Wind:
Aussen-T/F 851 13-09-2005 00:00:00 17.45833 C 10.62 g/m*3 17.46 C 0 km/h
852 14-09-2005 00:00:00 16.755 C 10.01 g/m*3 16.76 C 0 km/h
853 15-09-2005 00:00:00 20.13361 C 11.35 g/m*3 20.13 C 0 km/h
854 16-09-2005 00:00:00 15.17311 C 9.68 g/m*3 15.17 C 0 km/h
855 17-09-2005 00:00:00 11.81667 C 6.67 g/m*3 11.82 C 0 km/h
856 18-09-2005 00:00:00 11.7875 C 6.82 g/m*3 11.79 C 0 km/h
857 19-09-2005 00:00:00 12.0719 C 6.68 g/m*3 12.07 C 0 km/h
858 20-09-2005 00:00:00 12.19583 C 7.15 g/m*3 12.2 C 0 km/h
859 21-09-2005 00:00:00 13.40667 C 7.66 g/m*3 13.41 C 0 km/h
860 22-09-2005 00:00:00 13.94833 C 8.1 g/m*3 13.95 C 0 km/h
861 23-09-2005 00:00:00 14.84667 C 8.74 g/m*3 14.85 C 0 km/h
862 24-09-2005 00:00:00 15.92583 C 9.59 g/m*3 15.93 C 0 km/h
863 25-09-2005 00:00:00 17.7325 C 10.47 g/m*3 17.73 C 0 km/h
864 26-09-2005 00:00:00 16.44083 C 9.46 g/m*3 16.44 C 0 km/h
865 27-09-2005 00:00:00 17.605 C 8.57 g/m*3 17.61 C 0 km/h
866 28-09-2005 00:00:00 15.42917 C 8.89 g/m*3 15.43 C 0 km/h
867 29-09-2005 00:00:00 12.91254 C 7.94 g/m*3 12.91 C 0 km/h
868 30-09-2005 00:00:00 12.29549 C 7.03 g/m*3 12.3 C 0 km/h
869 01-10-2005 00:00:00 12.61701 C 9.71 g/m*3 12.62 C 0 km/h
870 02-10-2005 00:00:00 10.70833 C 8.46 g/m*3 10.71 C 0 km/h
871 03-10-2005 00:00:00 11.3875 C 8.55 g/m*3 11.39 C 0 km/h
872 04-10-2005 00:00:00 14.26864 C 9.15 g/m*3 14.27 C 0 km/h
873 05-10-2005 00:00:00 16.7441 C 10.35 g/m*3 16.74 C 0 km/h
874 06-10-2005 00:00:00 16.68194 C 10.26 g/m*3 16.68 C 0 km/h
875 07-10-2005 00:00:00 14.36563 C 9.48 g/m*3 14.37 C 0 km/h
Sensor: Nr:Datum:Temp:Abs-Feuchte:Windchill:Wind:
Aussen-T/F 876 08-10-2005 00:00:00 13.06285 C 9.3 g/m*3 13.06 C 0 km/h
877 09-10-2005 00:00:00 14.51049 C 9.74 g/m*3 14.51 C 0 km/h
878 10-10-2005 00:00:00 15.84132 C 9.84 g/m*3 15.84 C 0 km/h
879 11-10-2005 00:00:00 13.49444 C 9.21 g/m*3 13.49 C 0 km/h
880 12-10-2005 00:00:00 13.54549 C 9.11 g/m*3 13.55 C 0 km/h
881 13-10-2005 00:00:00 12.36181 C 8.52 g/m*3 12.36 C 0 km/h
882 14-10-2005 00:00:00 11.9951 C 8.33 g/m*3 12 C 0 km/h
883 15-10-2005 00:00:00 11.45174 C 8.2 g/m*3 11.45 C 0 km/h
884 16-10-2005 00:00:00 10.83472 C 7.4 g/m*3 10.83 C 0 km/h
885 17-10-2005 00:00:00 8.28194 C 5.72 g/m*3 8.28 C 0 km/h
886 18-10-2005 00:00:00 8.65749 C 5.37 g/m*3 8.66 C 0 km/h
887 19-10-2005 00:00:00 7.00417 C 6.38 g/m*3 7 C 0 km/h
888 20-10-2005 00:00:00 11.25382 C 9.08 g/m*3 11.25 C 0 km/h
889 21-10-2005 00:00:00 14.43681 C 10.35 g/m*3 14.44 C 0 km/h
890 22-10-2005 00:00:00 15.54896 C 10.18 g/m*3 15.55 C 0 km/h
891 23-10-2005 00:00:00 14.24321 C 9.16 g/m*3 14.24 C 0 km/h
892 24-10-2005 00:00:00 12.10545 C 8.42 g/m*3 12.11 C 0 km/h
893 25-10-2005 00:00:00 15.69143 C 8.79 g/m*3 15.69 C 0 km/h
894 26-10-2005 00:00:00 16.07417 C 9.59 g/m*3 16.07 C 0 km/h
895 27-10-2005 00:00:00 14.98583 C 10.01 g/m*3 14.99 C 0 km/h
896 28-10-2005 00:00:00 16.07721 C 9.93 g/m*3 16.08 C 0 km/h
897 29-10-2005 00:00:00 13.94583 C 9.13 g/m*3 13.95 C 0 km/h
898 30-10-2005 00:00:00 12.71467 C 8.73 g/m*3 12.71 C 0 km/h
899 31-10-2005 00:00:00 13.11667 C 8.12 g/m*3 13.12 C 0 km/h
900 01-11-2005 00:00:00 12.41319 C 8.54 g/m*3 12.41 C 0 km/h
Sensor: Nr:Datum:Temp:Abs-Feuchte:Windchill:Wind:
Aussen-T/F 901 02-11-2005 00:00:00 10.43819 C 8.46 g/m*3 10.44 C 0 km/h
902 03-11-2005 00:00:00 14.78403 C 9.99 g/m*3 14.78 C 0 km/h
903 04-11-2005 00:00:00 13.39444 C 9.98 g/m*3 13.39 C 0 km/h
904 05-11-2005 00:00:00 8.99792 C 7.03 g/m*3 9 C 0 km/h
905 06-11-2005 00:00:00 9.96224 C 7.32 g/m*3 9.96 C 0 km/h
906 07-11-2005 00:00:00 8.03611 C 7.17 g/m*3 8.04 C 0 km/h
907 08-11-2005 00:00:00 10.35903 C 7.4 g/m*3 10.36 C 0 km/h
908 09-11-2005 00:00:00 7.83194 C 7.09 g/m*3 7.83 C 0 km/h
909 10-11-2005 00:00:00 9.97639 C 7.21 g/m*3 9.98 C 0 km/h
910 11-11-2005 00:00:00 9.26736 C 7.4 g/m*3 9.27 C 0 km/h
911 12-11-2005 00:00:00 7.83611 C 5.99 g/m*3 7.84 C 0 km/h
912 13-11-2005 00:00:00 9.98542 C 7.43 g/m*3 9.99 C 0 km/h
913 14-11-2005 00:00:00 7.76458 C 6.52 g/m*3 7.76 C 0 km/h
914 15-11-2005 00:00:00 6.09931 C 5.92 g/m*3 6.1 C 0 km/h
915 16-11-2005 00:00:00 5.71806 C 5.83 g/m*3 5.72 C 0 km/h
916 17-11-2005 00:00:00 4.69231 C 4.87 g/m*3 4.69 C 0 km/h
917 18-11-2005 00:00:00 3.75903 C 4.75 g/m*3 3.76 C 0 km/h
918 19-11-2005 00:00:00 1.67431 C 4.45 g/m*3 1.67 C 0 km/h
919 20-11-2005 00:00:00 1.75625 C 4.65 g/m*3 1.76 C 0 km/h
920 21-11-2005 00:00:00 4.09236 C 5.57 g/m*3 4.09 C 0 km/h
921 22-11-2005 00:00:00 -0.87778 C 3.96 g/m*3 -0.88 C 0 km/h
922 23-11-2005 00:00:00 0.84861 C 4.11 g/m*3 0.85 C 0 km/h
923 24-11-2005 00:00:00 2.37778 C 4.63 g/m*3 2.38 C 0 km/h
924 25-11-2005 00:00:00 1.54167 C 3.59 g/m*3 1.54 C 0 km/h
925 26-11-2005 00:00:00 2.46111 C 3.28 g/m*3 2.46 C 0 km/h
Sensor: Nr:Datum:Temp:Abs-Feuchte:Windchill:Wind:
Aussen-T/F 926 27-11-2005 00:00:00 2.30979 C 4.39 g/m*3 2.31 C 0 km/h
927 28-11-2005 00:00:00 1.92847 C 4.78 g/m*3 1.93 C 0 km/h
928 29-11-2005 00:00:00 2.30694 C 4.43 g/m*3 2.31 C 0 km/h
929 30-11-2005 00:00:00 2.00069 C 4.01 g/m*3 2 C 0 km/h
930 01-12-2005 00:00:00 0.41875 C 3.53 g/m*3 0.42 C 0 km/h
931 02-12-2005 00:00:00 0.22153 C 3.38 g/m*3 0.22 C 0 km/h
932 03-12-2005 00:00:00 3.82708 C 5.01 g/m*3 3.83 C 0 km/h
933 04-12-2005 00:00:00 7.05417 C 6.74 g/m*3 7.05 C 0 km/h
934 05-12-2005 00:00:00 6.35208 C 5.78 g/m*3 6.35 C 0 km/h
935 06-12-2005 00:00:00 4.99583 C 5.15 g/m*3 5 C 0 km/h
936 07-12-2005 00:00:00 4.93706 C 5.56 g/m*3 4.94 C 0 km/h
937 08-12-2005 00:00:00 4.74653 C 5.18 g/m*3 4.75 C 0 km/h
938 09-12-2005 00:00:00 3.66458 C 5.09 g/m*3 3.66 C 0 km/h
939 10-12-2005 00:00:00 -0.92292 C 3.78 g/m*3 -0.92 C 0 km/h
940 11-12-2005 00:00:00 -2.30069 C 3.46 g/m*3 -2.3 C 0 km/h
941 12-12-2005 00:00:00 1.72847 C 4.76 g/m*3 1.73 C 0 km/h
942 13-12-2005 00:00:00 1.28472 C 4.91 g/m*3 1.28 C 0 km/h
943 14-12-2005 00:00:00 3.84028 C 5.78 g/m*3 3.84 C 0 km/h
944 15-12-2005 00:00:00 5.59167 C 5.53 g/m*3 5.59 C 0 km/h
945 16-12-2005 00:00:00 6.09861 C 5.31 g/m*3 6.1 C 0 km/h
946 17-12-2005 00:00:00 1.45035 C 3.8 g/m*3 1.45 C 0 km/h
947 18-12-2005 00:00:00 1.59861 C 3.96 g/m*3 1.6 C 0 km/h
948 19-12-2005 00:00:00 1.45417 C 4.2 g/m*3 1.45 C 0 km/h
949 20-12-2005 00:00:00 2.75347 C 4.64 g/m*3 2.75 C 0 km/h
950 21-12-2005 00:00:00 2.23194 C 4.34 g/m*3 2.23 C 0 km/h
Sensor: Nr:Datum:Temp:Abs-Feuchte:Windchill:Wind:
Aussen-T/F 951 22-12-2005 00:00:00 2.96875 C 5.07 g/m*3 2.97 C 0 km/h
952 23-12-2005 00:00:00 4.89653 C 5.59 g/m*3 4.9 C 0 km/h
953 24-12-2005 00:00:00 5.93264 C 5.56 g/m*3 5.93 C 0 km/h
954 25-12-2005 00:00:00 4.13958 C 5.2 g/m*3 4.14 C 0 km/h
955 26-12-2005 00:00:00 1.48403 C 4.21 g/m*3 1.48 C 0 km/h
956 27-12-2005 00:00:00 -1.47413 C 3.38 g/m*3 -1.47 C 0 km/h
957 28-12-2005 00:00:00 -1.48681 C 3.38 g/m*3 -1.49 C 0 km/h
958 29-12-2005 00:00:00 -2.85486 C 2.99 g/m*3 -2.85 C 0 km/h
959 30-12-2005 00:00:00 -3.14514 C 2.78 g/m*3 -3.15 C 0 km/h
960 31-12-2005 00:00:00 2.82361 C 4.93 g/m*3 2.82 C 0 km/h
961 01-01-2006 00:00:00 3.86319 C 5.09 g/m*3 3.86 C 0 km/h
962 02-01-2006 00:00:00 3.13125 C 4.93 g/m*3 3.13 C 0 km/h
963 03-01-2006 00:00:00 2.31597 C 4.43 g/m*3 2.32 C 0 km/h
964 04-01-2006 00:00:00 0.29583 C 3.73 g/m*3 0.3 C 0 km/h
965 05-01-2006 00:00:00 1.24306 C 3.66 g/m*3 1.24 C 0 km/h
966 06-01-2006 00:00:00 -0.25035 C 4 g/m*3 -0.25 C 0 km/h
967 07-01-2006 00:00:00 2.66181 C 4.44 g/m*3 2.66 C 0 km/h
968 08-01-2006 00:00:00 2.09653 C 3.9 g/m*3 2.1 C 0 km/h
969 09-01-2006 00:00:00 -2.41736 C 3.27 g/m*3 -2.42 C 0 km/h
970 10-01-2006 00:00:00 -1.51736 C 3.25 g/m*3 -1.52 C 0 km/h
971 11-01-2006 00:00:00 -1.95903 C 3.55 g/m*3 -1.96 C 0 km/h
972 12-01-2006 00:00:00 1.79583 C 5.01 g/m*3 1.8 C 0 km/h
973 13-01-2006 00:00:00 0.35972 C 3.83 g/m*3 0.36 C 0 km/h
974 14-01-2006 00:00:00 -3.27639 C 3.12 g/m*3 -3.28 C 0 km/h
975 15-01-2006 00:00:00 -4.27153 C 2.57 g/m*3 -4.27 C 0 km/h
Sensor: Nr:Datum:Temp:Abs-Feuchte:Windchill:Wind:
Aussen-T/F 976 16-01-2006 00:00:00 -4.78951 C 2.59 g/m*3 -4.79 C 0 km/h
977 17-01-2006 00:00:00 1.90278 C 4.54 g/m*3 1.9 C 0 km/h
978 18-01-2006 00:00:00 3.8125 C 5.08 g/m*3 3.81 C 0 km/h
979 19-01-2006 00:00:00 1.43403 C 4.72 g/m*3 1.43 C 0 km/h
980 20-01-2006 00:00:00 6.2375 C 6 g/m*3 6.24 C 0 km/h
981 21-01-2006 00:00:00 4.58889 C 5.24 g/m*3 4.59 C 0 km/h
982 22-01-2006 00:00:00 1.08125 C 3.94 g/m*3 1.08 C 0 km/h
983 23-01-2006 00:00:00 -5.20417 C 1.94 g/m*3 -5.2 C 0 km/h
984 24-01-2006 00:00:00 -5.83542 C 1.92 g/m*3 -5.84 C 0 km/h
985 25-01-2006 00:00:00 -3.80833 C 2.61 g/m*3 -3.81 C 0 km/h
986 26-01-2006 00:00:00 -2.11818 C 3.16 g/m*3 -2.12 C 0 km/h
987 27-01-2006 00:00:00 -5.44236 C 2.23 g/m*3 -5.44 C 0 km/h
988 28-01-2006 00:00:00 -6.67986 C 2.22 g/m*3 -6.68 C 0 km/h
989 29-01-2006 00:00:00 -6.29792 C 2.35 g/m*3 -6.3 C 0 km/h
990 30-01-2006 00:00:00 -5.95139 C 2.43 g/m*3 -5.95 C 0 km/h
991 31-01-2006 00:00:00 -3.30486 C 3.12 g/m*3 -3.3 C 0 km/h
992 01-02-2006 00:00:00 -5.48333 C 2.52 g/m*3 -5.48 C 0 km/h
993 02-02-2006 00:00:00 -6.16667 C 2.42 g/m*3 -6.17 C 0 km/h
994 03-02-2006 00:00:00 -3.79931 C 2.72 g/m*3 -3.8 C 0 km/h
995 04-02-2006 00:00:00 -0.85208 C 3.61 g/m*3 -0.85 C 0 km/h
996 05-02-2006 00:00:00 -0.32867 C 3.81 g/m*3 -0.33 C 0 km/h
997 06-02-2006 00:00:00 1.50903 C 4.7 g/m*3 1.51 C 0 km/h
998 07-02-2006 00:00:00 3.74861 C 4.89 g/m*3 3.75 C 0 km/h
999 08-02-2006 00:00:00 3.70208 C 4.95 g/m*3 3.7 C 0 km/h
1000 09-02-2006 00:00:00 2.29722 C 4.03 g/m*3 2.3 C 0 km/h
Sensor: Nr:Datum:Temp:Abs-Feuchte:Windchill:Wind:
Aussen-T/F 1001 10-02-2006 00:00:00 2.10979 C 4.24 g/m*3 2.11 C 0 km/h
1002 11-02-2006 00:00:00 1.21458 C 4.02 g/m*3 1.21 C 0 km/h
1003 12-02-2006 00:00:00 1.60694 C 3.21 g/m*3 1.61 C 0 km/h
1004 13-02-2006 00:00:00 2.60764 C 2.97 g/m*3 2.61 C 0 km/h
1005 14-02-2006 00:00:00 4.21597 C 4.26 g/m*3 4.22 C 0 km/h
1006 15-02-2006 00:00:00 6.17832 C 5.78 g/m*3 6.18 C 0 km/h
1007 16-02-2006 00:00:00 7.31736 C 6.23 g/m*3 7.32 C 0 km/h
1008 17-02-2006 00:00:00 6.0625 C 5.09 g/m*3 6.06 C 0 km/h
1009 18-02-2006 00:00:00 5.81389 C 5.1 g/m*3 5.81 C 0 km/h
1010 19-02-2006 00:00:00 7.08472 C 4.96 g/m*3 7.08 C 0 km/h
1011 20-02-2006 00:00:00 4.17917 C 5.28 g/m*3 4.18 C 0 km/h
1012 21-02-2006 00:00:00 3.04444 C 5.09 g/m*3 3.04 C 0 km/h
1013 22-02-2006 00:00:00 2.47639 C 3.64 g/m*3 2.48 C 0 km/h
1014 23-02-2006 00:00:00 1.36736 C 2.72 g/m*3 1.37 C 0 km/h
1015 24-02-2006 00:00:00 2.05972 C 2.88 g/m*3 2.06 C 0 km/h
1016 25-02-2006 00:00:00 0.46364 C 2.5 g/m*3 0.46 C 0 km/h
1017 26-02-2006 00:00:00 -1.08472 C 2.46 g/m*3 -1.08 C 0 km/h
1018 27-02-2006 00:00:00 -1.57569 C 3.19 g/m*3 -1.58 C 0 km/h
1019 28-02-2006 00:00:00 1.56806 C 4.03 g/m*3 1.57 C 0 km/h
1020 01-03-2006 00:00:00 0.10556 C 3.05 g/m*3 0.11 C 0 km/h
1021 02-03-2006 00:00:00 -0.25347 C 2.76 g/m*3 -0.25 C 0 km/h
1022 03-03-2006 00:00:00 -0.44722 C 3.59 g/m*3 -0.45 C 0 km/h
1023 04-03-2006 00:00:00 -0.87361 C 3.51 g/m*3 -0.87 C 0 km/h
1024 05-03-2006 00:00:00 -1.41944 C 3.13 g/m*3 -1.42 C 0 km/h
1025 06-03-2006 00:00:00 1.2125 C 3.34 g/m*3 1.21 C 0 km/h
Sensor: Nr:Datum:Temp:Abs-Feuchte:Windchill:Wind:
Aussen-T/F 1026 07-03-2006 00:00:00 2.11748 C 3.25 g/m*3 2.12 C 0 km/h
1027 08-03-2006 00:00:00 0.99722 C 3.99 g/m*3 1 C 0 km/h
1028 09-03-2006 00:00:00 8.02431 C 6.63 g/m*3 8.02 C 0 km/h
1029 10-03-2006 00:00:00 5.79931 C 4.67 g/m*3 5.8 C 0 km/h
1030 11-03-2006 00:00:00 1.7 C 4.29 g/m*3 1.7 C 0 km/h
1031 12-03-2006 00:00:00 -2.45556 C 1.99 g/m*3 -2.46 C 0 km/h
1032 13-03-2006 00:00:00 -1.82553 C 2.07 g/m*3 -1.83 C 0 km/h
1033 14-03-2006 00:00:00 -0.25972 C 2.33 g/m*3 -0.26 C 0 km/h
1034 15-03-2006 00:00:00 1.33333 C 2.81 g/m*3 1.33 C 0 km/h
1035 16-03-2006 00:00:00 2.07292 C 2.65 g/m*3 2.07 C 0 km/h
1036 17-03-2006 00:00:00 2.75175 C 3.25 g/m*3 2.75 C 0 km/h
1037 18-03-2006 00:00:00 3.75069 C 3.43 g/m*3 3.75 C 0 km/h
1038 19-03-2006 00:00:00 4.88056 C 3.93 g/m*3 4.88 C 0 km/h
1039 20-03-2006 00:00:00 4.13542 C 4.32 g/m*3 4.14 C 0 km/h
1040 21-03-2006 00:00:00 3.42222 C 5.01 g/m*3 3.42 C 0 km/h
1041 22-03-2006 00:00:00 4.52708 C 3.53 g/m*3 4.53 C 0 km/h
1042 23-03-2006 00:00:00 4.85694 C 2.84 g/m*3 4.86 C 0 km/h
1043 24-03-2006 00:00:00 5.28125 C 5.03 g/m*3 5.28 C 0 km/h
1044 25-03-2006 00:00:00 12.04861 C 7.85 g/m*3 12.05 C 0 km/h
1045 26-03-2006 00:00:00 15.02826 C 9.07 g/m*3 15.03 C 0 km/h
1046 27-03-2006 00:00:00 14.96319 C 8.44 g/m*3 14.96 C 0 km/h
1047 28-03-2006 00:00:00 11.67273 C 6.09 g/m*3 11.67 C 0 km/h
1048 29-03-2006 00:00:00 9.22222 C 5.78 g/m*3 9.22 C 0 km/h
1049 30-03-2006 00:00:00 11.31181 C 7.59 g/m*3 11.31 C 0 km/h
1050 31-03-2006 00:00:00 12.225 C 7.78 g/m*3 12.23 C 0 km/h
Sensor: Nr:Datum:Temp:Abs-Feuchte:Windchill:Wind:
Aussen-T/F 1051 01-04-2006 00:00:00 10.95 C 7.33 g/m*3 10.95 C 0 km/h
1052 02-04-2006 00:00:00 10.30347 C 6.71 g/m*3 10.3 C 0 km/h
1053 03-04-2006 00:00:00 9.04444 C 5.27 g/m*3 9.04 C 0 km/h
1054 04-04-2006 00:00:00 7.89306 C 4.31 g/m*3 7.89 C 0 km/h
1055 05-04-2006 00:00:00 5.38542 C 3.69 g/m*3 5.39 C 0 km/h
1056 06-04-2006 00:00:00 5.62847 C 3.78 g/m*3 5.63 C 0 km/h
1057 07-04-2006 00:00:00 7.78112 C 3.69 g/m*3 7.78 C 0 km/h
1058 08-04-2006 00:00:00 8.88681 C 3.81 g/m*3 8.89 C 0 km/h
1059 09-04-2006 00:00:00 9.54931 C 4.04 g/m*3 9.55 C 0 km/h
1060 10-04-2006 00:00:00 7.99444 C 3.73 g/m*3 7.99 C 0 km/h
1061 11-04-2006 00:00:00 6.56528 C 3.66 g/m*3 6.57 C 0 km/h
1062 12-04-2006 00:00:00 7.39167 C 5.46 g/m*3 7.39 C 0 km/h
1063 13-04-2006 00:00:00 7.97014 C 5.79 g/m*3 7.97 C 0 km/h
1064 14-04-2006 00:00:00 11.28681 C 7.12 g/m*3 11.29 C 0 km/h
1065 15-04-2006 00:00:00 12.20486 C 7.42 g/m*3 12.2 C 0 km/h
1066 16-04-2006 00:00:00 12.37986 C 7.33 g/m*3 12.38 C 0 km/h
1067 17-04-2006 00:00:00 11.4 C 7.54 g/m*3 11.4 C 0 km/h
1068 18-04-2006 00:00:00 10.37986 C 6.23 g/m*3 10.38 C 0 km/h
1069 19-04-2006 00:00:00 11.18264 C 5.43 g/m*3 11.18 C 0 km/h
1070 20-04-2006 00:00:00 12.16528 C 5.8 g/m*3 12.17 C 0 km/h
1071 21-04-2006 00:00:00 14.47622 C 6.36 g/m*3 14.48 C 0 km/h
1072 22-04-2006 00:00:00 13.62014 C 7.04 g/m*3 13.62 C 0 km/h
1073 23-04-2006 00:00:00 10.87639 C 6.01 g/m*3 10.88 C 0 km/h
1074 24-04-2006 00:00:00 15.40833 C 6.53 g/m*3 15.41 C 0 km/h
1075 25-04-2006 00:00:00 17.60972 C 7.26 g/m*3 17.61 C 0 km/h
Sensor: Nr:Datum:Temp:Abs-Feuchte:Windchill:Wind:
Aussen-T/F 1076 26-04-2006 00:00:00 15.22778 C 10.04 g/m*3 15.23 C 0 km/h
1077 27-04-2006 00:00:00 12.53611 C 8.58 g/m*3 12.54 C 0 km/h
1078 28-04-2006 00:00:00 10.85 C 5.75 g/m*3 10.85 C 0 km/h
1079 29-04-2006 00:00:00 7.53194 C 4.57 g/m*3 7.53 C 0 km/h
1080 30-04-2006 00:00:00 6.51389 C 5.5 g/m*3 6.51 C 0 km/h
1081 01-05-2006 00:00:00 8.32727 C 6.64 g/m*3 8.33 C 0 km/h
1082 02-05-2006 00:00:00 15.08819 C 7.52 g/m*3 15.09 C 0 km/h
1083 03-05-2006 00:00:00 18.44931 C 8.16 g/m*3 18.45 C 0 km/h
1084 04-05-2006 00:00:00 19.40278 C 8.14 g/m*3 19.4 C 0 km/h
1085 05-05-2006 00:00:00 20.21389 C 7.05 g/m*3 20.21 C 0 km/h
1086 06-05-2006 00:00:00 18.90069 C 6.51 g/m*3 18.9 C 0 km/h
1087 07-05-2006 00:00:00 19.45486 C 5.48 g/m*3 19.45 C 0 km/h
1088 08-05-2006 00:00:00 18.61667 C 6.18 g/m*3 18.62 C 0 km/h
1089 09-05-2006 00:00:00 18.27431 C 6.73 g/m*3 18.27 C 0 km/h
1090 10-05-2006 00:00:00 18.83194 C 8.46 g/m*3 18.83 C 0 km/h
1091 11-05-2006 00:00:00 19.10629 C 6.83 g/m*3 19.11 C 0 km/h
1092 12-05-2006 00:00:00 18.74583 C 6.68 g/m*3 18.75 C 0 km/h
1093 13-05-2006 00:00:00 16.36944 C 9.54 g/m*3 16.37 C 0 km/h
1094 14-05-2006 00:00:00 15.00278 C 8.64 g/m*3 15 C 0 km/h
1095 15-05-2006 00:00:00 16.62986 C 8.78 g/m*3 16.63 C 0 km/h
1096 16-05-2006 00:00:00 19.50347 C 9.69 g/m*3 19.5 C 0 km/h
1097 17-05-2006 00:00:00 17.91736 C 9.73 g/m*3 17.92 C 0 km/h
1098 18-05-2006 00:00:00 18.00347 C 10.26 g/m*3 18 C 0 km/h
1099 19-05-2006 00:00:00 14.40347 C 8.4 g/m*3 14.4 C 0 km/h
1100 20-05-2006 00:00:00 12.56853 C 7.83 g/m*3 12.57 C 0 km/h
Sensor: Nr:Datum:Temp:Abs-Feuchte:Windchill:Wind:
Aussen-T/F 1101 21-05-2006 00:00:00 15.07431 C 7.61 g/m*3 15.07 C 0 km/h
1102 22-05-2006 00:00:00 15.73472 C 8.94 g/m*3 15.73 C 0 km/h
1103 23-05-2006 00:00:00 12.35556 C 6.68 g/m*3 12.36 C 0 km/h
1104 24-05-2006 00:00:00 10.91667 C 6.68 g/m*3 10.92 C 0 km/h
1105 25-05-2006 00:00:00 11.81736 C 8.3 g/m*3 11.82 C 0 km/h
1106 26-05-2006 00:00:00 13.58681 C 10.19 g/m*3 13.59 C 0 km/h
1107 27-05-2006 00:00:00 16.75972 C 10.96 g/m*3 16.76 C 0 km/h
1108 28-05-2006 00:00:00 16.35 C 8.5 g/m*3 16.35 C 0 km/h
1109 29-05-2006 00:00:00 12.47431 C 7.16 g/m*3 12.47 C 0 km/h
1110 30-05-2006 00:00:00 9.24792 C 6.53 g/m*3 9.25 C 0 km/h
1111 31-05-2006 00:00:00 9.13776 C 6.51 g/m*3 9.14 C 0 km/h
1112 01-06-2006 00:00:00 9.43819 C 6.58 g/m*3 9.44 C 0 km/h
1113 02-06-2006 00:00:00 13.68056 C 6.85 g/m*3 13.68 C 0 km/h
1114 03-06-2006 00:00:00 13.95278 C 7.53 g/m*3 13.95 C 0 km/h
1115 04-06-2006 00:00:00 14.34514 C 6.93 g/m*3 14.35 C 0 km/h
1116 05-06-2006 00:00:00 14.45764 C 6.07 g/m*3 14.46 C 0 km/h
1117 06-06-2006 00:00:00 14.33472 C 6.42 g/m*3 14.33 C 0 km/h
1118 07-06-2006 00:00:00 16.37431 C 7.03 g/m*3 16.37 C 0 km/h
1119 08-06-2006 00:00:00 19.21736 C 7.78 g/m*3 19.22 C 0 km/h
1120 09-06-2006 00:00:00 21.24306 C 8.18 g/m*3 21.24 C 0 km/h
1121 10-06-2006 00:00:00 22.62098 C 8.87 g/m*3 22.62 C 0 km/h
1122 11-06-2006 00:00:00 23.39653 C 8.75 g/m*3 23.4 C 0 km/h
1123 12-06-2006 00:00:00 23.62431 C 8.32 g/m*3 23.62 C 0 km/h
1124 13-06-2006 00:00:00 25.05625 C 9.6 g/m*3 25.06 C 0 km/h
1125 14-06-2006 00:00:00 25.71667 C 10.84 g/m*3 25.72 C 0 km/h
Sensor: Nr:Datum:Temp:Abs-Feuchte:Windchill:Wind:
Aussen-T/F 1126 15-06-2006 00:00:00 22.39653 C 13.02 g/m*3 22.4 C 0 km/h
1127 16-06-2006 00:00:00 19.19792 C 9.2 g/m*3 19.2 C 0 km/h
1128 17-06-2006 00:00:00 19.55139 C 8.62 g/m*3 19.55 C 0 km/h
1129 18-06-2006 00:00:00 22.94931 C 11.05 g/m*3 22.95 C 0 km/h
1130 19-06-2006 00:00:00 22.18819 C 13.64 g/m*3 22.19 C 0 km/h
1131 20-06-2006 00:00:00 22.95524 C 12.6 g/m*3 22.96 C 0 km/h
1132 21-06-2006 00:00:00 22.61597 C 10.2 g/m*3 22.62 C 0 km/h
1133 22-06-2006 00:00:00 18.87222 C 7.76 g/m*3 18.87 C 0 km/h
1134 23-06-2006 00:00:00 18.88681 C 7.57 g/m*3 18.89 C 0 km/h
1135 24-06-2006 00:00:00 22.39792 C 8.91 g/m*3 22.4 C 0 km/h
1136 25-06-2006 00:00:00 23.4375 C 12.58 g/m*3 23.44 C 0 km/h
1137 26-06-2006 00:00:00 21.99097 C 12.21 g/m*3 21.99 C 0 km/h
1138 27-06-2006 00:00:00 19.64028 C 11.66 g/m*3 19.64 C 0 km/h
1139 28-06-2006 00:00:00 21.16111 C 10.45 g/m*3 21.16 C 0 km/h
1140 29-06-2006 00:00:00 21.06319 C 11.36 g/m*3 21.06 C 0 km/h
1141 30-06-2006 00:00:00 23.44545 C 11.46 g/m*3 23.45 C 0 km/h
1142 01-07-2006 00:00:00 24.6875 C 10.22 g/m*3 24.69 C 0 km/h
1143 02-07-2006 00:00:00 25.27986 C 9.46 g/m*3 25.28 C 0 km/h
1144 03-07-2006 00:00:00 25.22083 C 8.68 g/m*3 25.22 C 0 km/h
1145 04-07-2006 00:00:00 26.70278 C 10.21 g/m*3 26.7 C 0 km/h
1146 05-07-2006 00:00:00 26.28681 C 12.37 g/m*3 26.29 C 0 km/h
1147 06-07-2006 00:00:00 24.85278 C 12.2 g/m*3 24.85 C 0 km/h
1148 07-07-2006 00:00:00 22.81528 C 12.32 g/m*3 22.82 C 0 km/h
1149 08-07-2006 00:00:00 22.68958 C 13.01 g/m*3 22.69 C 0 km/h
1150 09-07-2006 00:00:00 23.57778 C 11.52 g/m*3 23.58 C 0 km/h
Sensor: Nr:Datum:Temp:Abs-Feuchte:Windchill:Wind:
Aussen-T/F 1151 10-07-2006 00:00:00 25.03147 C 10.68 g/m*3 25.03 C 0 km/h
1152 11-07-2006 00:00:00 23.91181 C 13.08 g/m*3 23.91 C 0 km/h
1153 12-07-2006 00:00:00 25.55625 C 13.47 g/m*3 25.56 C 0 km/h
1154 13-07-2006 00:00:00 26.02986 C 13.12 g/m*3 26.03 C 0 km/h
1155 14-07-2006 00:00:00 24.71389 C 8.97 g/m*3 24.71 C 0 km/h
1156 15-07-2006 00:00:00 23.42431 C 7.65 g/m*3 23.42 C 0 km/h
1157 16-07-2006 00:00:00 24.37639 C 8.1 g/m*3 24.38 C 0 km/h
1158 17-07-2006 00:00:00 25.54792 C 7.82 g/m*3 25.55 C 0 km/h
1159 18-07-2006 00:00:00 26.24722 C 8.99 g/m*3 26.25 C 0 km/h
1160 19-07-2006 00:00:00 27.43125 C 9.1 g/m*3 27.43 C 0 km/h
1161 20-07-2006 00:00:00 28.02797 C 9.35 g/m*3 28.03 C 0 km/h
1162 21-07-2006 00:00:00 28.09306 C 11.49 g/m*3 28.09 C 0 km/h
1163 22-07-2006 00:00:00 24.58125 C 12.7 g/m*3 24.58 C 0 km/h
1164 23-07-2006 00:00:00 26.09375 C 13.17 g/m*3 26.09 C 0 km/h
1165 24-07-2006 00:00:00 27.19236 C 11.15 g/m*3 27.19 C 0 km/h
1166 25-07-2006 00:00:00 28.08194 C 10.78 g/m*3 28.08 C 0 km/h
1167 26-07-2006 00:00:00 28.25208 C 11.87 g/m*3 28.25 C 0 km/h
1168 27-07-2006 00:00:00 25.83403 C 14.1 g/m*3 25.83 C 0 km/h
1169 28-07-2006 00:00:00 22.68264 C 14.34 g/m*3 22.68 C 0 km/h
1170 29-07-2006 00:00:00 24.07431 C 13.52 g/m*3 24.07 C 0 km/h
1171 30-07-2006 00:00:00 24.48392 C 12.14 g/m*3 24.48 C 0 km/h
1172 31-07-2006 00:00:00 23.2375 C 10.23 g/m*3 23.24 C 0 km/h
1173 01-08-2006 00:00:00 20.05625 C 10.27 g/m*3 20.06 C 0 km/h
1174 02-08-2006 00:00:00 16.51667 C 9.93 g/m*3 16.52 C 0 km/h
1175 03-08-2006 00:00:00 15.56111 C 9.83 g/m*3 15.56 C 0 km/h
Sensor: Nr:Datum:Temp:Abs-Feuchte:Windchill:Wind:
Aussen-T/F 1176 04-08-2006 00:00:00 19.03056 C 10.44 g/m*3 19.03 C 0 km/h
1177 05-08-2006 00:00:00 20.59514 C 10.71 g/m*3 20.6 C 0 km/h
1178 06-08-2006 00:00:00 21.40694 C 10.86 g/m*3 21.41 C 0 km/h
1179 07-08-2006 00:00:00 21.93056 C 10.07 g/m*3 21.93 C 0 km/h
1180 08-08-2006 00:00:00 19.79583 C 9.89 g/m*3 19.8 C 0 km/h
1181 09-08-2006 00:00:00 19.08322 C 9.32 g/m*3 19.08 C 0 km/h
1182 10-08-2006 00:00:00 15.04792 C 9.68 g/m*3 15.05 C 0 km/h
1183 11-08-2006 00:00:00 14.23611 C 9.74 g/m*3 14.24 C 0 km/h
1184 12-08-2006 00:00:00 15.08958 C 8.69 g/m*3 15.09 C 0 km/h
1185 13-08-2006 00:00:00 14.64514 C 9.18 g/m*3 14.65 C 0 km/h
1186 14-08-2006 00:00:00 14.16319 C 9.66 g/m*3 14.16 C 0 km/h
1187 15-08-2006 00:00:00 17.63333 C 10.27 g/m*3 17.63 C 0 km/h
1188 16-08-2006 00:00:00 17.65 C 10.87 g/m*3 17.65 C 0 km/h
1189 17-08-2006 00:00:00 20.9 C 11.79 g/m*3 20.9 C 0 km/h
1190 18-08-2006 00:00:00 19.10208 C 11.74 g/m*3 19.1 C 0 km/h
1191 19-08-2006 00:00:00 18.77343 C 11.44 g/m*3 18.77 C 0 km/h
1192 20-08-2006 00:00:00 18.10972 C 10.83 g/m*3 18.11 C 0 km/h
1193 21-08-2006 00:00:00 16.97292 C 10.27 g/m*3 16.97 C 0 km/h
1194 22-08-2006 00:00:00 16.96389 C 10.28 g/m*3 16.96 C 0 km/h
1195 23-08-2006 00:00:00 17.71319 C 10.25 g/m*3 17.71 C 0 km/h
1196 24-08-2006 00:00:00 16.95139 C 10.55 g/m*3 16.95 C 0 km/h
1197 25-08-2006 00:00:00 16.57778 C 11 g/m*3 16.58 C 0 km/h
1198 26-08-2006 00:00:00 16.86528 C 10.55 g/m*3 16.87 C 0 km/h
1199 27-08-2006 00:00:00 15.83681 C 10.94 g/m*3 15.84 C 0 km/h
1200 28-08-2006 00:00:00 13.83264 C 9.97 g/m*3 13.83 C 0 km/h
Sensor: Nr:Datum:Temp:Abs-Feuchte:Windchill:Wind:
Aussen-T/F 1201 29-08-2006 00:00:00 12.56713 C 8.65 g/m*3 12.57 C 0 km/h
1202 30-08-2006 00:00:00 13.16111 C 9.07 g/m*3 13.16 C 0 km/h
1203 31-08-2006 00:00:00 15.10417 C 8.8 g/m*3 15.1 C 0 km/h
1204 01-09-2006 00:00:00 20.10139 C 9.87 g/m*3 20.1 C 0 km/h
1205 02-09-2006 00:00:00 20.75 C 11 g/m*3 20.75 C 0 km/h
1206 03-09-2006 00:00:00 21.75069 C 12.12 g/m*3 21.75 C 0 km/h
1207 04-09-2006 00:00:00 22.06389 C 10.38 g/m*3 22.06 C 0 km/h
1208 05-09-2006 00:00:00 19.96458 C 11.3 g/m*3 19.96 C 0 km/h
1209 06-09-2006 00:00:00 21.68819 C 12.31 g/m*3 21.69 C 0 km/h
1210 07-09-2006 00:00:00 19.05694 C 11.44 g/m*3 19.06 C 0 km/h
1211 08-09-2006 00:00:00 16.55874 C 8.04 g/m*3 16.56 C 0 km/h
1212 09-09-2006 00:00:00 16.56458 C 8.18 g/m*3 16.56 C 0 km/h
1213 10-09-2006 00:00:00 18.675 C 9.16 g/m*3 18.68 C 0 km/h
1214 11-09-2006 00:00:00 20.64722 C 11.18 g/m*3 20.65 C 0 km/h
1215 12-09-2006 00:00:00 22.28889 C 12.16 g/m*3 22.29 C 0 km/h
1216 13-09-2006 00:00:00 22.18819 C 11.95 g/m*3 22.19 C 0 km/h
1217 14-09-2006 00:00:00 21.21806 C 11.23 g/m*3 21.22 C 0 km/h
1218 15-09-2006 00:00:00 21.27273 C 10.28 g/m*3 21.27 C 0 km/h
1219 16-09-2006 00:00:00 21.06759 C 11.67 g/m*3 21.07 C 0 km/h
1220 17-09-2006 00:00:00 18.62986 C 12.65 g/m*3 18.63 C 0 km/h
1221 18-09-2006 00:00:00 17.15903 C 12.29 g/m*3 17.16 C 0 km/h
1222 19-09-2006 00:00:00 16.75278 C 10.65 g/m*3 16.75 C 0 km/h
1223 20-09-2006 00:00:00 16.65139 C 9.61 g/m*3 16.65 C 0 km/h
1224 21-09-2006 00:00:00 18.26806 C 10.43 g/m*3 18.27 C 0 km/h
1225 22-09-2006 00:00:00 20.87413 C 10.57 g/m*3 20.87 C 0 km/h
Sensor: Nr:Datum:Temp:Abs-Feuchte:Windchill:Wind:
Aussen-T/F 1226 23-09-2006 00:00:00 20.17361 C 11.42 g/m*3 20.17 C 0 km/h
1227 24-09-2006 00:00:00 21.00903 C 11.38 g/m*3 21.01 C 0 km/h
1228 25-09-2006 00:00:00 18.50486 C 11.18 g/m*3 18.5 C 0 km/h
1229 26-09-2006 00:00:00 17.03056 C 11.32 g/m*3 17.03 C 0 km/h
1230 27-09-2006 00:00:00 17.04444 C 10.2 g/m*3 17.04 C 0 km/h
1231 28-09-2006 00:00:00 16.01042 C 9.81 g/m*3 16.01 C 0 km/h
1232 29-09-2006 00:00:00 17.325 C 10.7 g/m*3 17.33 C 0 km/h
1233 30-09-2006 00:00:00 17.09583 C 10.68 g/m*3 17.1 C 0 km/h
1234 01-10-2006 00:00:00 17.24406 C 11.46 g/m*3 17.24 C 0 km/h
1235 02-10-2006 00:00:00 15.91042 C 9.59 g/m*3 15.91 C 0 km/h
1236 03-10-2006 00:00:00 13.2126 C 10.47 g/m*3 13.21 C 0 km/h
1237 04-10-2006 00:00:00 13.01961 C 8.62 g/m*3 13.02 C 0 km/h
1238 05-10-2006 00:00:00 12.97647 C 7.92 g/m*3 12.98 C 0 km/h
1239 06-10-2006 00:00:00 15.82353 C 9.57 g/m*3 15.82 C 0 km/h
1240 07-10-2006 00:00:00 14.25769 C 8.26 g/m*3 14.26 C 0 km/h
1241 08-10-2006 00:00:00 11.08235 C 7.49 g/m*3 11.08 C 0 km/h
1242 09-10-2006 00:00:00 12.00192 C 8.16 g/m*3 12 C 0 km/h
1243 10-10-2006 00:00:00 15.38824 C 9.83 g/m*3 15.39 C 0 km/h
1244 11-10-2006 00:00:00 14.37885 C 9.66 g/m*3 14.38 C 0 km/h
1245 12-10-2006 00:00:00 15.54118 C 10.53 g/m*3 15.54 C 0 km/h
1246 13-10-2006 00:00:00 16.11765 C 11.21 g/m*3 16.12 C 0 km/h
1247 14-10-2006 00:00:00 14.12115 C 9.1 g/m*3 14.12 C 0 km/h
1248 15-10-2006 00:00:00 12.41569 C 8.17 g/m*3 12.42 C 0 km/h
1249 16-10-2006 00:00:00 9.56154 C 7.1 g/m*3 9.56 C 0 km/h
1250 17-10-2006 00:00:00 9.22745 C 7.11 g/m*3 9.23 C 0 km/h
Sensor: Nr:Datum:Temp:Abs-Feuchte:Windchill:Wind:
Aussen-T/F 1251 18-10-2006 00:00:00 11.90769 C 8.05 g/m*3 11.91 C 0 km/h
1252 19-10-2006 00:00:00 13.41961 C 9.54 g/m*3 13.42 C 0 km/h
1253 20-10-2006 00:00:00 15.83725 C 9.91 g/m*3 15.84 C 0 km/h
1254 21-10-2006 00:00:00 14.08553 C 10.16 g/m*3 14.09 C 0 km/h
1255 22-10-2006 00:00:00 15.405 C 9.54 g/m*3 15.41 C 0 km/h
1256 23-10-2006 00:00:00 17.22 C 11.01 g/m*3 17.22 C 0 km/h
1257 24-10-2006 00:00:00 14.19167 C 9.57 g/m*3 14.19 C 0 km/h
1258 25-10-2006 00:00:00 12.59167 C 8.45 g/m*3 12.59 C 0 km/h
1259 26-10-2006 00:00:00 16.50583 C 9.43 g/m*3 16.51 C 0 km/h
1260 27-10-2006 00:00:00 17.075 C 10.44 g/m*3 17.08 C 0 km/h
1261 28-10-2006 00:00:00 15.02083 C 10.11 g/m*3 15.02 C 0 km/h
1262 29-10-2006 00:00:00 15.9896 C 8.79 g/m*3 15.99 C 0 km/h
1263 30-10-2006 00:00:00 12.1575 C 7.78 g/m*3 12.16 C 0 km/h
1264 31-10-2006 00:00:00 10.23529 C 7.15 g/m*3 10.24 C 0 km/h
1265 01-11-2006 00:00:00 7.77167 C 4.9 g/m*3 7.77 C 0 km/h
1266 02-11-2006 00:00:00 3.03 C 5.06 g/m*3 3.03 C 0 km/h
1267 03-11-2006 00:00:00 5.84333 C 5.93 g/m*3 5.84 C 0 km/h
1268 04-11-2006 00:00:00 8.15833 C 6.41 g/m*3 8.16 C 0 km/h
1269 05-11-2006 00:00:00 9.14833 C 6.17 g/m*3 9.15 C 0 km/h
1270 06-11-2006 00:00:00 9.06833 C 6.39 g/m*3 9.07 C 0 km/h
1271 07-11-2006 00:00:00 7.04083 C 6.11 g/m*3 7.04 C 0 km/h
1272 08-11-2006 00:00:00 7.96417 C 6.49 g/m*3 7.96 C 0 km/h
1273 09-11-2006 00:00:00 9.81917 C 6.62 g/m*3 9.82 C 0 km/h
1274 10-11-2006 00:00:00 5.04917 C 5.59 g/m*3 5.05 C 0 km/h
1275 11-11-2006 00:00:00 6.26667 C 6.03 g/m*3 6.27 C 0 km/h
Sensor: Nr:Datum:Temp:Abs-Feuchte:Windchill:Wind:
Aussen-T/F 1276 12-11-2006 00:00:00 7.62353 C 5.75 g/m*3 7.62 C 0 km/h
1277 13-11-2006 00:00:00 8.9025 C 7.09 g/m*3 8.9 C 0 km/h
1278 14-11-2006 00:00:00 12.84083 C 9.06 g/m*3 12.84 C 0 km/h
1279 15-11-2006 00:00:00 12.90167 C 8.11 g/m*3 12.9 C 0 km/h
1280 16-11-2006 00:00:00 13.12 C 7.88 g/m*3 13.12 C 0 km/h
1281 17-11-2006 00:00:00 12.54333 C 8.13 g/m*3 12.54 C 0 km/h
1282 18-11-2006 00:00:00 9.73917 C 6.92 g/m*3 9.74 C 0 km/h
1283 19-11-2006 00:00:00 7.74083 C 7.39 g/m*3 7.74 C 0 km/h
1284 20-11-2006 00:00:00 6.5725 C 5.52 g/m*3 6.57 C 0 km/h
1285 21-11-2006 00:00:00 8.63583 C 6.49 g/m*3 8.64 C 0 km/h
1286 22-11-2006 00:00:00 6.01833 C 5.31 g/m*3 6.02 C 0 km/h
1287 23-11-2006 00:00:00 9.36083 C 7.72 g/m*3 9.36 C 0 km/h
1288 24-11-2006 00:00:00 10.1775 C 8.17 g/m*3 10.18 C 0 km/h
1289 25-11-2006 00:00:00 14.79583 C 7.59 g/m*3 14.8 C 0 km/h
1290 26-11-2006 00:00:00 10.72917 C 7.46 g/m*3 10.73 C 0 km/h
1291 27-11-2006 00:00:00 8.08083 C 7.39 g/m*3 8.08 C 0 km/h
1292 28-11-2006 00:00:00 7.2775 C 6.92 g/m*3 7.28 C 0 km/h
1293 29-11-2006 00:00:00 7.40583 C 7.46 g/m*3 7.41 C 0 km/h
1294 30-11-2006 00:00:00 6.29167 C 6.41 g/m*3 6.29 C 0 km/h
1295 01-12-2006 00:00:00 5.935 C 6.4 g/m*3 5.94 C 0 km/h
1296 02-12-2006 00:00:00 4.37083 C 6.16 g/m*3 4.37 C 0 km/h
1297 03-12-2006 00:00:00 10.00583 C 6.96 g/m*3 10.01 C 0 km/h
1298 04-12-2006 00:00:00 10.05042 C 6.32 g/m*3 10.05 C 0 km/h
1299 05-12-2006 00:00:00 14.25917 C 7.5 g/m*3 14.26 C 0 km/h
1300 06-12-2006 00:00:00 10.42667 C 6.11 g/m*3 10.43 C 0 km/h
Sensor: Nr:Datum:Temp:Abs-Feuchte:Windchill:Wind:
Aussen-T/F 1301 07-12-2006 00:00:00 8.7025 C 5.3 g/m*3 8.7 C 0 km/h
1302 08-12-2006 00:00:00 10.0975 C 6.14 g/m*3 10.1 C 0 km/h
1303 09-12-2006 00:00:00 7.6075 C 4.91 g/m*3 7.61 C 0 km/h
1304 10-12-2006 00:00:00 5.27833 C 4.83 g/m*3 5.28 C 0 km/h
1305 11-12-2006 00:00:00 5.05583 C 4.74 g/m*3 5.06 C 0 km/h
1306 12-12-2006 00:00:00 6.37333 C 5.29 g/m*3 6.37 C 0 km/h
1307 13-12-2006 00:00:00 6.9775 C 5.44 g/m*3 6.98 C 0 km/h
1308 14-12-2006 00:00:00 7.83083 C 5.4 g/m*3 7.83 C 0 km/h
1309 15-12-2006 00:00:00 3.2075 C 4.68 g/m*3 3.21 C 0 km/h
1310 16-12-2006 00:00:00 4.14333 C 5.23 g/m*3 4.14 C 0 km/h
1311 17-12-2006 00:00:00 3.69333 C 5.01 g/m*3 3.69 C 0 km/h
1312 18-12-2006 00:00:00 3.37917 C 5.38 g/m*3 3.38 C 0 km/h
1313 19-12-2006 00:00:00 3.70083 C 4.15 g/m*3 3.7 C 0 km/h
1314 20-12-2006 00:00:00 2.3425 C 4.1 g/m*3 2.34 C 0 km/h
1315 21-12-2006 00:00:00 4.7375 C 5.27 g/m*3 4.74 C 0 km/h
1316 22-12-2006 00:00:00 1.65 C 4.63 g/m*3 1.65 C 0 km/h
1317 23-12-2006 00:00:00 3.19244 C 4.47 g/m*3 3.19 C 0 km/h
1318 24-12-2006 00:00:00 0.1725 C 4.3 g/m*3 0.17 C 0 km/h
1319 25-12-2006 00:00:00 0.51583 C 4.15 g/m*3 0.52 C 0 km/h
1320 26-12-2006 00:00:00 0.8425 C 3.93 g/m*3 0.84 C 0 km/h
1321 27-12-2006 00:00:00 -1.28667 C 3.48 g/m*3 -1.29 C 0 km/h
1322 28-12-2006 00:00:00 0.405 C 3.88 g/m*3 0.41 C 0 km/h
1323 29-12-2006 00:00:00 1.22333 C 4.59 g/m*3 1.22 C 0 km/h
1324 30-12-2006 00:00:00 3.5575 C 5.12 g/m*3 3.56 C 0 km/h
1325 31-12-2006 00:00:00 10.37107 C 5.17 g/m*3 10.37 C 0 km/h
Sensor: Nr:Datum:Temp:Abs-Feuchte:Windchill:Wind:
Aussen-T/F 1326 01-01-2007 00:00:00 7.99664 C 5.44 g/m*3 8 C 0 km/h
1327 02-01-2007 00:00:00 4.33083 C 4.79 g/m*3 4.33 C 0 km/h
1328 03-01-2007 00:00:00 5.63417 C 5.28 g/m*3 5.63 C 0 km/h
1329 04-01-2007 00:00:00 7.7525 C 5.33 g/m*3 7.75 C 0 km/h
1330 05-01-2007 00:00:00 8.08667 C 5.69 g/m*3 8.09 C 0 km/h
1331 06-01-2007 00:00:00 10.50333 C 7.18 g/m*3 10.5 C 0 km/h
1332 07-01-2007 00:00:00 8.5725 C 5.21 g/m*3 8.57 C 0 km/h
1333 08-01-2007 00:00:00 9.32667 C 5.75 g/m*3 9.33 C 0 km/h
1334 09-01-2007 00:00:00 13.04333 C 7.07 g/m*3 13.04 C 0 km/h
1335 10-01-2007 00:00:00 11.54333 C 5.64 g/m*3 11.54 C 0 km/h
1336 11-01-2007 00:00:00 7.61933 C 4.64 g/m*3 7.62 C 0 km/h
1337 12-01-2007 00:00:00 9.0325 C 4.92 g/m*3 9.03 C 0 km/h
1338 13-01-2007 00:00:00 11.8175 C 6.14 g/m*3 11.82 C 0 km/h
1339 14-01-2007 00:00:00 7.55833 C 4.65 g/m*3 7.56 C 0 km/h
1340 15-01-2007 00:00:00 0.8725 C 4.34 g/m*3 0.87 C 0 km/h
1341 16-01-2007 00:00:00 5.06583 C 4.9 g/m*3 5.07 C 0 km/h
1342 17-01-2007 00:00:00 10.18333 C 6.05 g/m*3 10.18 C 0 km/h
1343 18-01-2007 00:00:00 12.41833 C 7.26 g/m*3 12.42 C 0 km/h
1344 19-01-2007 00:00:00 10.36667 C 6.21 g/m*3 10.37 C 0 km/h
1345 20-01-2007 00:00:00 11.68917 C 6.43 g/m*3 11.69 C 0 km/h
1346 21-01-2007 00:00:00 6.88167 C 3.9 g/m*3 6.88 C 0 km/h
1347 22-01-2007 00:00:00 4.26167 C 3.78 g/m*3 4.26 C 0 km/h
1348 23-01-2007 00:00:00 -1.075 C 1.21 g/m*3 -1.08 C 0 km/h
1349 24-01-2007 00:00:00 -2.97 C 1.85 g/m*3 -2.97 C 0 km/h
1350 25-01-2007 00:00:00 -3.4825 C 2.25 g/m*3 -3.48 C 0 km/h
Sensor: Nr:Datum:Temp:Abs-Feuchte:Windchill:Wind:
Aussen-T/F 1351 26-01-2007 00:00:00 -3.23083 C 2.24 g/m*3 -3.23 C 0 km/h
1352 27-01-2007 00:00:00 2.77 C 3.92 g/m*3 2.77 C 0 km/h
1353 28-01-2007 00:00:00 4.49917 C 4.21 g/m*3 4.5 C 0 km/h
1354 29-01-2007 00:00:00 7.0175 C 5.25 g/m*3 7.02 C 0 km/h
1355 30-01-2007 00:00:00 6.84917 C 5.2 g/m*3 6.85 C 0 km/h
1356 31-01-2007 00:00:00 6.82583 C 4.18 g/m*3 6.83 C 0 km/h
1357 01-02-2007 00:00:00 7.76667 C 5.68 g/m*3 7.77 C 0 km/h
1358 02-02-2007 00:00:00 8.26583 C 6.84 g/m*3 8.27 C 0 km/h
1359 03-02-2007 00:00:00 6.285 C 4.67 g/m*3 6.29 C 0 km/h
1360 04-02-2007 00:00:00 5.90667 C 4.74 g/m*3 5.91 C 0 km/h
1361 05-02-2007 00:00:00 2.19664 C 4.27 g/m*3 2.2 C 0 km/h
1362 06-02-2007 00:00:00 3.33417 C 4.06 g/m*3 3.33 C 0 km/h
1363 07-02-2007 00:00:00 1.63417 C 4.12 g/m*3 1.63 C 0 km/h
1364 08-02-2007 00:00:00 2.62167 C 4.23 g/m*3 2.62 C 0 km/h
1365 09-02-2007 00:00:00 5.79167 C 3.84 g/m*3 5.79 C 0 km/h
1366 10-02-2007 00:00:00 5.48667 C 5.34 g/m*3 5.49 C 0 km/h
1367 11-02-2007 00:00:00 7.70667 C 5.71 g/m*3 7.71 C 0 km/h
1368 12-02-2007 00:00:00 8.33083 C 5.62 g/m*3 8.33 C 0 km/h
1369 13-02-2007 00:00:00 7.8175 C 4.79 g/m*3 7.82 C 0 km/h
1370 14-02-2007 00:00:00 5.82083 C 5.14 g/m*3 5.82 C 0 km/h
1371 15-02-2007 00:00:00 7.37917 C 4.4 g/m*3 7.38 C 0 km/h
1372 16-02-2007 00:00:00 4.61583 C 4.23 g/m*3 4.62 C 0 km/h
1373 17-02-2007 00:00:00 4.92083 C 3.9 g/m*3 4.92 C 0 km/h
1374 18-02-2007 00:00:00 3.4775 C 4.32 g/m*3 3.48 C 0 km/h
1375 19-02-2007 00:00:00 5.4675 C 4.34 g/m*3 5.47 C 0 km/h
Sensor: Nr:Datum:Temp:Abs-Feuchte:Windchill:Wind:
Aussen-T/F 1376 20-02-2007 00:00:00 7.09583 C 4.63 g/m*3 7.1 C 0 km/h
1377 21-02-2007 00:00:00 5.63083 C 4.98 g/m*3 5.63 C 0 km/h
1378 22-02-2007 00:00:00 7.10583 C 5.19 g/m*3 7.11 C 0 km/h
1379 23-02-2007 00:00:00 9.02333 C 5.53 g/m*3 9.02 C 0 km/h
1380 24-02-2007 00:00:00 8.47917 C 6.6 g/m*3 8.48 C 0 km/h
1381 25-02-2007 00:00:00 7.975 C 5.55 g/m*3 7.98 C 0 km/h
1382 26-02-2007 00:00:00 6.53667 C 5.43 g/m*3 6.54 C 0 km/h
1383 27-02-2007 00:00:00 6.38333 C 4.96 g/m*3 6.38 C 0 km/h
1384 28-02-2007 00:00:00 10.44667 C 5.35 g/m*3 10.45 C 0 km/h
1385 01-03-2007 00:00:00 9.04667 C 5.11 g/m*3 9.05 C 0 km/h
1386 02-03-2007 00:00:00 6.77917 C 3.71 g/m*3 6.78 C 0 km/h
1387 03-03-2007 00:00:00 6.66639 C 4.88 g/m*3 6.67 C 0 km/h
1388 04-03-2007 00:00:00 7.69833 C 4.83 g/m*3 7.7 C 0 km/h
1389 05-03-2007 00:00:00 10.24667 C 4.19 g/m*3 10.25 C 0 km/h
1390 06-03-2007 00:00:00 9.76083 C 4.14 g/m*3 9.76 C 0 km/h
1391 07-03-2007 00:00:00 9.16417 C 4.96 g/m*3 9.16 C 0 km/h
1392 08-03-2007 00:00:00 7.035 C 4.54 g/m*3 7.04 C 0 km/h
1393 09-03-2007 00:00:00 6.3175 C 4.84 g/m*3 6.32 C 0 km/h
1394 10-03-2007 00:00:00 7.155 C 4.37 g/m*3 7.16 C 0 km/h
1395 11-03-2007 00:00:00 7.3175 C 4.45 g/m*3 7.32 C 0 km/h
1396 12-03-2007 00:00:00 8.52833 C 4.75 g/m*3 8.53 C 0 km/h
1397 13-03-2007 00:00:00 9.0475 C 5.4 g/m*3 9.05 C 0 km/h
1398 14-03-2007 00:00:00 10.57395 C 5.78 g/m*3 10.57 C 0 km/h
1399 15-03-2007 00:00:00 8.44333 C 5.18 g/m*3 8.44 C 0 km/h
1400 16-03-2007 00:00:00 7.8175 C 5.18 g/m*3 7.82 C 0 km/h
Sensor: Nr:Datum:Temp:Abs-Feuchte:Windchill:Wind:
Aussen-T/F 1401 17-03-2007 00:00:00 8.70833 C 6.38 g/m*3 8.71 C 0 km/h
1402 18-03-2007 00:00:00 7.715 C 5.51 g/m*3 7.72 C 0 km/h
1403 19-03-2007 00:00:00 4.56333 C 4 g/m*3 4.56 C 0 km/h
1404 20-03-2007 00:00:00 4.1325 C 4.47 g/m*3 4.13 C 0 km/h
1405 21-03-2007 00:00:00 4.47417 C 4.53 g/m*3 4.47 C 0 km/h
1406 22-03-2007 00:00:00 2.25667 C 5.17 g/m*3 2.26 C 0 km/h
1407 23-03-2007 00:00:00 3.37333 C 5.31 g/m*3 3.37 C 0 km/h
1408 24-03-2007 00:00:00 5.37333 C 6.27 g/m*3 5.37 C 0 km/h
1409 25-03-2007 00:00:00 8.58101 C 5.72 g/m*3 8.58 C 0 km/h
1410 26-03-2007 00:00:00 14.9957 C 4.93 g/m*3 15 C 0 km/h
1411 27-03-2007 00:00:00 11.65 C 4.69 g/m*3 11.65 C 0 km/h
1412 28-03-2007 00:00:00 11.65313 C 4.21 g/m*3 11.65 C 0 km/h
1413 29-03-2007 00:00:00 9.75 C 5.52 g/m*3 9.75 C 0 km/h
1414 30-03-2007 00:00:00 10.73785 C 6.65 g/m*3 10.74 C 0 km/h
1415 31-03-2007 00:00:00 10.49618 C 6.1 g/m*3 10.5 C 0 km/h
1416 01-04-2007 00:00:00 13.71707 C 4.51 g/m*3 13.72 C 0 km/h
1417 02-04-2007 00:00:00 13.59583 C 4.59 g/m*3 13.6 C 0 km/h
1418 03-04-2007 00:00:00 8.94861 C 4.81 g/m*3 8.95 C 0 km/h
1419 04-04-2007 00:00:00 9.66076 C 3.85 g/m*3 9.66 C 0 km/h
1420 05-04-2007 00:00:00 8.81528 C 4.24 g/m*3 8.82 C 0 km/h
1421 06-04-2007 00:00:00 12.12431 C 6.2 g/m*3 12.12 C 0 km/h
1422 07-04-2007 00:00:00 9.61533 C 5.4 g/m*3 9.62 C 0 km/h
1423 08-04-2007 00:00:00 9.79306 C 5.37 g/m*3 9.79 C 0 km/h
1424 09-04-2007 00:00:00 11.52465 C 5.47 g/m*3 11.52 C 0 km/h
1425 10-04-2007 00:00:00 11.94688 C 6.26 g/m*3 11.95 C 0 km/h
Sensor: Nr:Datum:Temp:Abs-Feuchte:Windchill:Wind:
Aussen-T/F 1426 11-04-2007 00:00:00 10.93697 C 6.87 g/m*3 10.94 C 0 km/h
1427 12-04-2007 00:00:00 16.75 C 7.24 g/m*3 16.75 C 0 km/h
1428 13-04-2007 00:00:00 19.17708 C 8 g/m*3 19.18 C 0 km/h
1429 14-04-2007 00:00:00 21.16042 C 7.77 g/m*3 21.16 C 0 km/h
1430 15-04-2007 00:00:00 20.80833 C 7.27 g/m*3 20.81 C 0 km/h
1431 16-04-2007 00:00:00 19.4375 C 6.62 g/m*3 19.44 C 0 km/h
1432 17-04-2007 00:00:00 14.74271 C 6.57 g/m*3 14.74 C 0 km/h
1433 18-04-2007 00:00:00 11.07188 C 4.76 g/m*3 11.07 C 0 km/h
1434 19-04-2007 00:00:00 11.67188 C 5.25 g/m*3 11.67 C 0 km/h
1435 20-04-2007 00:00:00 12.26458 C 4.91 g/m*3 12.26 C 0 km/h
1436 21-04-2007 00:00:00 11.89271 C 4.5 g/m*3 11.89 C 0 km/h
1437 22-04-2007 00:00:00 15.65729 C 5.54 g/m*3 15.66 C 0 km/h
1438 23-04-2007 00:00:00 17.48021 C 6.48 g/m*3 17.48 C 0 km/h
1439 24-04-2007 00:00:00 20.85102 C 8.12 g/m*3 20.85 C 0 km/h
1440 25-04-2007 00:00:00 22.135 C 8.68 g/m*3 22.14 C 0 km/h
1441 26-04-2007 00:00:00 21.16 C 7.81 g/m*3 21.16 C 0 km/h
1442 27-04-2007 00:00:00 20.46303 C 7.42 g/m*3 20.46 C 0 km/h
1443 28-04-2007 00:00:00 20.92083 C 7.71 g/m*3 20.92 C 0 km/h
1444 29-04-2007 00:00:00 19.75583 C 7.1 g/m*3 19.76 C 0 km/h
1445 30-04-2007 00:00:00 16.78917 C 4.21 g/m*3 16.79 C 0 km/h
1446 01-05-2007 00:00:00 16.47083 C 4.66 g/m*3 16.47 C 0 km/h
1447 02-05-2007 00:00:00 16.09167 C 3.81 g/m*3 16.09 C 0 km/h
1448 03-05-2007 00:00:00 17.355 C 5.15 g/m*3 17.36 C 0 km/h
1449 04-05-2007 00:00:00 18.835 C 5.97 g/m*3 18.84 C 0 km/h
1450 05-05-2007 00:00:00 17.5975 C 6.18 g/m*3 17.6 C 0 km/h
Sensor: Nr:Datum:Temp:Abs-Feuchte:Windchill:Wind:
Aussen-T/F 1451 06-05-2007 00:00:00 16.51167 C 7.41 g/m*3 16.51 C 0 km/h
1452 07-05-2007 00:00:00 15.5625 C 8.64 g/m*3 15.56 C 0 km/h
1453 08-05-2007 00:00:00 14.1825 C 7.73 g/m*3 14.18 C 0 km/h
1454 09-05-2007 00:00:00 12.76917 C 8.87 g/m*3 12.77 C 0 km/h
1455 10-05-2007 00:00:00 17.70667 C 8.53 g/m*3 17.71 C 0 km/h
1456 11-05-2007 00:00:00 15.535 C 6.56 g/m*3 15.54 C 0 km/h
1457 12-05-2007 00:00:00 15.02689 C 7.96 g/m*3 15.03 C 0 km/h
1458 13-05-2007 00:00:00 17.04333 C 8.98 g/m*3 17.04 C 0 km/h
1459 14-05-2007 00:00:00 15.98917 C 7.81 g/m*3 15.99 C 0 km/h
1460 15-05-2007 00:00:00 13.36917 C 7.46 g/m*3 13.37 C 0 km/h
1461 16-05-2007 00:00:00 12.17917 C 7.6 g/m*3 12.18 C 0 km/h
1462 17-05-2007 00:00:00 10.8525 C 7.97 g/m*3 10.85 C 0 km/h
1463 18-05-2007 00:00:00 14.6325 C 8.23 g/m*3 14.63 C 0 km/h
1464 19-05-2007 00:00:00 18.53583 C 10.39 g/m*3 18.54 C 0 km/h
1465 20-05-2007 00:00:00 21.92667 C 9.73 g/m*3 21.93 C 0 km/h
1466 21-05-2007 00:00:00 22.61667 C 11.44 g/m*3 22.62 C 0 km/h
1467 22-05-2007 00:00:00 22.86667 C 11.78 g/m*3 22.87 C 0 km/h
1468 23-05-2007 00:00:00 20.8675 C 11.32 g/m*3 20.87 C 0 km/h
1469 24-05-2007 00:00:00 23.91417 C 11.42 g/m*3 23.91 C 0 km/h
1470 25-05-2007 00:00:00 24.57059 C 11.78 g/m*3 24.57 C 0 km/h
1471 26-05-2007 00:00:00 21.745 C 12.71 g/m*3 21.75 C 0 km/h
1472 27-05-2007 00:00:00 17.5125 C 9.85 g/m*3 17.51 C 0 km/h
1473 28-05-2007 00:00:00 12.24917 C 8.51 g/m*3 12.25 C 0 km/h
1474 29-05-2007 00:00:00 11.033 C 7.93 g/m*3 11.03 C 0 km/h
1475 30-05-2007 00:00:00 13.67465 C 6.29 g/m*3 13.67 C 0 km/h
Sensor: Nr:Datum:Temp:Abs-Feuchte:Windchill:Wind:
Aussen-T/F 1476 31-05-2007 00:00:00 16.05139 C 8.28 g/m*3 16.05 C 0 km/h
1477 01-06-2007 00:00:00 15.42361 C 9.57 g/m*3 15.42 C 0 km/h
1478 02-06-2007 00:00:00 18.53611 C 9.82 g/m*3 18.54 C 0 km/h
1479 03-06-2007 00:00:00 20.87083 C 10.1 g/m*3 20.87 C 0 km/h
1480 04-06-2007 00:00:00 22.02361 C 10.59 g/m*3 22.02 C 0 km/h
1481 05-06-2007 00:00:00 21.66389 C 10.23 g/m*3 21.66 C 0 km/h
1482 06-06-2007 00:00:00 22.53889 C 10.59 g/m*3 22.54 C 0 km/h
1483 07-06-2007 00:00:00 25.42222 C 11.36 g/m*3 25.42 C 0 km/h
1484 08-06-2007 00:00:00 26.47639 C 11.42 g/m*3 26.48 C 0 km/h
1485 09-06-2007 00:00:00 23.12917 C 12.28 g/m*3 23.13 C 0 km/h
1486 10-06-2007 00:00:00 21.28889 C 12.55 g/m*3 21.29 C 0 km/h
1487 11-06-2007 00:00:00 21.88068 C 11.9 g/m*3 21.88 C 0 km/h
1488 12-06-2007 00:00:00 20.17167 C 11.8 g/m*3 20.17 C 0 km/h
1489 13-06-2007 00:00:00 21.51176 C 10.38 g/m*3 21.51 C 0 km/h
1490 14-06-2007 00:00:00 22.15833 C 12.13 g/m*3 22.16 C 0 km/h
1491 15-06-2007 00:00:00 19.84667 C 11.6 g/m*3 19.85 C 0 km/h
1492 16-06-2007 00:00:00 18.0125 C 9.3 g/m*3 18.01 C 0 km/h
1493 17-06-2007 00:00:00 20.0125 C 9.63 g/m*3 20.01 C 0 km/h
1494 18-06-2007 00:00:00 20.92583 C 11.23 g/m*3 20.93 C 0 km/h
1495 19-06-2007 00:00:00 23.70833 C 11.18 g/m*3 23.71 C 0 km/h
1496 20-06-2007 00:00:00 23.68667 C 12.04 g/m*3 23.69 C 0 km/h
1497 21-06-2007 00:00:00 18.30167 C 12.42 g/m*3 18.3 C 0 km/h
1498 22-06-2007 00:00:00 16.06417 C 10.95 g/m*3 16.06 C 0 km/h
1499 23-06-2007 00:00:00 16.04167 C 10.56 g/m*3 16.04 C 0 km/h
1500 24-06-2007 00:00:00 19.31667 C 10.02 g/m*3 19.32 C 0 km/h
Sensor: Nr:Datum:Temp:Abs-Feuchte:Windchill:Wind:
Aussen-T/F 1501 25-06-2007 00:00:00 18.13667 C 10.86 g/m*3 18.14 C 0 km/h
1502 26-06-2007 00:00:00 13.90667 C 8.35 g/m*3 13.91 C 0 km/h
1503 27-06-2007 00:00:00 14.2225 C 6.63 g/m*3 14.22 C 0 km/h
1504 28-06-2007 00:00:00 15.82833 C 7.44 g/m*3 15.83 C 0 km/h
1505 29-06-2007 00:00:00 16.88417 C 8.32 g/m*3 16.88 C 0 km/h
1506 30-06-2007 00:00:00 18.675 C 9.69 g/m*3 18.68 C 0 km/h
1507 01-07-2007 00:00:00 20.8525 C 10.65 g/m*3 20.85 C 0 km/h
1508 02-07-2007 00:00:00 19.54917 C 10.43 g/m*3 19.55 C 0 km/h
1509 03-07-2007 00:00:00 15.42583 C 9.84 g/m*3 15.43 C 0 km/h
1510 04-07-2007 00:00:00 15.17417 C 8.93 g/m*3 15.17 C 0 km/h
1511 05-07-2007 00:00:00 15.1325 C 9.55 g/m*3 15.13 C 0 km/h
1512 06-07-2007 00:00:00 17.63613 C 8.26 g/m*3 17.64 C 0 km/h
1513 07-07-2007 00:00:00 18.55167 C 7.14 g/m*3 18.55 C 0 km/h
1514 08-07-2007 00:00:00 19.8175 C 8.32 g/m*3 19.82 C 0 km/h
1515 09-07-2007 00:00:00 17.15583 C 9.38 g/m*3 17.16 C 0 km/h
1516 10-07-2007 00:00:00 14.66583 C 9.37 g/m*3 14.67 C 0 km/h
1517 11-07-2007 00:00:00 14.37833 C 9.44 g/m*3 14.38 C 0 km/h
1518 12-07-2007 00:00:00 17.7 C 9.66 g/m*3 17.7 C 0 km/h
1519 13-07-2007 00:00:00 22.43167 C 11.88 g/m*3 22.43 C 0 km/h
1520 14-07-2007 00:00:00 25.05 C 11.69 g/m*3 25.05 C 0 km/h
1521 15-07-2007 00:00:00 27.2075 C 11.44 g/m*3 27.21 C 0 km/h
1522 16-07-2007 00:00:00 26.8025 C 8.93 g/m*3 26.8 C 0 km/h
1523 17-07-2007 00:00:00 25.11167 C 8.56 g/m*3 25.11 C 0 km/h
1524 18-07-2007 00:00:00 22.78 C 9.2 g/m*3 22.78 C 0 km/h
1525 19-07-2007 00:00:00 20.29333 C 11.02 g/m*3 20.29 C 0 km/h
Sensor: Nr:Datum:Temp:Abs-Feuchte:Windchill:Wind:
Aussen-T/F 1526 20-07-2007 00:00:00 22.04917 C 12.14 g/m*3 22.05 C 0 km/h
1527 21-07-2007 00:00:00 19.74917 C 9.69 g/m*3 19.75 C 0 km/h
1528 22-07-2007 00:00:00 19.89917 C 8.33 g/m*3 19.9 C 0 km/h
1529 23-07-2007 00:00:00 16.33333 C 10.14 g/m*3 16.33 C 0 km/h
1530 24-07-2007 00:00:00 16.72667 C 9.48 g/m*3 16.73 C 0 km/h
1531 25-07-2007 00:00:00 19.68571 C 8.82 g/m*3 19.69 C 0 km/h
1532 26-07-2007 00:00:00 21.75583 C 9.38 g/m*3 21.76 C 0 km/h
1533 27-07-2007 00:00:00 22.4675 C 8.25 g/m*3 22.47 C 0 km/h
1534 28-07-2007 00:00:00 21.095 C 10.2 g/m*3 21.1 C 0 km/h
1535 29-07-2007 00:00:00 17.3075 C 9.52 g/m*3 17.31 C 0 km/h
1536 30-07-2007 00:00:00 14.66167 C 6.94 g/m*3 14.66 C 0 km/h
1537 31-07-2007 00:00:00 15.68167 C 6.71 g/m*3 15.68 C 0 km/h
1538 01-08-2007 00:00:00 18.53833 C 7.48 g/m*3 18.54 C 0 km/h
1539 02-08-2007 00:00:00 18.3275 C 9.54 g/m*3 18.33 C 0 km/h
1540 03-08-2007 00:00:00 19.78083 C 8.92 g/m*3 19.78 C 0 km/h
1541 04-08-2007 00:00:00 21.05 C 8.85 g/m*3 21.05 C 0 km/h
1542 05-08-2007 00:00:00 23.69833 C 9.12 g/m*3 23.7 C 0 km/h
1543 06-08-2007 00:00:00 24.23417 C 9.32 g/m*3 24.23 C 0 km/h
1544 07-08-2007 00:00:00 18.36167 C 12.63 g/m*3 18.36 C 0 km/h
1545 08-08-2007 00:00:00 16.0175 C 11.01 g/m*3 16.02 C 0 km/h
1546 09-08-2007 00:00:00 14.26667 C 11.55 g/m*3 14.27 C 0 km/h
1547 10-08-2007 00:00:00 17.82833 C 13.5 g/m*3 17.83 C 0 km/h
1548 11-08-2007 00:00:00 19.64083 C 11.07 g/m*3 19.64 C 0 km/h
1549 12-08-2007 00:00:00 20.07417 C 10.09 g/m*3 20.07 C 0 km/h
1550 13-08-2007 00:00:00 20.9175 C 10.13 g/m*3 20.92 C 0 km/h
Sensor: Nr:Datum:Temp:Abs-Feuchte:Windchill:Wind:
Aussen-T/F 1551 14-08-2007 00:00:00 20.9275 C 9.64 g/m*3 20.93 C 0 km/h
1552 15-08-2007 00:00:00 23.49917 C 12.92 g/m*3 23.5 C 0 km/h
1553 16-08-2007 00:00:00 18.74667 C 10.51 g/m*3 18.75 C 0 km/h
1554 17-08-2007 00:00:00 17.27833 C 8.08 g/m*3 17.28 C 0 km/h
1555 18-08-2007 00:00:00 17.40917 C 8.03 g/m*3 17.41 C 0 km/h
1556 19-08-2007 00:00:00 17.24583 C 9.91 g/m*3 17.25 C 0 km/h
1557 20-08-2007 00:00:00 17.315 C 9.7 g/m*3 17.32 C 0 km/h
1558 21-08-2007 00:00:00 15.4225 C 10.31 g/m*3 15.42 C 0 km/h
1559 22-08-2007 00:00:00 15.95593 C 11.84 g/m*3 15.96 C 0 km/h
1560 23-08-2007 00:00:00 17.7575 C 11.98 g/m*3 17.76 C 0 km/h
1561 24-08-2007 00:00:00 19.43833 C 11.56 g/m*3 19.44 C 0 km/h
1562 25-08-2007 00:00:00 21.42 C 11.91 g/m*3 21.42 C 0 km/h
1563 26-08-2007 00:00:00 21.99167 C 12.1 g/m*3 21.99 C 0 km/h
1564 27-08-2007 00:00:00 19.53583 C 8.84 g/m*3 19.54 C 0 km/h
1565 28-08-2007 00:00:00 16.42167 C 8.1 g/m*3 16.42 C 0 km/h
1566 29-08-2007 00:00:00 17.285 C 6.71 g/m*3 17.29 C 0 km/h
1567 30-08-2007 00:00:00 15.3675 C 7.01 g/m*3 15.37 C 0 km/h
1568 31-08-2007 00:00:00 17.5825 C 9.89 g/m*3 17.58 C 0 km/h
1569 01-09-2007 00:00:00 17.1975 C 10.01 g/m*3 17.2 C 0 km/h
1570 02-09-2007 00:00:00 17.35583 C 9 g/m*3 17.36 C 0 km/h
1571 03-09-2007 00:00:00 15.74917 C 9.08 g/m*3 15.75 C 0 km/h
1572 04-09-2007 00:00:00 12.88417 C 7.04 g/m*3 12.88 C 0 km/h
1573 05-09-2007 00:00:00 12.6395 C 6.92 g/m*3 12.64 C 0 km/h
1574 06-09-2007 00:00:00 15.00917 C 9.43 g/m*3 15.01 C 0 km/h
1575 07-09-2007 00:00:00 15.9325 C 9.22 g/m*3 15.93 C 0 km/h
Sensor: Nr:Datum:Temp:Abs-Feuchte:Windchill:Wind:
Aussen-T/F 1576 08-09-2007 00:00:00 15.13667 C 10.05 g/m*3 15.14 C 0 km/h
1577 09-09-2007 00:00:00 15.125 C 9.17 g/m*3 15.13 C 0 km/h
1578 10-09-2007 00:00:00 12.4075 C 8.68 g/m*3 12.41 C 0 km/h
1579 11-09-2007 00:00:00 14.36833 C 8.61 g/m*3 14.37 C 0 km/h
1580 12-09-2007 00:00:00 14.94417 C 8.54 g/m*3 14.94 C 0 km/h
1581 13-09-2007 00:00:00 14.5175 C 8.49 g/m*3 14.52 C 0 km/h
1582 14-09-2007 00:00:00 15.68417 C 8.62 g/m*3 15.68 C 0 km/h
1583 15-09-2007 00:00:00 16.86917 C 8.24 g/m*3 16.87 C 0 km/h
1584 16-09-2007 00:00:00 15.27 C 8.22 g/m*3 15.27 C 0 km/h
1585 17-09-2007 00:00:00 16.68833 C 10.1 g/m*3 16.69 C 0 km/h
1586 18-09-2007 00:00:00 11.46833 C 8.27 g/m*3 11.47 C 0 km/h
1587 19-09-2007 00:00:00 10.3275 C 6.41 g/m*3 10.33 C 0 km/h
1588 20-09-2007 00:00:00 13.68083 C 7.03 g/m*3 13.68 C 0 km/h
1589 21-09-2007 00:00:00 14.35833 C 7.71 g/m*3 14.36 C 0 km/h
1590 22-09-2007 00:00:00 15.97583 C 8.74 g/m*3 15.98 C 0 km/h
1591 23-09-2007 00:00:00 17.80333 C 9.5 g/m*3 17.8 C 0 km/h
1592 24-09-2007 00:00:00 16.95833 C 9.49 g/m*3 16.96 C 0 km/h
1593 25-09-2007 00:00:00 12.91917 C 7.71 g/m*3 12.92 C 0 km/h
1594 26-09-2007 00:00:00 12.2675 C 7.86 g/m*3 12.27 C 0 km/h
1595 27-09-2007 00:00:00 10.19083 C 8.85 g/m*3 10.19 C 0 km/h
1596 28-09-2007 00:00:00 12.50168 C 8.71 g/m*3 12.5 C 0 km/h
1597 29-09-2007 00:00:00 13.54444 C 8.6 g/m*3 13.54 C 0 km/h
1598 30-09-2007 00:00:00 14.59687 C 9.12 g/m*3 14.6 C 0 km/h
1599 01-10-2007 00:00:00 14.70313 C 9.71 g/m*3 14.7 C 0 km/h
1600 02-10-2007 00:00:00 17.235 C 11.49 g/m*3 17.24 C 0 km/h
Sensor: Nr:Datum:Temp:Abs-Feuchte:Windchill:Wind:
Aussen-T/F 1601 03-10-2007 00:00:00 17.39188 C 11.47 g/m*3 17.39 C 0 km/h
1602 04-10-2007 00:00:00 17.33653 C 11.53 g/m*3 17.34 C 0 km/h
1603 05-10-2007 00:00:00 15.50646 C 8.72 g/m*3 15.51 C 0 km/h
1604 06-10-2007 00:00:00 12.34042 C 7.59 g/m*3 12.34 C 0 km/h
1605 07-10-2007 00:00:00 11.60813 C 7.69 g/m*3 11.61 C 0 km/h
1606 08-10-2007 00:00:00 10.74021 C 7.53 g/m*3 10.74 C 0 km/h
1607 09-10-2007 00:00:00 12.05052 C 8.1 g/m*3 12.05 C 0 km/h
1608 10-10-2007 00:00:00 14.53875 C 8.04 g/m*3 14.54 C 0 km/h
1609 11-10-2007 00:00:00 11.52958 C 7.34 g/m*3 11.53 C 0 km/h
1610 12-10-2007 00:00:00 12.23271 C 8.24 g/m*3 12.23 C 0 km/h
1611 13-10-2007 00:00:00 13.96146 C 7.82 g/m*3 13.96 C 0 km/h
1612 14-10-2007 00:00:00 9.94958 C 6.47 g/m*3 9.95 C 0 km/h
1613 15-10-2007 00:00:00 10.725 C 7.35 g/m*3 10.73 C 0 km/h
1614 16-10-2007 00:00:00 13.70417 C 8.35 g/m*3 13.7 C 0 km/h
1615 17-10-2007 00:00:00 11.78601 C 8.39 g/m*3 11.79 C 0 km/h
1616 18-10-2007 00:00:00 9.70042 C 6.45 g/m*3 9.7 C 0 km/h
1617 19-10-2007 00:00:00 7.65667 C 6.17 g/m*3 7.66 C 0 km/h
1618 20-10-2007 00:00:00 3.38583 C 5.54 g/m*3 3.39 C 0 km/h
1619 24-10-2007 00:00:00 7.63803 C 5.69 g/m*3 7.64 C 0 km/h
1620 25-10-2007 00:00:00 8.51042 C 6.26 g/m*3 8.51 C 0 km/h
1621 26-10-2007 00:00:00 8.8712 C 6.03 g/m*3 8.87 C 0 km/h
1622 27-10-2007 00:00:00 8.5725 C 5.85 g/m*3 8.57 C 0 km/h
1623 28-10-2007 00:00:00 9.1632 C 5.9 g/m*3 9.16 C 0 km/h
1624 29-10-2007 00:00:00 8.77833 C 7.07 g/m*3 8.78 C 0 km/h
1625 30-10-2007 00:00:00 8.70333 C 7.3 g/m*3 8.7 C 0 km/h
Sensor: Nr:Datum:Temp:Abs-Feuchte:Windchill:Wind:
Aussen-T/F 1626 31-10-2007 00:00:00 6.43333 C 6.44 g/m*3 6.43 C 0 km/h
1627 01-11-2007 00:00:00 5.77833 C 6.04 g/m*3 5.78 C 0 km/h
1628 02-11-2007 00:00:00 10.20333 C 8.52 g/m*3 10.2 C 0 km/h
1629 03-11-2007 00:00:00 11.76723 C 9.64 g/m*3 11.77 C 0 km/h
1630 04-11-2007 00:00:00 10.35 C 6.84 g/m*3 10.35 C 0 km/h
1631 05-11-2007 00:00:00 8.61333 C 5.38 g/m*3 8.61 C 0 km/h
1632 06-11-2007 00:00:00 8.1225 C 5.88 g/m*3 8.12 C 0 km/h
1633 07-11-2007 00:00:00 8.495 C 6.13 g/m*3 8.49 C 0 km/h
1634 08-11-2007 00:00:00 9.85667 C 7.21 g/m*3 9.86 C 0 km/h
1635 09-11-2007 00:00:00 5.16167 C 5.11 g/m*3 5.16 C 0 km/h
1636 10-11-2007 00:00:00 6.29083 C 5.92 g/m*3 6.29 C 0 km/h
1637 11-11-2007 00:00:00 7.75917 C 6.67 g/m*3 7.76 C 0 km/h
1638 12-11-2007 00:00:00 5.1475 C 4.79 g/m*3 5.15 C 0 km/h
1639 13-11-2007 00:00:00 3.98167 C 5.14 g/m*3 3.98 C 0 km/h
1640 14-11-2007 00:00:00 2.72417 C 4.37 g/m*3 2.72 C 0 km/h
1641 15-11-2007 00:00:00 1.3425 C 3.82 g/m*3 1.34 C 0 km/h
1642 16-11-2007 00:00:00 -0.59167 C 3.84 g/m*3 -0.59 C 0 km/h
1643 17-11-2007 00:00:00 3.35714 C 4.68 g/m*3 3.36 C 0 km/h
1644 18-11-2007 00:00:00 3.3825 C 4.91 g/m*3 3.38 C 0 km/h
1645 19-11-2007 00:00:00 2.57333 C 4.34 g/m*3 2.57 C 0 km/h
1646 20-11-2007 00:00:00 5.33 C 4.59 g/m*3 5.33 C 0 km/h
1647 21-11-2007 00:00:00 6.755 C 5.66 g/m*3 6.76 C 0 km/h
1648 22-11-2007 00:00:00 7.93917 C 6.65 g/m*3 7.94 C 0 km/h
1649 23-11-2007 00:00:00 6.7275 C 6.81 g/m*3 6.73 C 0 km/h
1650 24-11-2007 00:00:00 2.76833 C 4.82 g/m*3 2.77 C 0 km/h
Sensor: Nr:Datum:Temp:Abs-Feuchte:Windchill:Wind:
Aussen-T/F 1651 25-11-2007 00:00:00 4.25167 C 5.29 g/m*3 4.25 C 0 km/h
1652 26-11-2007 00:00:00 3.9725 C 4.66 g/m*3 3.97 C 0 km/h
1653 27-11-2007 00:00:00 4.23833 C 4.68 g/m*3 4.24 C 0 km/h
1654 28-11-2007 00:00:00 0.0625 C 4.32 g/m*3 0.06 C 0 km/h
1655 29-11-2007 00:00:00 1.3325 C 4.59 g/m*3 1.33 C 0 km/h
1656 30-11-2007 00:00:00 5.76 C 5.7 g/m*3 5.76 C 0 km/h
1657 01-12-2007 00:00:00 8.51345 C 5.82 g/m*3 8.51 C 0 km/h
1658 02-12-2007 00:00:00 9.13667 C 6.27 g/m*3 9.14 C 0 km/h
1659 03-12-2007 00:00:00 7.21167 C 4.97 g/m*3 7.21 C 0 km/h
1660 04-12-2007 00:00:00 5.77583 C 5.61 g/m*3 5.78 C 0 km/h
1661 05-12-2007 00:00:00 10.11667 C 7.2 g/m*3 10.12 C 0 km/h
1662 06-12-2007 00:00:00 9.85667 C 6.67 g/m*3 9.86 C 0 km/h
1663 07-12-2007 00:00:00 10.3625 C 6.09 g/m*3 10.36 C 0 km/h
1664 08-12-2007 00:00:00 5.77917 C 4.69 g/m*3 5.78 C 0 km/h
1665 09-12-2007 00:00:00 7.00333 C 5.75 g/m*3 7 C 0 km/h
1666 10-12-2007 00:00:00 6.24167 C 6.16 g/m*3 6.24 C 0 km/h
1667 11-12-2007 00:00:00 5.6775 C 5.39 g/m*3 5.68 C 0 km/h
1668 12-12-2007 00:00:00 4.92417 C 5 g/m*3 4.92 C 0 km/h
1669 13-12-2007 00:00:00 5.2125 C 4.36 g/m*3 5.21 C 0 km/h
1670 14-12-2007 00:00:00 2.35798 C 2.96 g/m*3 2.36 C 0 km/h
1671 15-12-2007 00:00:00 0.0325 C 2.86 g/m*3 0.03 C 0 km/h
1672 16-12-2007 00:00:00 -2.92417 C 2.98 g/m*3 -2.92 C 0 km/h
1673 17-12-2007 00:00:00 -1.06 C 2.85 g/m*3 -1.06 C 0 km/h
1674 18-12-2007 00:00:00 -2.50833 C 3.14 g/m*3 -2.51 C 0 km/h
1675 19-12-2007 00:00:00 -3.8675 C 3.09 g/m*3 -3.87 C 0 km/h
Sensor: Nr:Datum:Temp:Abs-Feuchte:Windchill:Wind:
Aussen-T/F 1676 20-12-2007 00:00:00 -5.26417 C 2.9 g/m*3 -5.26 C 0 km/h
1677 21-12-2007 00:00:00 -5.9625 C 2.72 g/m*3 -5.96 C 0 km/h
1678 22-12-2007 00:00:00 -7.21833 C 2.43 g/m*3 -7.22 C 0 km/h
1679 23-12-2007 00:00:00 -5.47333 C 2.81 g/m*3 -5.47 C 0 km/h
1680 24-12-2007 00:00:00 -1.28333 C 4.01 g/m*3 -1.28 C 0 km/h
1681 25-12-2007 00:00:00 -3.13917 C 3.2 g/m*3 -3.14 C 0 km/h
1682 26-12-2007 00:00:00 -1.31513 C 3.83 g/m*3 -1.32 C 0 km/h
1683 27-12-2007 00:00:00 2.63917 C 4.81 g/m*3 2.64 C 0 km/h
1684 28-12-2007 00:00:00 4.575 C 5.27 g/m*3 4.58 C 0 km/h
1685 29-12-2007 00:00:00 3.32667 C 4.84 g/m*3 3.33 C 0 km/h
1686 30-12-2007 00:00:00 4.99167 C 5.24 g/m*3 4.99 C 0 km/h
1687 31-12-2007 00:00:00 3.21667 C 5.19 g/m*3 3.22 C 0 km/h
1688 01-01-2008 00:00:00 1.85083 C 4.52 g/m*3 1.85 C 0 km/h
1689 02-01-2008 00:00:00 -1.72 C 3.21 g/m*3 -1.72 C 0 km/h
1690 03-01-2008 00:00:00 -0.05667 C 2.87 g/m*3 -0.06 C 0 km/h
1691 04-01-2008 00:00:00 0.27167 C 3.34 g/m*3 0.27 C 0 km/h
1692 05-01-2008 00:00:00 5.0775 C 5.63 g/m*3 5.08 C 0 km/h
1693 06-01-2008 00:00:00 3.95167 C 5.23 g/m*3 3.95 C 0 km/h
1694 07-01-2008 00:00:00 5.63583 C 5.3 g/m*3 5.64 C 0 km/h
1695 08-01-2008 00:00:00 4.45546 C 5.42 g/m*3 4.46 C 0 km/h
1696 09-01-2008 00:00:00 4.03167 C 5.39 g/m*3 4.03 C 0 km/h
1697 10-01-2008 00:00:00 6.32083 C 5.48 g/m*3 6.32 C 0 km/h
1698 11-01-2008 00:00:00 9.6175 C 5.87 g/m*3 9.62 C 0 km/h
1699 12-01-2008 00:00:00 6.39 C 5.01 g/m*3 6.39 C 0 km/h
1700 13-01-2008 00:00:00 0.58167 C 4.26 g/m*3 0.58 C 0 km/h
Sensor: Nr:Datum:Temp:Abs-Feuchte:Windchill:Wind:
Aussen-T/F 1701 14-01-2008 00:00:00 3.80833 C 4.9 g/m*3 3.81 C 0 km/h
1702 15-01-2008 00:00:00 8.28833 C 5.12 g/m*3 8.29 C 0 km/h
1703 16-01-2008 00:00:00 8.28667 C 5.35 g/m*3 8.29 C 0 km/h
1704 17-01-2008 00:00:00 7.21833 C 5.52 g/m*3 7.22 C 0 km/h
1705 18-01-2008 00:00:00 9.17667 C 6.31 g/m*3 9.18 C 0 km/h
1706 19-01-2008 00:00:00 12.72353 C 7.44 g/m*3 12.72 C 0 km/h
1707 20-01-2008 00:00:00 12.27333 C 6.9 g/m*3 12.27 C 0 km/h
1708 21-01-2008 00:00:00 10.17403 C 5.8 g/m*3 10.17 C 0 km/h
1709 22-01-2008 00:00:00 4.58605 C 4.01 g/m*3 4.59 C 0 km/h
1710 23-01-2008 00:00:00 2.9125 C 3.92 g/m*3 2.91 C 0 km/h
1711 24-01-2008 00:00:00 6.355 C 4.65 g/m*3 6.36 C 0 km/h
1712 25-01-2008 00:00:00 3.72583 C 4.34 g/m*3 3.73 C 0 km/h
1713 26-01-2008 00:00:00 5.43583 C 4.26 g/m*3 5.44 C 0 km/h
1714 27-01-2008 00:00:00 5.64333 C 4.29 g/m*3 5.64 C 0 km/h
1715 28-01-2008 00:00:00 7.44 C 5.19 g/m*3 7.44 C 0 km/h
1716 29-01-2008 00:00:00 5.72167 C 4.29 g/m*3 5.72 C 0 km/h
1717 30-01-2008 00:00:00 2.05833 C 4.71 g/m*3 2.06 C 0 km/h
1718 31-01-2008 00:00:00 2.0958 C 3.82 g/m*3 2.1 C 0 km/h
1719 01-02-2008 00:00:00 4.10167 C 4.83 g/m*3 4.1 C 0 km/h
1720 02-02-2008 00:00:00 2.155 C 3.64 g/m*3 2.15 C 0 km/h
1721 03-02-2008 00:00:00 0.64917 C 3.2 g/m*3 0.65 C 0 km/h
1722 04-02-2008 00:00:00 4.5125 C 4.25 g/m*3 4.51 C 0 km/h
1723 05-02-2008 00:00:00 6.43917 C 5.11 g/m*3 6.44 C 0 km/h
1724 06-02-2008 00:00:00 8.675 C 5.72 g/m*3 8.68 C 0 km/h
1725 07-02-2008 00:00:00 3.96333 C 4.24 g/m*3 3.96 C 0 km/h
Sensor: Nr:Datum:Temp:Abs-Feuchte:Windchill:Wind:
Aussen-T/F 1726 08-02-2008 00:00:00 2.41167 C 3.87 g/m*3 2.41 C 0 km/h
1727 09-02-2008 00:00:00 2.61833 C 3.61 g/m*3 2.62 C 0 km/h
1728 10-02-2008 00:00:00 2.41333 C 3.74 g/m*3 2.41 C 0 km/h
1729 11-02-2008 00:00:00 3.10083 C 4.4 g/m*3 3.1 C 0 km/h
1730 12-02-2008 00:00:00 2.92667 C 4.49 g/m*3 2.93 C 0 km/h
1731 13-02-2008 00:00:00 2.03193 C 4.33 g/m*3 2.03 C 0 km/h
1732 14-02-2008 00:00:00 0.96667 C 4.4 g/m*3 0.97 C 0 km/h
1733 15-02-2008 00:00:00 2.4125 C 3.13 g/m*3 2.41 C 0 km/h
1734 16-02-2008 00:00:00 -0.75333 C 2.03 g/m*3 -0.75 C 0 km/h
1735 17-02-2008 00:00:00 -1.21667 C 2.05 g/m*3 -1.22 C 0 km/h
1736 18-02-2008 00:00:00 -0.28333 C 2.13 g/m*3 -0.28 C 0 km/h
1737 19-02-2008 00:00:00 0.85417 C 2.54 g/m*3 0.85 C 0 km/h
1738 20-02-2008 00:00:00 1.65 C 4.49 g/m*3 1.65 C 0 km/h
1739 21-02-2008 00:00:00 6.5725 C 5.76 g/m*3 6.57 C 0 km/h
1740 22-02-2008 00:00:00 9.70667 C 5.88 g/m*3 9.71 C 0 km/h
1741 23-02-2008 00:00:00 9.48833 C 5.6 g/m*3 9.49 C 0 km/h
1742 24-02-2008 00:00:00 6.65583 C 5.66 g/m*3 6.66 C 0 km/h
1743 25-02-2008 00:00:00 9.93833 C 6.06 g/m*3 9.94 C 0 km/h
1744 26-02-2008 00:00:00 11.1075 C 6.49 g/m*3 11.11 C 0 km/h
1745 27-02-2008 00:00:00 7.70168 C 4.44 g/m*3 7.7 C 0 km/h
1746 28-02-2008 00:00:00 7.6125 C 4.89 g/m*3 7.61 C 0 km/h
1747 29-02-2008 00:00:00 8.7625 C 7.16 g/m*3 8.76 C 0 km/h
1748 01-03-2008 00:00:00 9.4675 C 4.85 g/m*3 9.47 C 0 km/h
1749 02-03-2008 00:00:00 11.1725 C 5.33 g/m*3 11.17 C 0 km/h
1750 03-03-2008 00:00:00 7.56583 C 4.08 g/m*3 7.57 C 0 km/h
Sensor: Nr:Datum:Temp:Abs-Feuchte:Windchill:Wind:
Aussen-T/F 1751 04-03-2008 00:00:00 2.7525 C 4.06 g/m*3 2.75 C 0 km/h
1752 05-03-2008 00:00:00 1.71 C 3.03 g/m*3 1.71 C 0 km/h
1753 06-03-2008 00:00:00 2.81917 C 2.99 g/m*3 2.82 C 0 km/h
1754 07-03-2008 00:00:00 6.93833 C 4.72 g/m*3 6.94 C 0 km/h
1755 08-03-2008 00:00:00 6.94667 C 4.5 g/m*3 6.95 C 0 km/h
1756 09-03-2008 00:00:00 8.06667 C 4.11 g/m*3 8.07 C 0 km/h
1757 10-03-2008 00:00:00 8.22941 C 4.32 g/m*3 8.23 C 0 km/h
1758 11-03-2008 00:00:00 8.355 C 5.31 g/m*3 8.36 C 0 km/h
1759 12-03-2008 00:00:00 9.11833 C 4.2 g/m*3 9.12 C 0 km/h
1760 13-03-2008 00:00:00 7.62667 C 4.06 g/m*3 7.63 C 0 km/h
1761 14-03-2008 00:00:00 9.14417 C 5.77 g/m*3 9.14 C 0 km/h
1762 15-03-2008 00:00:00 9.33 C 5.42 g/m*3 9.33 C 0 km/h
1763 16-03-2008 00:00:00 9.8675 C 6.68 g/m*3 9.87 C 0 km/h
1764 17-03-2008 00:00:00 5.94583 C 3.99 g/m*3 5.95 C 0 km/h
1765 18-03-2008 00:00:00 4.26083 C 3.07 g/m*3 4.26 C 0 km/h
1766 19-03-2008 00:00:00 3.37083 C 3.9 g/m*3 3.37 C 0 km/h
1767 20-03-2008 00:00:00 3.89083 C 4.07 g/m*3 3.89 C 0 km/h
1768 21-03-2008 00:00:00 3.9975 C 4.22 g/m*3 4 C 0 km/h
1769 22-03-2008 00:00:00 2.82917 C 4.71 g/m*3 2.83 C 0 km/h
1770 23-03-2008 00:00:00 1.56639 C 2.31 g/m*3 1.57 C 0 km/h
1771 24-03-2008 00:00:00 -0.00917 C 3.2 g/m*3 -0.01 C 0 km/h
1772 25-03-2008 00:00:00 1.51333 C 3.09 g/m*3 1.51 C 0 km/h
1773 26-03-2008 00:00:00 2.39667 C 4.29 g/m*3 2.4 C 0 km/h
1774 27-03-2008 00:00:00 5.29417 C 5.44 g/m*3 5.29 C 0 km/h
1775 28-03-2008 00:00:00 8.15333 C 4.14 g/m*3 8.15 C 0 km/h
Sensor: Nr:Datum:Temp:Abs-Feuchte:Windchill:Wind:
Aussen-T/F 1776 29-03-2008 00:00:00 9.55083 C 3.95 g/m*3 9.55 C 0 km/h
1777 30-03-2008 00:00:00 13.03217 C 4.01 g/m*3 13.03 C 0 km/h
1778 31-03-2008 00:00:00 11.98333 C 5.6 g/m*3 11.98 C 0 km/h
1779 01-04-2008 00:00:00 10.06833 C 5.37 g/m*3 10.07 C 0 km/h
1780 02-04-2008 00:00:00 9.77417 C 5.52 g/m*3 9.77 C 0 km/h
1781 03-04-2008 00:00:00 7.48 C 5.75 g/m*3 7.48 C 0 km/h
1782 04-04-2008 00:00:00 9.15583 C 5.79 g/m*3 9.16 C 0 km/h
1783 05-04-2008 00:00:00 7.49076 C 6.73 g/m*3 7.49 C 0 km/h
1784 06-04-2008 00:00:00 3.825 C 5.64 g/m*3 3.83 C 0 km/h
1785 07-04-2008 00:00:00 1.36917 C 4.88 g/m*3 1.37 C 0 km/h
1786 08-04-2008 00:00:00 3.57833 C 4.72 g/m*3 3.58 C 0 km/h
1787 09-04-2008 00:00:00 5.82833 C 5.5 g/m*3 5.83 C 0 km/h
1788 10-04-2008 00:00:00 8.76917 C 5.74 g/m*3 8.77 C 0 km/h
1789 11-04-2008 00:00:00 8.235 C 6.34 g/m*3 8.24 C 0 km/h
1790 12-04-2008 00:00:00 8.02 C 5.41 g/m*3 8.02 C 0 km/h
1791 13-04-2008 00:00:00 9.70833 C 6.56 g/m*3 9.71 C 0 km/h
1792 14-04-2008 00:00:00 7.63083 C 6.9 g/m*3 7.63 C 0 km/h
1793 15-04-2008 00:00:00 6.56083 C 5.99 g/m*3 6.56 C 0 km/h
1794 16-04-2008 00:00:00 6.30083 C 4.78 g/m*3 6.3 C 0 km/h
1795 17-04-2008 00:00:00 6.47227 C 4.04 g/m*3 6.47 C 0 km/h
1796 18-04-2008 00:00:00 9.94 C 4.58 g/m*3 9.94 C 0 km/h
1797 19-04-2008 00:00:00 8.41667 C 6.18 g/m*3 8.42 C 0 km/h
1798 20-04-2008 00:00:00 12.42417 C 7.14 g/m*3 12.42 C 0 km/h
1799 21-04-2008 00:00:00 12.98833 C 6.29 g/m*3 12.99 C 0 km/h
1800 22-04-2008 00:00:00 12.95917 C 5.98 g/m*3 12.96 C 0 km/h
Sensor: Nr:Datum:Temp:Abs-Feuchte:Windchill:Wind:
Aussen-T/F 1801 23-04-2008 00:00:00 13.95083 C 6.27 g/m*3 13.95 C 0 km/h
1802 24-04-2008 00:00:00 15.095 C 7.14 g/m*3 15.1 C 0 km/h
1803 25-04-2008 00:00:00 12.67583 C 6.12 g/m*3 12.68 C 0 km/h
1804 26-04-2008 00:00:00 14.51833 C 6.16 g/m*3 14.52 C 0 km/h
1805 27-04-2008 00:00:00 15.87667 C 5.79 g/m*3 15.88 C 0 km/h
1806 28-04-2008 00:00:00 13.4125 C 8.14 g/m*3 13.41 C 0 km/h
1807 29-04-2008 00:00:00 13.07667 C 6.39 g/m*3 13.08 C 0 km/h
1808 30-04-2008 00:00:00 13.76639 C 5.33 g/m*3 13.77 C 0 km/h
1809 01-05-2008 00:00:00 11.62583 C 5.8 g/m*3 11.63 C 0 km/h
1810 02-05-2008 00:00:00 12.97583 C 6.28 g/m*3 12.98 C 0 km/h
1811 03-05-2008 00:00:00 14.47667 C 6.5 g/m*3 14.48 C 0 km/h
1812 04-05-2008 00:00:00 17.15667 C 5.91 g/m*3 17.16 C 0 km/h
1813 05-05-2008 00:00:00 16.51 C 5.51 g/m*3 16.51 C 0 km/h
1814 06-05-2008 00:00:00 18.36833 C 7.67 g/m*3 18.37 C 0 km/h
1815 07-05-2008 00:00:00 19.48083 C 7 g/m*3 19.48 C 0 km/h
1816 08-05-2008 00:00:00 19.40583 C 6.98 g/m*3 19.41 C 0 km/h
1817 09-05-2008 00:00:00 20.20083 C 7.05 g/m*3 20.2 C 0 km/h
1818 10-05-2008 00:00:00 21.22917 C 7.16 g/m*3 21.23 C 0 km/h
1819 11-05-2008 00:00:00 21.15714 C 6.43 g/m*3 21.16 C 0 km/h
1820 12-05-2008 00:00:00 21.02017 C 6.74 g/m*3 21.02 C 0 km/h
1821 13-05-2008 00:00:00 21.3175 C 7.09 g/m*3 21.32 C 0 km/h
1822 14-05-2008 00:00:00 21.27167 C 7.79 g/m*3 21.27 C 0 km/h
1823 15-05-2008 00:00:00 18.93333 C 8.92 g/m*3 18.93 C 0 km/h
1824 16-05-2008 00:00:00 18.3725 C 9.69 g/m*3 18.37 C 0 km/h
1825 17-05-2008 00:00:00 17.11167 C 10.03 g/m*3 17.11 C 0 km/h
Sensor: Nr:Datum:Temp:Abs-Feuchte:Windchill:Wind:
Aussen-T/F 1826 18-05-2008 00:00:00 14.09583 C 8.38 g/m*3 14.1 C 0 km/h
1827 19-05-2008 00:00:00 14.61833 C 5.61 g/m*3 14.62 C 0 km/h
1828 20-05-2008 00:00:00 15.59417 C 4.92 g/m*3 15.59 C 0 km/h
1829 21-05-2008 00:00:00 16.93833 C 4.74 g/m*3 16.94 C 0 km/h
1830 22-05-2008 00:00:00 18.32417 C 5.49 g/m*3 18.32 C 0 km/h
1831 23-05-2008 00:00:00 19.045 C 6.46 g/m*3 19.05 C 0 km/h
1832 24-05-2008 00:00:00 18.23 C 7.82 g/m*3 18.23 C 0 km/h
1833 25-05-2008 00:00:00 21.65462 C 9.39 g/m*3 21.65 C 0 km/h
1834 26-05-2008 00:00:00 21.2775 C 11.27 g/m*3 21.28 C 0 km/h
1835 27-05-2008 00:00:00 22.17167 C 12.27 g/m*3 22.17 C 0 km/h
1836 28-05-2008 00:00:00 23.79417 C 10.23 g/m*3 23.79 C 0 km/h
1837 29-05-2008 00:00:00 23.08917 C 11.47 g/m*3 23.09 C 0 km/h
1838 30-05-2008 00:00:00 20.37 C 13.32 g/m*3 20.37 C 0 km/h
1839 31-05-2008 00:00:00 17.68917 C 12.05 g/m*3 17.69 C 0 km/h
1840 01-06-2008 00:00:00 21.38917 C 11.64 g/m*3 21.39 C 0 km/h
1841 02-06-2008 00:00:00 23.66833 C 12.72 g/m*3 23.67 C 0 km/h
1842 03-06-2008 00:00:00 21.2825 C 11.09 g/m*3 21.28 C 0 km/h
1843 04-06-2008 00:00:00 19.19833 C 11.48 g/m*3 19.2 C 0 km/h
1844 05-06-2008 00:00:00 20.67731 C 12.57 g/m*3 20.68 C 0 km/h
1845 06-06-2008 00:00:00 21.07333 C 10.91 g/m*3 21.07 C 0 km/h
1846 07-06-2008 00:00:00 19.84417 C 10.51 g/m*3 19.84 C 0 km/h
1847 08-06-2008 00:00:00 20.63167 C 10.52 g/m*3 20.63 C 0 km/h
1848 09-06-2008 00:00:00 22.875 C 10.01 g/m*3 22.88 C 0 km/h
1849 10-06-2008 00:00:00 23.51583 C 9.23 g/m*3 23.52 C 0 km/h
1850 11-06-2008 00:00:00 18.4725 C 7.23 g/m*3 18.47 C 0 km/h
Sensor: Nr:Datum:Temp:Abs-Feuchte:Windchill:Wind:
Aussen-T/F 1851 12-06-2008 00:00:00 12.7425 C 7.69 g/m*3 12.74 C 0 km/h
1852 13-06-2008 00:00:00 13.67167 C 7.09 g/m*3 13.67 C 0 km/h
1853 14-06-2008 00:00:00 13.75917 C 7.2 g/m*3 13.76 C 0 km/h
1854 15-06-2008 00:00:00 13.75333 C 8.27 g/m*3 13.75 C 0 km/h
1855 16-06-2008 00:00:00 16.2275 C 7.7 g/m*3 16.23 C 0 km/h
1856 17-06-2008 00:00:00 17.34333 C 7.29 g/m*3 17.34 C 0 km/h
1857 18-06-2008 00:00:00 20.30583 C 7.89 g/m*3 20.31 C 0 km/h
1858 19-06-2008 00:00:00 20.67417 C 8.05 g/m*3 20.67 C 0 km/h
1859 20-06-2008 00:00:00 18.32 C 8.63 g/m*3 18.32 C 0 km/h
1860 21-06-2008 00:00:00 23.24706 C 9.11 g/m*3 23.25 C 0 km/h
1861 22-06-2008 00:00:00 24.30833 C 11.76 g/m*3 24.31 C 0 km/h
1862 23-06-2008 00:00:00 22.40417 C 8.41 g/m*3 22.4 C 0 km/h
1863 24-06-2008 00:00:00 23.6325 C 8.33 g/m*3 23.63 C 0 km/h
1864 25-06-2008 00:00:00 22.66833 C 12.11 g/m*3 22.67 C 0 km/h
1865 26-06-2008 00:00:00 20.39833 C 8.44 g/m*3 20.4 C 0 km/h
1866 27-06-2008 00:00:00 18.72167 C 8.67 g/m*3 18.72 C 0 km/h
1867 28-06-2008 00:00:00 21.21 C 9.93 g/m*3 21.21 C 0 km/h
1868 29-06-2008 00:00:00 22.68667 C 9.85 g/m*3 22.69 C 0 km/h
1869 30-06-2008 00:00:00 22.95083 C 8.73 g/m*3 22.95 C 0 km/h
1870 01-07-2008 00:00:00 24.35583 C 9.2 g/m*3 24.36 C 0 km/h
1871 02-07-2008 00:00:00 26.47583 C 10.39 g/m*3 26.48 C 0 km/h
1872 03-07-2008 00:00:00 20.18992 C 12.77 g/m*3 20.19 C 0 km/h
1873 04-07-2008 00:00:00 19.38083 C 9.22 g/m*3 19.38 C 0 km/h
1874 05-07-2008 00:00:00 21.0575 C 8.87 g/m*3 21.06 C 0 km/h
1875 06-07-2008 00:00:00 21.2225 C 8.99 g/m*3 21.22 C 0 km/h
Sensor: Nr:Datum:Temp:Abs-Feuchte:Windchill:Wind:
Aussen-T/F 1876 07-07-2008 00:00:00 18.24917 C 8.13 g/m*3 18.25 C 0 km/h
1877 08-07-2008 00:00:00 17.2125 C 8.69 g/m*3 17.21 C 0 km/h
1878 09-07-2008 00:00:00 17.0525 C 8.83 g/m*3 17.05 C 0 km/h
1879 10-07-2008 00:00:00 22.32833 C 10.77 g/m*3 22.33 C 0 km/h
1880 11-07-2008 00:00:00 20.48167 C 11.17 g/m*3 20.48 C 0 km/h
1881 12-07-2008 00:00:00 17.645 C 9.92 g/m*3 17.65 C 0 km/h
1882 13-07-2008 00:00:00 17.8375 C 8.02 g/m*3 17.84 C 0 km/h
1883 14-07-2008 00:00:00 18.38 C 7.76 g/m*3 18.38 C 0 km/h
1884 15-07-2008 00:00:00 19.61978 C 8.34 g/m*3 19.62 C 0 km/h
1885 16-07-2008 00:00:00 20.38298 C 10.82 g/m*3 20.38 C 0 km/h
1886 17-07-2008 00:00:00 17.22917 C 8.94 g/m*3 17.23 C 0 km/h
1887 18-07-2008 00:00:00 16.58125 C 9.74 g/m*3 16.58 C 0 km/h
1888 19-07-2008 00:00:00 19.61667 C 9.94 g/m*3 19.62 C 0 km/h
1889 20-07-2008 00:00:00 15.48542 C 9.13 g/m*3 15.49 C 0 km/h
1890 21-07-2008 00:00:00 12.62917 C 8.41 g/m*3 12.63 C 0 km/h
1891 22-07-2008 00:00:00 14.56042 C 9.4 g/m*3 14.56 C 0 km/h
1892 23-07-2008 00:00:00 18.94375 C 9.57 g/m*3 18.94 C 0 km/h
1893 24-07-2008 00:00:00 22.13958 C 9.31 g/m*3 22.14 C 0 km/h
1894 25-07-2008 00:00:00 24.55625 C 9.56 g/m*3 24.56 C 0 km/h
1895 26-07-2008 00:00:00 23.54792 C 12.42 g/m*3 23.55 C 0 km/h
1896 27-07-2008 00:00:00 23.20625 C 13.92 g/m*3 23.21 C 0 km/h
1897 28-07-2008 00:00:00 25.10833 C 12.45 g/m*3 25.11 C 0 km/h
1898 29-07-2008 00:00:00 24.49792 C 12.1 g/m*3 24.5 C 0 km/h
1899 30-07-2008 00:00:00 23.67292 C 12.74 g/m*3 23.67 C 0 km/h
1900 31-07-2008 00:00:00 24.69792 C 13.38 g/m*3 24.7 C 0 km/h
Sensor: Nr:Datum:Temp:Abs-Feuchte:Windchill:Wind:
Aussen-T/F 1901 01-08-2008 00:00:00 24.97917 C 10.83 g/m*3 24.98 C 0 km/h
1902 02-08-2008 00:00:00 21.29792 C 9.43 g/m*3 21.3 C 0 km/h
1903 03-08-2008 00:00:00 23.42561 C 10.97 g/m*3 23.43 C 0 km/h
1904 04-08-2008 00:00:00 21.85083 C 10.01 g/m*3 21.85 C 0 km/h
1905 05-08-2008 00:00:00 20.3125 C 8.72 g/m*3 20.31 C 0 km/h
1906 06-08-2008 00:00:00 24.05417 C 10.21 g/m*3 24.05 C 0 km/h
1907 07-08-2008 00:00:00 24.29583 C 11.12 g/m*3 24.3 C 0 km/h
1908 08-08-2008 00:00:00 18.50948 C 11.78 g/m*3 18.51 C 0 km/h
1909 09-08-2008 00:00:00 19.32 C 9.06 g/m*3 19.32 C 0 km/h
1910 10-08-2008 00:00:00 20.1 C 9.41 g/m*3 20.1 C 0 km/h
1911 11-08-2008 00:00:00 20.59748 C 9.44 g/m*3 20.6 C 0 km/h
1912 12-08-2008 00:00:00 18.91833 C 12.54 g/m*3 18.92 C 0 km/h
1913 13-08-2008 00:00:00 18.3525 C 8.74 g/m*3 18.35 C 0 km/h
1914 14-08-2008 00:00:00 19.14917 C 7.79 g/m*3 19.15 C 0 km/h
1915 15-08-2008 00:00:00 18.3625 C 8.19 g/m*3 18.36 C 0 km/h
1916 16-08-2008 00:00:00 18.89 C 8.44 g/m*3 18.89 C 0 km/h
1917 17-08-2008 00:00:00 19.10252 C 8.4 g/m*3 19.1 C 0 km/h
1918 18-08-2008 00:00:00 21.21 C 10.7 g/m*3 21.21 C 0 km/h
1919 19-08-2008 00:00:00 20.7925 C 9.67 g/m*3 20.79 C 0 km/h
1920 20-08-2008 00:00:00 18.82 C 9.37 g/m*3 18.82 C 0 km/h
1921 21-08-2008 00:00:00 19.6375 C 8.99 g/m*3 19.64 C 0 km/h
1922 22-08-2008 00:00:00 18.45333 C 11.1 g/m*3 18.45 C 0 km/h
1923 23-08-2008 00:00:00 14.95083 C 9.15 g/m*3 14.95 C 0 km/h
1924 24-08-2008 00:00:00 16.59333 C 8.67 g/m*3 16.59 C 0 km/h
1925 25-08-2008 00:00:00 17.43583 C 10.93 g/m*3 17.44 C 0 km/h
Sensor: Nr:Datum:Temp:Abs-Feuchte:Windchill:Wind:
Aussen-T/F 1926 26-08-2008 00:00:00 19.2725 C 10.13 g/m*3 19.27 C 0 km/h
1927 27-08-2008 00:00:00 19.89833 C 10.62 g/m*3 19.9 C 0 km/h
1928 28-08-2008 00:00:00 20.35417 C 9.37 g/m*3 20.35 C 0 km/h
1929 29-08-2008 00:00:00 20.84454 C 9.74 g/m*3 20.84 C 0 km/h
1930 30-08-2008 00:00:00 21.35167 C 10.94 g/m*3 21.35 C 0 km/h
1931 31-08-2008 00:00:00 22.25917 C 10.49 g/m*3 22.26 C 0 km/h
1932 01-09-2008 00:00:00 20.93917 C 10.36 g/m*3 20.94 C 0 km/h
1933 02-09-2008 00:00:00 19.11333 C 9.31 g/m*3 19.11 C 0 km/h
1934 03-09-2008 00:00:00 15.21083 C 10.42 g/m*3 15.21 C 0 km/h
1935 04-09-2008 00:00:00 13.7025 C 7.94 g/m*3 13.7 C 0 km/h
1936 05-09-2008 00:00:00 16.9775 C 10.5 g/m*3 16.98 C 0 km/h
1937 06-09-2008 00:00:00 17.5625 C 11.38 g/m*3 17.56 C 0 km/h
1938 07-09-2008 00:00:00 16.83583 C 9.34 g/m*3 16.84 C 0 km/h
1939 08-09-2008 00:00:00 17.9741 C 8.43 g/m*3 17.97 C 0 km/h
1940 09-09-2008 00:00:00 18.12014 C 9.04 g/m*3 18.12 C 0 km/h
1941 10-09-2008 00:00:00 21.10243 C 10.72 g/m*3 21.1 C 0 km/h
1942 11-09-2008 00:00:00 19.94479 C 12.52 g/m*3 19.94 C 0 km/h
1943 12-09-2008 00:00:00 16.69236 C 12.91 g/m*3 16.69 C 0 km/h
1944 13-09-2008 00:00:00 12.63937 C 10.07 g/m*3 12.64 C 0 km/h
1945 14-09-2008 00:00:00 11.66215 C 6.19 g/m*3 11.66 C 0 km/h
1946 15-09-2008 00:00:00 10.27153 C 7.08 g/m*3 10.27 C 0 km/h
1947 16-09-2008 00:00:00 11.32014 C 7.11 g/m*3 11.32 C 0 km/h
1948 17-09-2008 00:00:00 11.34948 C 5.77 g/m*3 11.35 C 0 km/h
1949 18-09-2008 00:00:00 10.63264 C 5.3 g/m*3 10.63 C 0 km/h
1950 19-09-2008 00:00:00 10.48333 C 6.14 g/m*3 10.48 C 0 km/h
Sensor: Nr:Datum:Temp:Abs-Feuchte:Windchill:Wind:
Aussen-T/F 1951 20-09-2008 00:00:00 11.00556 C 6.26 g/m*3 11.01 C 0 km/h
1952 21-09-2008 00:00:00 11.67222 C 6.89 g/m*3 11.67 C 0 km/h
1953 22-09-2008 00:00:00 12.57108 C 7.54 g/m*3 12.57 C 0 km/h
1954 23-09-2008 00:00:00 12.21111 C 8.35 g/m*3 12.21 C 0 km/h
1955 24-09-2008 00:00:00 13.30799 C 9.32 g/m*3 13.31 C 0 km/h
1956 25-09-2008 00:00:00 12.56736 C 7.77 g/m*3 12.57 C 0 km/h
1957 26-09-2008 00:00:00 12.00521 C 7.09 g/m*3 12.01 C 0 km/h
1958 27-09-2008 00:00:00 11.93693 C 7.15 g/m*3 11.94 C 0 km/h
1959 28-09-2008 00:00:00 11.96493 C 7.21 g/m*3 11.96 C 0 km/h
1960 29-09-2008 00:00:00 11.47396 C 7.33 g/m*3 11.47 C 0 km/h
1961 30-09-2008 00:00:00 10.38611 C 7.67 g/m*3 10.39 C 0 km/h
1962 01-10-2008 00:00:00 13.07222 C 8.43 g/m*3 13.07 C 0 km/h
1963 02-10-2008 00:00:00 10.70244 C 6.41 g/m*3 10.7 C 0 km/h
1964 03-10-2008 00:00:00 8.94063 C 6.04 g/m*3 8.94 C 0 km/h
1965 04-10-2008 00:00:00 9.76632 C 5.66 g/m*3 9.77 C 0 km/h
1966 05-10-2008 00:00:00 11.69062 C 6.1 g/m*3 11.69 C 0 km/h
1967 06-10-2008 00:00:00 14.79306 C 10.16 g/m*3 14.79 C 0 km/h
1968 07-10-2008 00:00:00 15.17875 C 10.24 g/m*3 15.18 C 0 km/h
1969 08-10-2008 00:00:00 13.26389 C 10.6 g/m*3 13.26 C 0 km/h
1970 09-10-2008 00:00:00 13.20937 C 8.82 g/m*3 13.21 C 0 km/h
1971 10-10-2008 00:00:00 13.01806 C 8.66 g/m*3 13.02 C 0 km/h
1972 11-10-2008 00:00:00 13.2125 C 9 g/m*3 13.21 C 0 km/h
1973 12-10-2008 00:00:00 15.40729 C 9.68 g/m*3 15.41 C 0 km/h
1974 13-10-2008 00:00:00 14.40976 C 9.47 g/m*3 14.41 C 0 km/h
1975 14-10-2008 00:00:00 15.63438 C 9.35 g/m*3 15.63 C 0 km/h
Sensor: Nr:Datum:Temp:Abs-Feuchte:Windchill:Wind:
Aussen-T/F 1976 15-10-2008 00:00:00 13.57361 C 8.88 g/m*3 13.57 C 0 km/h
1977 16-10-2008 00:00:00 11.59444 C 8.43 g/m*3 11.59 C 0 km/h
1978 17-10-2008 00:00:00 8.00313 C 6.15 g/m*3 8 C 0 km/h
1979 18-10-2008 00:00:00 7.10488 C 5.92 g/m*3 7.1 C 0 km/h
1980 19-10-2008 00:00:00 8.10521 C 6.25 g/m*3 8.11 C 0 km/h
1981 20-10-2008 00:00:00 9.83646 C 7.21 g/m*3 9.84 C 0 km/h
1982 21-10-2008 00:00:00 13.12986 C 9.32 g/m*3 13.13 C 0 km/h
1983 22-10-2008 00:00:00 9.36528 C 7.49 g/m*3 9.37 C 0 km/h
1984 23-10-2008 00:00:00 9.2115 C 6.5 g/m*3 9.21 C 0 km/h
1985 24-10-2008 00:00:00 7.4434 C 6.07 g/m*3 7.44 C 0 km/h
1986 25-10-2008 00:00:00 10.48151 C 7.39 g/m*3 10.48 C 0 km/h
1987 26-10-2008 00:00:00 10.725 C 6.55 g/m*3 10.73 C 0 km/h
1988 27-10-2008 00:00:00 10.21724 C 7.98 g/m*3 10.22 C 0 km/h
1989 28-10-2008 00:00:00 6.92456 C 6.29 g/m*3 6.92 C 0 km/h
1990 29-10-2008 00:00:00 5.45 C 5.63 g/m*3 5.45 C 0 km/h
1991 30-10-2008 00:00:00 4.78947 C 6 g/m*3 4.79 C 0 km/h
1992 31-10-2008 00:00:00 5.97414 C 6.34 g/m*3 5.97 C 0 km/h
1993 01-11-2008 00:00:00 7.97414 C 7.15 g/m*3 7.97 C 0 km/h
1994 02-11-2008 00:00:00 9.98772 C 7.86 g/m*3 9.99 C 0 km/h
1995 03-11-2008 00:00:00 9.82241 C 7.83 g/m*3 9.82 C 0 km/h
1996 04-11-2008 00:00:00 9.00351 C 7.82 g/m*3 9 C 0 km/h
1997 05-11-2008 00:00:00 9.79828 C 7.68 g/m*3 9.8 C 0 km/h
1998 06-11-2008 00:00:00 10.54483 C 7.37 g/m*3 10.54 C 0 km/h
1999 07-11-2008 00:00:00 10.79123 C 7.22 g/m*3 10.79 C 0 km/h
2000 08-11-2008 00:00:00 8.24828 C 6.77 g/m*3 8.25 C 0 km/h
Sensor: Nr:Datum:Temp:Abs-Feuchte:Windchill:Wind:
Aussen-T/F 2001 09-11-2008 00:00:00 8.89583 C 7.31 g/m*3 8.9 C 0 km/h
2002 10-11-2008 00:00:00 13.98833 C 7.91 g/m*3 13.99 C 0 km/h
2003 11-11-2008 00:00:00 12.73917 C 6.46 g/m*3 12.74 C 0 km/h
2004 12-11-2008 00:00:00 8.5175 C 6.56 g/m*3 8.52 C 0 km/h
2005 13-11-2008 00:00:00 6.40667 C 6.06 g/m*3 6.41 C 0 km/h
2006 14-11-2008 00:00:00 5.60833 C 5.47 g/m*3 5.61 C 0 km/h
2007 15-11-2008 00:00:00 9.82083 C 7.04 g/m*3 9.82 C 0 km/h
2008 16-11-2008 00:00:00 9.9375 C 7.83 g/m*3 9.94 C 0 km/h
2009 17-11-2008 00:00:00 4.03167 C 5.46 g/m*3 4.03 C 0 km/h
2010 18-11-2008 00:00:00 4.76417 C 5.59 g/m*3 4.76 C 0 km/h
2011 19-11-2008 00:00:00 7.7775 C 6.09 g/m*3 7.78 C 0 km/h
2012 20-11-2008 00:00:00 9.54 C 6.58 g/m*3 9.54 C 0 km/h
2013 21-11-2008 00:00:00 5.21083 C 5.22 g/m*3 5.21 C 0 km/h
2014 22-11-2008 00:00:00 1.08571 C 3.81 g/m*3 1.09 C 0 km/h
2015 23-11-2008 00:00:00 0.81333 C 4.11 g/m*3 0.81 C 0 km/h
2016 24-11-2008 00:00:00 1.92667 C 4.67 g/m*3 1.93 C 0 km/h
2017 25-11-2008 00:00:00 0.79667 C 4.51 g/m*3 0.8 C 0 km/h
2018 26-11-2008 00:00:00 2.38333 C 4.91 g/m*3 2.38 C 0 km/h
2019 27-11-2008 00:00:00 3.435 C 4.58 g/m*3 3.44 C 0 km/h
2020 28-11-2008 00:00:00 0.47667 C 3.78 g/m*3 0.48 C 0 km/h
2021 29-11-2008 00:00:00 0.98 C 4.13 g/m*3 0.98 C 0 km/h
2022 30-11-2008 00:00:00 1.12 C 4.72 g/m*3 1.12 C 0 km/h
2023 01-12-2008 00:00:00 0.30417 C 4.54 g/m*3 0.3 C 0 km/h
2024 02-12-2008 00:00:00 2.80917 C 4.97 g/m*3 2.81 C 0 km/h
2025 03-12-2008 00:00:00 1.785 C 4.91 g/m*3 1.79 C 0 km/h
Sensor: Nr:Datum:Temp:Abs-Feuchte:Windchill:Wind:
Aussen-T/F 2026 04-12-2008 00:00:00 1.92353 C 5.05 g/m*3 1.92 C 0 km/h
2027 05-12-2008 00:00:00 5.36 C 6.01 g/m*3 5.36 C 0 km/h
2028 06-12-2008 00:00:00 4.73 C 5.89 g/m*3 4.73 C 0 km/h
2029 07-12-2008 00:00:00 3.85333 C 5.78 g/m*3 3.85 C 0 km/h
2030 08-12-2008 00:00:00 0.26917 C 4.58 g/m*3 0.27 C 0 km/h
2031 09-12-2008 00:00:00 0.56667 C 4.36 g/m*3 0.57 C 0 km/h
2032 10-12-2008 00:00:00 1.97667 C 5.17 g/m*3 1.98 C 0 km/h
2033 11-12-2008 00:00:00 1.4775 C 4.54 g/m*3 1.48 C 0 km/h
2034 12-12-2008 00:00:00 -0.23583 C 3.8 g/m*3 -0.24 C 0 km/h
2035 13-12-2008 00:00:00 -0.26167 C 3.56 g/m*3 -0.26 C 0 km/h
2036 14-12-2008 00:00:00 0.28083 C 4.24 g/m*3 0.28 C 0 km/h
2037 15-12-2008 00:00:00 -0.1075 C 4.53 g/m*3 -0.11 C 0 km/h
2038 16-12-2008 00:00:00 0.42521 C 4.59 g/m*3 0.43 C 0 km/h
2039 17-12-2008 00:00:00 -0.0375 C 4.31 g/m*3 -0.04 C 0 km/h
2040 18-12-2008 00:00:00 2.15083 C 5.01 g/m*3 2.15 C 0 km/h
2041 19-12-2008 00:00:00 4.22333 C 5.23 g/m*3 4.22 C 0 km/h
2042 20-12-2008 00:00:00 6.45667 C 6.48 g/m*3 6.46 C 0 km/h
2043 21-12-2008 00:00:00 7.94917 C 6.81 g/m*3 7.95 C 0 km/h
2044 22-12-2008 00:00:00 8.47167 C 6.7 g/m*3 8.47 C 0 km/h
2045 23-12-2008 00:00:00 6.21417 C 5.86 g/m*3 6.21 C 0 km/h
2046 24-12-2008 00:00:00 4.55833 C 5.62 g/m*3 4.56 C 0 km/h
2047 25-12-2008 00:00:00 4.40252 C 4.56 g/m*3 4.4 C 0 km/h
2048 26-12-2008 00:00:00 -1.1875 C 2.6 g/m*3 -1.19 C 0 km/h
2049 27-12-2008 00:00:00 -1.85667 C 2.56 g/m*3 -1.86 C 0 km/h
2050 28-12-2008 00:00:00 -3.02917 C 2.53 g/m*3 -3.03 C 0 km/h
Sensor: Nr:Datum:Temp:Abs-Feuchte:Windchill:Wind:
Aussen-T/F 2051 29-12-2008 00:00:00 -5.49833 C 2.6 g/m*3 -5.5 C 0 km/h
2052 30-12-2008 00:00:00 -6.21833 C 2.53 g/m*3 -6.22 C 0 km/h
2053 31-12-2008 00:00:00 -4.32583 C 2.92 g/m*3 -4.33 C 0 km/h
2054 01-01-2009 00:00:00 -3.46417 C 2.96 g/m*3 -3.46 C 0 km/h
2055 02-01-2009 00:00:00 -2.03917 C 3.39 g/m*3 -2.04 C 0 km/h
2056 03-01-2009 00:00:00 -3.57 C 2.96 g/m*3 -3.57 C 0 km/h
2057 04-01-2009 00:00:00 -1.06833 C 2.96 g/m*3 -1.07 C 0 km/h
2058 05-01-2009 00:00:00 -1.23866 C 3.28 g/m*3 -1.24 C 0 km/h
2059 06-01-2009 00:00:00 -6.97 C 1.26 g/m*3 -6.97 C 0 km/h
2060 07-01-2009 00:00:00 -10.99167 C 1.39 g/m*3 -10.99 C 0 km/h
2061 08-01-2009 00:00:00 -6.02083 C 2.27 g/m*3 -6.02 C 0 km/h
2062 09-01-2009 00:00:00 -11.165 C 1.54 g/m*3 -11.17 C 0 km/h
2063 10-01-2009 00:00:00 -11.3175 C 1.53 g/m*3 -11.32 C 0 km/h
2064 11-01-2009 00:00:00 -8.9975 C 1.92 g/m*3 -9 C 0 km/h
2065 12-01-2009 00:00:00 -7.30417 C 2.15 g/m*3 -7.3 C 0 km/h
2066 13-01-2009 00:00:00 -0.17833 C 3.29 g/m*3 -0.18 C 0 km/h
2067 14-01-2009 00:00:00 -0.15917 C 4.05 g/m*3 -0.16 C 0 km/h
2068 15-01-2009 00:00:00 0.77417 C 4.28 g/m*3 0.77 C 0 km/h
2069 16-01-2009 00:00:00 0.69833 C 3.9 g/m*3 0.7 C 0 km/h
2070 17-01-2009 00:00:00 2.97833 C 4.9 g/m*3 2.98 C 0 km/h
2071 18-01-2009 00:00:00 4.50924 C 5.1 g/m*3 4.51 C 0 km/h
2072 19-01-2009 00:00:00 5.4575 C 5.21 g/m*3 5.46 C 0 km/h
2073 20-01-2009 00:00:00 3.6475 C 4.19 g/m*3 3.65 C 0 km/h
2074 21-01-2009 00:00:00 0.32 C 4.11 g/m*3 0.32 C 0 km/h
2075 22-01-2009 00:00:00 2.825 C 4.02 g/m*3 2.83 C 0 km/h
Sensor: Nr:Datum:Temp:Abs-Feuchte:Windchill:Wind:
Aussen-T/F 2076 23-01-2009 00:00:00 4.345 C 5.29 g/m*3 4.35 C 0 km/h
2077 24-01-2009 00:00:00 3.13 C 4.29 g/m*3 3.13 C 0 km/h
2078 25-01-2009 00:00:00 0.15167 C 4.08 g/m*3 0.15 C 0 km/h
2079 26-01-2009 00:00:00 -2.16917 C 3.69 g/m*3 -2.17 C 0 km/h
2080 27-01-2009 00:00:00 -0.93167 C 3.93 g/m*3 -0.93 C 0 km/h
2081 28-01-2009 00:00:00 0.50833 C 4.02 g/m*3 0.51 C 0 km/h
2082 29-01-2009 00:00:00 1.15667 C 3.12 g/m*3 1.16 C 0 km/h
2083 30-01-2009 00:00:00 -1.50917 C 3.06 g/m*3 -1.51 C 0 km/h
2084 31-01-2009 00:00:00 0.06303 C 2.59 g/m*3 0.06 C 0 km/h
2085 01-02-2009 00:00:00 -0.11167 C 2.24 g/m*3 -0.11 C 0 km/h
2086 02-02-2009 00:00:00 1.085 C 2.84 g/m*3 1.09 C 0 km/h
2087 03-02-2009 00:00:00 0.63833 C 3.81 g/m*3 0.64 C 0 km/h
2088 04-02-2009 00:00:00 3.0025 C 4.61 g/m*3 3 C 0 km/h
2089 05-02-2009 00:00:00 3.2325 C 4.69 g/m*3 3.23 C 0 km/h
2090 06-02-2009 00:00:00 4.3 C 5.03 g/m*3 4.3 C 0 km/h
2091 07-02-2009 00:00:00 4.03417 C 5.27 g/m*3 4.03 C 0 km/h
2092 08-02-2009 00:00:00 2.6525 C 3.3 g/m*3 2.65 C 0 km/h
2093 09-02-2009 00:00:00 2.3775 C 3.79 g/m*3 2.38 C 0 km/h
2094 10-02-2009 00:00:00 4.155 C 5.17 g/m*3 4.16 C 0 km/h
2095 11-02-2009 00:00:00 2.90333 C 3.62 g/m*3 2.9 C 0 km/h
2096 12-02-2009 00:00:00 0.68908 C 3.9 g/m*3 0.69 C 0 km/h
2097 13-02-2009 00:00:00 0.51333 C 4.05 g/m*3 0.51 C 0 km/h
2098 14-02-2009 00:00:00 0.46083 C 3.41 g/m*3 0.46 C 0 km/h
2099 15-02-2009 00:00:00 -1.63583 C 2.82 g/m*3 -1.64 C 0 km/h
2100 16-02-2009 00:00:00 1.96417 C 4.68 g/m*3 1.96 C 0 km/h
Sensor: Nr:Datum:Temp:Abs-Feuchte:Windchill:Wind:
Aussen-T/F 2101 17-02-2009 00:00:00 3.77167 C 5.13 g/m*3 3.77 C 0 km/h
2102 18-02-2009 00:00:00 -1.62667 C 2.39 g/m*3 -1.63 C 0 km/h
2103 19-02-2009 00:00:00 1.01417 C 2.7 g/m*3 1.01 C 0 km/h
2104 20-02-2009 00:00:00 3.41917 C 5.01 g/m*3 3.42 C 0 km/h
2105 21-02-2009 00:00:00 4.72083 C 4.87 g/m*3 4.72 C 0 km/h
2106 22-02-2009 00:00:00 5.24667 C 5.76 g/m*3 5.25 C 0 km/h
2107 23-02-2009 00:00:00 5.50083 C 4.72 g/m*3 5.5 C 0 km/h
2108 24-02-2009 00:00:00 4.8325 C 4.1 g/m*3 4.83 C 0 km/h
2109 25-02-2009 00:00:00 3.34286 C 4 g/m*3 3.34 C 0 km/h
2110 26-02-2009 00:00:00 6.7377 C 4.3 g/m*3 6.74 C 0 km/h
2111 27-02-2009 00:00:00 7.10417 C 5.5 g/m*3 7.1 C 0 km/h
2112 28-02-2009 00:00:00 10.0375 C 5.89 g/m*3 10.04 C 0 km/h
2113 01-03-2009 00:00:00 9.95 C 5.76 g/m*3 9.95 C 0 km/h
2114 02-03-2009 00:00:00 7.98 C 5.85 g/m*3 7.98 C 0 km/h
2115 03-03-2009 00:00:00 5.05583 C 3.94 g/m*3 5.06 C 0 km/h
2116 04-03-2009 00:00:00 7.27917 C 3.96 g/m*3 7.28 C 0 km/h
2117 05-03-2009 00:00:00 4.42917 C 5.35 g/m*3 4.43 C 0 km/h
2118 06-03-2009 00:00:00 3.82417 C 5.35 g/m*3 3.82 C 0 km/h
2119 07-03-2009 00:00:00 5.72167 C 3.85 g/m*3 5.72 C 0 km/h
2120 08-03-2009 00:00:00 7.50833 C 5.49 g/m*3 7.51 C 0 km/h
2121 09-03-2009 00:00:00 5.1521 C 4.17 g/m*3 5.15 C 0 km/h
2122 10-03-2009 00:00:00 5.4275 C 4.82 g/m*3 5.43 C 0 km/h
2123 11-03-2009 00:00:00 5.60417 C 4.35 g/m*3 5.6 C 0 km/h
2124 12-03-2009 00:00:00 5.67083 C 5.13 g/m*3 5.67 C 0 km/h
2125 13-03-2009 00:00:00 8.68167 C 5.63 g/m*3 8.68 C 0 km/h
Sensor: Nr:Datum:Temp:Abs-Feuchte:Windchill:Wind:
Aussen-T/F 2126 14-03-2009 00:00:00 8.925 C 5.68 g/m*3 8.93 C 0 km/h
2127 15-03-2009 00:00:00 9.41667 C 4.91 g/m*3 9.42 C 0 km/h
2128 16-03-2009 00:00:00 8.23417 C 5.83 g/m*3 8.23 C 0 km/h
2129 17-03-2009 00:00:00 7.73833 C 5.15 g/m*3 7.74 C 0 km/h
2130 18-03-2009 00:00:00 5.82417 C 3.93 g/m*3 5.82 C 0 km/h
2131 19-03-2009 00:00:00 5.41917 C 3.04 g/m*3 5.42 C 0 km/h
2132 20-03-2009 00:00:00 4.59917 C 2.69 g/m*3 4.6 C 0 km/h
2133 21-03-2009 00:00:00 5.07 C 2.81 g/m*3 5.07 C 0 km/h
2134 22-03-2009 00:00:00 5.16639 C 3.79 g/m*3 5.17 C 0 km/h
2135 23-03-2009 00:00:00 7.82917 C 4.91 g/m*3 7.83 C 0 km/h
2136 24-03-2009 00:00:00 3.67333 C 4.24 g/m*3 3.67 C 0 km/h
2137 25-03-2009 00:00:00 3.18417 C 4.69 g/m*3 3.18 C 0 km/h
2138 26-03-2009 00:00:00 6.40083 C 5.48 g/m*3 6.4 C 0 km/h
2139 27-03-2009 00:00:00 7.28333 C 5.31 g/m*3 7.28 C 0 km/h
2140 28-03-2009 00:00:00 6.97583 C 5.39 g/m*3 6.98 C 0 km/h
2141 29-03-2009 00:00:00 6.18435 C 4.96 g/m*3 6.18 C 0 km/h
2142 30-03-2009 00:00:00 6.41833 C 4.78 g/m*3 6.42 C 0 km/h
2143 31-03-2009 00:00:00 8.3325 C 4.49 g/m*3 8.33 C 0 km/h
2144 01-04-2009 00:00:00 10.89833 C 4.57 g/m*3 10.9 C 0 km/h
2145 02-04-2009 00:00:00 15.335 C 5.18 g/m*3 15.34 C 0 km/h
2146 03-04-2009 00:00:00 15.87143 C 6.71 g/m*3 15.87 C 0 km/h
2147 04-04-2009 00:00:00 16.68333 C 7.32 g/m*3 16.68 C 0 km/h
2148 05-04-2009 00:00:00 14.9675 C 6.93 g/m*3 14.97 C 0 km/h
2149 06-04-2009 00:00:00 14.72833 C 6.98 g/m*3 14.73 C 0 km/h
2150 07-04-2009 00:00:00 14.57333 C 7.41 g/m*3 14.57 C 0 km/h
Sensor: Nr:Datum:Temp:Abs-Feuchte:Windchill:Wind:
Aussen-T/F 2151 08-04-2009 00:00:00 14.20167 C 6.07 g/m*3 14.2 C 0 km/h
2152 09-04-2009 00:00:00 16.28067 C 7.49 g/m*3 16.28 C 0 km/h
2153 10-04-2009 00:00:00 18.55372 C 7.45 g/m*3 18.55 C 0 km/h
2154 11-04-2009 00:00:00 17.3525 C 7.29 g/m*3 17.35 C 0 km/h
2155 12-04-2009 00:00:00 16.79 C 8.39 g/m*3 16.79 C 0 km/h
2156 13-04-2009 00:00:00 15.65167 C 9.22 g/m*3 15.65 C 0 km/h
2157 14-04-2009 00:00:00 16.16167 C 8.27 g/m*3 16.16 C 0 km/h
2158 15-04-2009 00:00:00 16.94202 C 7.01 g/m*3 16.94 C 0 km/h
2159 16-04-2009 00:00:00 14.94583 C 6.79 g/m*3 14.95 C 0 km/h
2160 17-04-2009 00:00:00 10.0825 C 8.69 g/m*3 10.08 C 0 km/h
2161 18-04-2009 00:00:00 9.84 C 8.53 g/m*3 9.84 C 0 km/h
2162 19-04-2009 00:00:00 14.95667 C 7.61 g/m*3 14.96 C 0 km/h
2163 20-04-2009 00:00:00 15.16917 C 7.23 g/m*3 15.17 C 0 km/h
2164 21-04-2009 00:00:00 15.74583 C 6.35 g/m*3 15.75 C 0 km/h
2165 22-04-2009 00:00:00 13.68833 C 5.48 g/m*3 13.69 C 0 km/h
2166 23-04-2009 00:00:00 11.645 C 5.16 g/m*3 11.65 C 0 km/h
2167 24-04-2009 00:00:00 14.11333 C 5.96 g/m*3 14.11 C 0 km/h
2168 25-04-2009 00:00:00 14.64833 C 7.16 g/m*3 14.65 C 0 km/h
2169 26-04-2009 00:00:00 18.35 C 8.19 g/m*3 18.35 C 0 km/h
2170 27-04-2009 00:00:00 14.89496 C 7.27 g/m*3 14.89 C 0 km/h
2171 28-04-2009 00:00:00 11.07833 C 8.01 g/m*3 11.08 C 0 km/h
2172 29-04-2009 00:00:00 11.9025 C 7.14 g/m*3 11.9 C 0 km/h
2173 30-04-2009 00:00:00 12.85833 C 7.53 g/m*3 12.86 C 0 km/h
2174 01-05-2009 00:00:00 16.25583 C 8.09 g/m*3 16.26 C 0 km/h
2175 02-05-2009 00:00:00 17.60167 C 7.7 g/m*3 17.6 C 0 km/h
Sensor: Nr:Datum:Temp:Abs-Feuchte:Windchill:Wind:
Aussen-T/F 2176 03-05-2009 00:00:00 14.58333 C 7.12 g/m*3 14.58 C 0 km/h
2177 04-05-2009 00:00:00 11.88333 C 4.53 g/m*3 11.88 C 0 km/h
2178 05-05-2009 00:00:00 10.50917 C 6.68 g/m*3 10.51 C 0 km/h
2179 06-05-2009 00:00:00 13.85625 C 7.25 g/m*3 13.86 C 0 km/h
2180 07-05-2009 00:00:00 16.47708 C 7.43 g/m*3 16.48 C 0 km/h
2181 08-05-2009 00:00:00 16.58021 C 8.46 g/m*3 16.58 C 0 km/h
2182 09-05-2009 00:00:00 14.3875 C 8.01 g/m*3 14.39 C 0 km/h
2183 10-05-2009 00:00:00 17.72083 C 9.72 g/m*3 17.72 C 0 km/h
2184 11-05-2009 00:00:00 13.57188 C 11.06 g/m*3 13.57 C 0 km/h
2185 12-05-2009 00:00:00 11.83333 C 9.17 g/m*3 11.83 C 0 km/h
2186 13-05-2009 00:00:00 15.51771 C 8.96 g/m*3 15.52 C 0 km/h
2187 14-05-2009 00:00:00 16.00104 C 9.44 g/m*3 16 C 0 km/h
2188 15-05-2009 00:00:00 15.12255 C 10.34 g/m*3 15.12 C 0 km/h
2189 16-05-2009 00:00:00 13.80333 C 7.38 g/m*3 13.8 C 0 km/h
2190 17-05-2009 00:00:00 17.02083 C 7.92 g/m*3 17.02 C 0 km/h
2191 18-05-2009 00:00:00 16.95083 C 6.63 g/m*3 16.95 C 0 km/h
2192 19-05-2009 00:00:00 16.49333 C 7.85 g/m*3 16.49 C 0 km/h
2193 20-05-2009 00:00:00 18.70167 C 9.55 g/m*3 18.7 C 0 km/h
2194 21-05-2009 00:00:00 19.21167 C 10.72 g/m*3 19.21 C 0 km/h
2195 22-05-2009 00:00:00 17.97917 C 7.45 g/m*3 17.98 C 0 km/h
2196 23-05-2009 00:00:00 18.72083 C 7.4 g/m*3 18.72 C 0 km/h
2197 24-05-2009 00:00:00 22.53417 C 9.1 g/m*3 22.53 C 0 km/h
2198 25-05-2009 00:00:00 23.49833 C 10.6 g/m*3 23.5 C 0 km/h
2199 26-05-2009 00:00:00 19.86583 C 9.97 g/m*3 19.87 C 0 km/h
2200 27-05-2009 00:00:00 14.4425 C 6.18 g/m*3 14.44 C 0 km/h
Sensor: Nr:Datum:Temp:Abs-Feuchte:Windchill:Wind:
Aussen-T/F 2201 28-05-2009 00:00:00 15.5325 C 8.21 g/m*3 15.53 C 0 km/h
2202 29-05-2009 00:00:00 17.81765 C 6.76 g/m*3 17.82 C 0 km/h
2203 30-05-2009 00:00:00 18.43417 C 6.45 g/m*3 18.43 C 0 km/h
2204 31-05-2009 00:00:00 20.3075 C 7.55 g/m*3 20.31 C 0 km/h
2205 01-06-2009 00:00:00 19.42541 C 9.1 g/m*3 19.43 C 0 km/h
2206 02-06-2009 00:00:00 19.91917 C 8.16 g/m*3 19.92 C 0 km/h
2207 03-06-2009 00:00:00 16.3775 C 5.31 g/m*3 16.38 C 0 km/h
2208 04-06-2009 00:00:00 13.435 C 4.59 g/m*3 13.44 C 0 km/h
2209 05-06-2009 00:00:00 13.4075 C 5 g/m*3 13.41 C 0 km/h
2210 06-06-2009 00:00:00 9.18333 C 7.41 g/m*3 9.18 C 0 km/h
2211 07-06-2009 00:00:00 13.71083 C 8.43 g/m*3 13.71 C 0 km/h
2212 08-06-2009 00:00:00 16.58667 C 7.38 g/m*3 16.59 C 0 km/h
2213 09-06-2009 00:00:00 17.9275 C 9.37 g/m*3 17.93 C 0 km/h
2214 10-06-2009 00:00:00 17.24454 C 8.99 g/m*3 17.24 C 0 km/h
2215 11-06-2009 00:00:00 14.60417 C 9.26 g/m*3 14.6 C 0 km/h
2216 12-06-2009 00:00:00 15.915 C 7.28 g/m*3 15.92 C 0 km/h
2217 13-06-2009 00:00:00 18.29417 C 7.64 g/m*3 18.29 C 0 km/h
2218 14-06-2009 00:00:00 20.3875 C 10.19 g/m*3 20.39 C 0 km/h
2219 15-06-2009 00:00:00 16.76083 C 12.71 g/m*3 16.76 C 0 km/h
2220 16-06-2009 00:00:00 16.58083 C 9.69 g/m*3 16.58 C 0 km/h
2221 17-06-2009 00:00:00 19.89 C 9.38 g/m*3 19.89 C 0 km/h
2222 18-06-2009 00:00:00 19.45417 C 10.3 g/m*3 19.45 C 0 km/h
2223 19-06-2009 00:00:00 18.45583 C 7.96 g/m*3 18.46 C 0 km/h
2224 20-06-2009 00:00:00 13.84583 C 7.89 g/m*3 13.85 C 0 km/h
2225 21-06-2009 00:00:00 13.40167 C 8.61 g/m*3 13.4 C 0 km/h
Sensor: Nr:Datum:Temp:Abs-Feuchte:Windchill:Wind:
Aussen-T/F 2226 22-06-2009 00:00:00 15.23697 C 7.62 g/m*3 15.24 C 0 km/h
2227 23-06-2009 00:00:00 18.58583 C 7.92 g/m*3 18.59 C 0 km/h
2228 24-06-2009 00:00:00 22.29167 C 7.85 g/m*3 22.29 C 0 km/h
2229 25-06-2009 00:00:00 24.10583 C 9.67 g/m*3 24.11 C 0 km/h
2230 26-06-2009 00:00:00 24.31083 C 10.7 g/m*3 24.31 C 0 km/h
2231 27-06-2009 00:00:00 22.1625 C 12.54 g/m*3 22.16 C 0 km/h
2232 28-06-2009 00:00:00 25.04417 C 11.78 g/m*3 25.04 C 0 km/h
2233 29-06-2009 00:00:00 24.71583 C 12 g/m*3 24.72 C 0 km/h
2234 30-06-2009 00:00:00 22.55083 C 13.98 g/m*3 22.55 C 0 km/h
2235 01-07-2009 00:00:00 23.6175 C 13.73 g/m*3 23.62 C 0 km/h
2236 02-07-2009 00:00:00 25.95917 C 12.87 g/m*3 25.96 C 0 km/h
2237 03-07-2009 00:00:00 23.36083 C 13.72 g/m*3 23.36 C 0 km/h
2238 04-07-2009 00:00:00 24.17479 C 11.83 g/m*3 24.17 C 0 km/h
2239 05-07-2009 00:00:00 23.89917 C 11.07 g/m*3 23.9 C 0 km/h
2240 06-07-2009 00:00:00 21.82333 C 11.98 g/m*3 21.82 C 0 km/h
2241 07-07-2009 00:00:00 18.7625 C 10.11 g/m*3 18.76 C 0 km/h
2242 08-07-2009 00:00:00 16.39 C 9.61 g/m*3 16.39 C 0 km/h
2243 09-07-2009 00:00:00 16.38583 C 8.58 g/m*3 16.39 C 0 km/h
2244 10-07-2009 00:00:00 15.17083 C 7.78 g/m*3 15.17 C 0 km/h
2245 11-07-2009 00:00:00 17.55667 C 8.2 g/m*3 17.56 C 0 km/h
2246 12-07-2009 00:00:00 19.3525 C 10.57 g/m*3 19.35 C 0 km/h
2247 13-07-2009 00:00:00 21.76917 C 12.23 g/m*3 21.77 C 0 km/h
2248 14-07-2009 00:00:00 23.4 C 13.46 g/m*3 23.4 C 0 km/h
2249 15-07-2009 00:00:00 24.0475 C 10.2 g/m*3 24.05 C 0 km/h
2250 16-07-2009 00:00:00 23.37479 C 9.98 g/m*3 23.37 C 0 km/h
Sensor: Nr:Datum:Temp:Abs-Feuchte:Windchill:Wind:
Aussen-T/F 2251 17-07-2009 00:00:00 20.90917 C 9.78 g/m*3 20.91 C 0 km/h
2252 18-07-2009 00:00:00 17.575 C 8.46 g/m*3 17.58 C 0 km/h
2253 19-07-2009 00:00:00 17.92167 C 8.71 g/m*3 17.92 C 0 km/h
2254 20-07-2009 00:00:00 19.82583 C 7.87 g/m*3 19.83 C 0 km/h
2255 21-07-2009 00:00:00 23.22833 C 11.03 g/m*3 23.23 C 0 km/h
2256 22-07-2009 00:00:00 25.10583 C 12 g/m*3 25.11 C 0 km/h
2257 23-07-2009 00:00:00 22.65417 C 12.31 g/m*3 22.65 C 0 km/h
2258 24-07-2009 00:00:00 20.33167 C 9.89 g/m*3 20.33 C 0 km/h
2259 25-07-2009 00:00:00 18.03083 C 9.21 g/m*3 18.03 C 0 km/h
2260 26-07-2009 00:00:00 19.94833 C 9.75 g/m*3 19.95 C 0 km/h
2261 27-07-2009 00:00:00 20.60667 C 10.4 g/m*3 20.61 C 0 km/h
2262 28-07-2009 00:00:00 20.41513 C 8.48 g/m*3 20.42 C 0 km/h
2263 29-07-2009 00:00:00 21.77833 C 9.2 g/m*3 21.78 C 0 km/h
2264 30-07-2009 00:00:00 21.10583 C 8.72 g/m*3 21.11 C 0 km/h
2265 31-07-2009 00:00:00 20.32583 C 7.51 g/m*3 20.33 C 0 km/h
2266 01-08-2009 00:00:00 22.455 C 8.67 g/m*3 22.46 C 0 km/h
2267 02-08-2009 00:00:00 20.47167 C 10.91 g/m*3 20.47 C 0 km/h
2268 03-08-2009 00:00:00 19.3075 C 9.46 g/m*3 19.31 C 0 km/h
2269 04-08-2009 00:00:00 20.48917 C 8.95 g/m*3 20.49 C 0 km/h
2270 05-08-2009 00:00:00 22.0275 C 8.17 g/m*3 22.03 C 0 km/h
2271 06-08-2009 00:00:00 24.19667 C 9.51 g/m*3 24.2 C 0 km/h
2272 07-08-2009 00:00:00 25.2075 C 10.12 g/m*3 25.21 C 0 km/h
2273 08-08-2009 00:00:00 21.22583 C 12.28 g/m*3 21.23 C 0 km/h
2274 09-08-2009 00:00:00 22.82101 C 12.15 g/m*3 22.82 C 0 km/h
2275 10-08-2009 00:00:00 21.7025 C 11.79 g/m*3 21.7 C 0 km/h
Sensor: Nr:Datum:Temp:Abs-Feuchte:Windchill:Wind:
Aussen-T/F 2276 11-08-2009 00:00:00 20.44 C 11.61 g/m*3 20.44 C 0 km/h
2277 12-08-2009 00:00:00 20.9725 C 11.23 g/m*3 20.97 C 0 km/h
2278 13-08-2009 00:00:00 18.55917 C 12.82 g/m*3 18.56 C 0 km/h
2279 14-08-2009 00:00:00 19.44083 C 10.85 g/m*3 19.44 C 0 km/h
2280 15-08-2009 00:00:00 21.37917 C 10.5 g/m*3 21.38 C 0 km/h
2281 16-08-2009 00:00:00 23.84583 C 11 g/m*3 23.85 C 0 km/h
2282 17-08-2009 00:00:00 23.615 C 11.27 g/m*3 23.62 C 0 km/h
2283 18-08-2009 00:00:00 22.105 C 9.45 g/m*3 22.11 C 0 km/h
2284 19-08-2009 00:00:00 23.76 C 10.14 g/m*3 23.76 C 0 km/h
2285 20-08-2009 00:00:00 26.03167 C 11.39 g/m*3 26.03 C 0 km/h
2286 21-08-2009 00:00:00 20.32185 C 10.69 g/m*3 20.32 C 0 km/h
2287 22-08-2009 00:00:00 19.745 C 9.13 g/m*3 19.75 C 0 km/h
2288 23-08-2009 00:00:00 20.0375 C 8.31 g/m*3 20.04 C 0 km/h
2289 24-08-2009 00:00:00 22.19667 C 9.27 g/m*3 22.2 C 0 km/h
2290 25-08-2009 00:00:00 23.11917 C 10.67 g/m*3 23.12 C 0 km/h
2291 26-08-2009 00:00:00 21.68417 C 9.77 g/m*3 21.68 C 0 km/h
2292 27-08-2009 00:00:00 23.10167 C 10.48 g/m*3 23.1 C 0 km/h
2293 28-08-2009 00:00:00 21.60583 C 8.45 g/m*3 21.61 C 0 km/h
2294 29-08-2009 00:00:00 16.21167 C 6.62 g/m*3 16.21 C 0 km/h
2295 30-08-2009 00:00:00 16.655 C 6.94 g/m*3 16.66 C 0 km/h
2296 31-08-2009 00:00:00 19.54667 C 7.6 g/m*3 19.55 C 0 km/h
2297 01-09-2009 00:00:00 19.93167 C 10.19 g/m*3 19.93 C 0 km/h
2298 02-09-2009 00:00:00 18.765 C 9.38 g/m*3 18.77 C 0 km/h
2299 03-09-2009 00:00:00 17.39328 C 8.67 g/m*3 17.39 C 0 km/h
2300 04-09-2009 00:00:00 14.56333 C 8.22 g/m*3 14.56 C 0 km/h
Sensor: Nr:Datum:Temp:Abs-Feuchte:Windchill:Wind:
Aussen-T/F 2301 05-09-2009 00:00:00 15.10833 C 7.6 g/m*3 15.11 C 0 km/h
2302 06-09-2009 00:00:00 14.74583 C 8.27 g/m*3 14.75 C 0 km/h
2303 07-09-2009 00:00:00 17.63417 C 8.91 g/m*3 17.63 C 0 km/h
2304 08-09-2009 00:00:00 19.88167 C 9.54 g/m*3 19.88 C 0 km/h
2305 09-09-2009 00:00:00 19.7475 C 9.47 g/m*3 19.75 C 0 km/h
2306 10-09-2009 00:00:00 18.43917 C 10.33 g/m*3 18.44 C 0 km/h
2307 11-09-2009 00:00:00 17.6725 C 7.37 g/m*3 17.67 C 0 km/h
2308 12-09-2009 00:00:00 16.99083 C 7.3 g/m*3 16.99 C 0 km/h
2309 13-09-2009 00:00:00 14.23 C 8.62 g/m*3 14.23 C 0 km/h
2310 14-09-2009 00:00:00 12.17417 C 10.1 g/m*3 12.17 C 0 km/h
2311 15-09-2009 00:00:00 13.7563 C 10.75 g/m*3 13.76 C 0 km/h
2312 16-09-2009 00:00:00 16.725 C 11.49 g/m*3 16.73 C 0 km/h
2313 17-09-2009 00:00:00 18.47583 C 9.96 g/m*3 18.48 C 0 km/h
2314 18-09-2009 00:00:00 18.26083 C 9.85 g/m*3 18.26 C 0 km/h
2315 19-09-2009 00:00:00 20.78583 C 11.08 g/m*3 20.79 C 0 km/h
2316 20-09-2009 00:00:00 19.92833 C 11.89 g/m*3 19.93 C 0 km/h
2317 21-09-2009 00:00:00 18.85833 C 10.75 g/m*3 18.86 C 0 km/h
2318 22-09-2009 00:00:00 17.215 C 9.52 g/m*3 17.22 C 0 km/h
2319 23-09-2009 00:00:00 17.4225 C 9.72 g/m*3 17.42 C 0 km/h
2320 24-09-2009 00:00:00 17.19 C 10.45 g/m*3 17.19 C 0 km/h
2321 25-09-2009 00:00:00 15.16083 C 8.71 g/m*3 15.16 C 0 km/h
2322 26-09-2009 00:00:00 14.56333 C 8.19 g/m*3 14.56 C 0 km/h
2323 27-09-2009 00:00:00 14.64 C 8.22 g/m*3 14.64 C 0 km/h
2324 28-09-2009 00:00:00 14.21583 C 8.47 g/m*3 14.22 C 0 km/h
2325 29-09-2009 00:00:00 15.88319 C 8.68 g/m*3 15.88 C 0 km/h
Sensor: Nr:Datum:Temp:Abs-Feuchte:Windchill:Wind:
Aussen-T/F 2326 30-09-2009 00:00:00 16.535 C 9.98 g/m*3 16.54 C 0 km/h
2327 01-10-2009 00:00:00 14.71583 C 8.88 g/m*3 14.72 C 0 km/h
2328 02-10-2009 00:00:00 11.32167 C 6.59 g/m*3 11.32 C 0 km/h
2329 03-10-2009 00:00:00 11.72333 C 6.76 g/m*3 11.72 C 0 km/h
2330 04-10-2009 00:00:00 13.54167 C 7.94 g/m*3 13.54 C 0 km/h
2331 05-10-2009 00:00:00 12.4075 C 9.99 g/m*3 12.41 C 0 km/h
2332 06-10-2009 00:00:00 16.13417 C 12.08 g/m*3 16.13 C 0 km/h
2333 07-10-2009 00:00:00 19.57083 C 12.9 g/m*3 19.57 C 0 km/h
2334 08-10-2009 00:00:00 16.41167 C 9.99 g/m*3 16.41 C 0 km/h
2335 09-10-2009 00:00:00 11.88417 C 7.56 g/m*3 11.88 C 0 km/h
2336 10-10-2009 00:00:00 13.34667 C 9.66 g/m*3 13.35 C 0 km/h
2337 11-10-2009 00:00:00 12.35042 C 8.83 g/m*3 12.35 C 0 km/h
2338 12-10-2009 00:00:00 10.9275 C 6.43 g/m*3 10.93 C 0 km/h
2339 13-10-2009 00:00:00 9.24333 C 6.35 g/m*3 9.24 C 0 km/h
2340 14-10-2009 00:00:00 4.27333 C 4.38 g/m*3 4.27 C 0 km/h
2341 15-10-2009 00:00:00 3.45583 C 4.18 g/m*3 3.46 C 0 km/h
2342 16-10-2009 00:00:00 6.41083 C 5.8 g/m*3 6.41 C 0 km/h
2343 17-10-2009 00:00:00 8.52083 C 5.63 g/m*3 8.52 C 0 km/h
2344 18-10-2009 00:00:00 7.3775 C 5.38 g/m*3 7.38 C 0 km/h
2345 19-10-2009 00:00:00 4.59 C 4.71 g/m*3 4.59 C 0 km/h
2346 20-10-2009 00:00:00 5.17083 C 4.82 g/m*3 5.17 C 0 km/h
2347 21-10-2009 00:00:00 8.07333 C 5.02 g/m*3 8.07 C 0 km/h
2348 22-10-2009 00:00:00 9.4 C 5.91 g/m*3 9.4 C 0 km/h
2349 23-10-2009 00:00:00 8.34 C 7.02 g/m*3 8.34 C 0 km/h
2350 24-10-2009 00:00:00 10.5084 C 7.81 g/m*3 10.51 C 0 km/h
Sensor: Nr:Datum:Temp:Abs-Feuchte:Windchill:Wind:
Aussen-T/F 2351 25-10-2009 00:00:00 12.6096 C 8.4 g/m*3 12.61 C 0 km/h
2352 26-10-2009 00:00:00 11.8875 C 7.56 g/m*3 11.89 C 0 km/h
2353 27-10-2009 00:00:00 11.82417 C 7.63 g/m*3 11.82 C 0 km/h
2354 28-10-2009 00:00:00 8.37917 C 7.06 g/m*3 8.38 C 0 km/h
2355 29-10-2009 00:00:00 8.69333 C 7.48 g/m*3 8.69 C 0 km/h
2356 30-10-2009 00:00:00 10.54083 C 7.59 g/m*3 10.54 C 0 km/h
2357 31-10-2009 00:00:00 7.03083 C 5.82 g/m*3 7.03 C 0 km/h
2358 01-11-2009 00:00:00 9.17333 C 6.74 g/m*3 9.17 C 0 km/h
2359 02-11-2009 00:00:00 10.32333 C 8.29 g/m*3 10.32 C 0 km/h
2360 03-11-2009 00:00:00 8.06167 C 6.19 g/m*3 8.06 C 0 km/h
2361 04-11-2009 00:00:00 8.75 C 7.01 g/m*3 8.75 C 0 km/h
2362 05-11-2009 00:00:00 9.29748 C 6.2 g/m*3 9.3 C 0 km/h
2363 06-11-2009 00:00:00 9.43333 C 6.28 g/m*3 9.43 C 0 km/h
2364 07-11-2009 00:00:00 8.11583 C 5.94 g/m*3 8.12 C 0 km/h
2365 08-11-2009 00:00:00 6.9 C 6.33 g/m*3 6.9 C 0 km/h
2366 09-11-2009 00:00:00 6.21167 C 6.26 g/m*3 6.21 C 0 km/h
2367 10-11-2009 00:00:00 6.03 C 6.79 g/m*3 6.03 C 0 km/h
2368 11-11-2009 00:00:00 6.2525 C 6.18 g/m*3 6.25 C 0 km/h
2369 12-11-2009 00:00:00 4.66 C 6.06 g/m*3 4.66 C 0 km/h
2370 13-11-2009 00:00:00 11.27583 C 8.27 g/m*3 11.28 C 0 km/h
2371 14-11-2009 00:00:00 11.7125 C 7.87 g/m*3 11.71 C 0 km/h
2372 15-11-2009 00:00:00 11.2125 C 6.89 g/m*3 11.21 C 0 km/h
2373 16-11-2009 00:00:00 10.92667 C 8.53 g/m*3 10.93 C 0 km/h
2374 17-11-2009 00:00:00 10.88235 C 8.48 g/m*3 10.88 C 0 km/h
2375 18-11-2009 00:00:00 10.245 C 6.24 g/m*3 10.25 C 0 km/h
Sensor: Nr:Datum:Temp:Abs-Feuchte:Windchill:Wind:
Aussen-T/F 2376 19-11-2009 00:00:00 9.77667 C 6.57 g/m*3 9.78 C 0 km/h
2377 20-11-2009 00:00:00 7.87917 C 6.83 g/m*3 7.88 C 0 km/h
2378 21-11-2009 00:00:00 11.67333 C 7.8 g/m*3 11.67 C 0 km/h
2379 22-11-2009 00:00:00 11.84167 C 6.48 g/m*3 11.84 C 0 km/h
2380 23-11-2009 00:00:00 10.33417 C 6.93 g/m*3 10.33 C 0 km/h
2381 24-11-2009 00:00:00 11.89833 C 7.31 g/m*3 11.9 C 0 km/h
2382 25-11-2009 00:00:00 12.0875 C 6.36 g/m*3 12.09 C 0 km/h
2383 26-11-2009 00:00:00 9.98917 C 5.73 g/m*3 9.99 C 0 km/h
2384 27-11-2009 00:00:00 9.0425 C 5.58 g/m*3 9.04 C 0 km/h
2385 28-11-2009 00:00:00 8.79 C 5.95 g/m*3 8.79 C 0 km/h
2386 29-11-2009 00:00:00 9.41597 C 6.1 g/m*3 9.42 C 0 km/h
2387 30-11-2009 00:00:00 6.46 C 6.32 g/m*3 6.46 C 0 km/h
2388 01-12-2009 00:00:00 5.65583 C 5.93 g/m*3 5.66 C 0 km/h
2389 02-12-2009 00:00:00 5.96 C 5.22 g/m*3 5.96 C 0 km/h
2390 03-12-2009 00:00:00 8.53667 C 6.07 g/m*3 8.54 C 0 km/h
2391 04-12-2009 00:00:00 4.73917 C 4.37 g/m*3 4.74 C 0 km/h
2392 05-12-2009 00:00:00 5.3975 C 5.13 g/m*3 5.4 C 0 km/h
2393 06-12-2009 00:00:00 9.83 C 7.53 g/m*3 9.83 C 0 km/h
2394 07-12-2009 00:00:00 5.59917 C 6.01 g/m*3 5.6 C 0 km/h
2395 08-12-2009 00:00:00 6.95833 C 6.27 g/m*3 6.96 C 0 km/h
2396 09-12-2009 00:00:00 7.2525 C 6.19 g/m*3 7.25 C 0 km/h
2397 10-12-2009 00:00:00 8.78583 C 6.99 g/m*3 8.79 C 0 km/h
2398 11-12-2009 00:00:00 6.665 C 6.16 g/m*3 6.67 C 0 km/h
2399 12-12-2009 00:00:00 3.47833 C 5.29 g/m*3 3.48 C 0 km/h
2400 13-12-2009 00:00:00 1.50924 C 3.54 g/m*3 1.51 C 0 km/h
Sensor: Nr:Datum:Temp:Abs-Feuchte:Windchill:Wind:
Aussen-T/F 2401 14-12-2009 00:00:00 -0.80667 C 2.67 g/m*3 -0.81 C 0 km/h
2402 15-12-2009 00:00:00 -0.50083 C 2.88 g/m*3 -0.5 C 0 km/h
2403 16-12-2009 00:00:00 -1.19917 C 2.79 g/m*3 -1.2 C 0 km/h
2404 17-12-2009 00:00:00 -4.445 C 2.62 g/m*3 -4.45 C 0 km/h
2405 18-12-2009 00:00:00 -5.04417 C 2.34 g/m*3 -5.04 C 0 km/h
2406 19-12-2009 00:00:00 -12.79 C 1.12 g/m*3 -12.79 C 0 km/h
2407 20-12-2009 00:00:00 -8.03917 C 1.87 g/m*3 -8.04 C 0 km/h
2408 21-12-2009 00:00:00 -2.18417 C 3.25 g/m*3 -2.18 C 0 km/h
2409 22-12-2009 00:00:00 2.7175 C 5.09 g/m*3 2.72 C 0 km/h
2410 23-12-2009 00:00:00 0.49333 C 4.68 g/m*3 0.49 C 0 km/h
2411 24-12-2009 00:00:00 2.31333 C 5.15 g/m*3 2.31 C 0 km/h
2412 25-12-2009 00:00:00 4.38824 C 5.08 g/m*3 4.39 C 0 km/h
2413 26-12-2009 00:00:00 2.04583 C 4.45 g/m*3 2.05 C 0 km/h
2414 27-12-2009 00:00:00 0.5475 C 4.38 g/m*3 0.55 C 0 km/h
2415 28-12-2009 00:00:00 3.1425 C 4.49 g/m*3 3.14 C 0 km/h
2416 29-12-2009 00:00:00 0.4625 C 4.61 g/m*3 0.46 C 0 km/h
2417 30-12-2009 00:00:00 7.05667 C 7.27 g/m*3 7.06 C 0 km/h
2418 31-12-2009 00:00:00 5.32667 C 6.59 g/m*3 5.33 C 0 km/h
2419 01-01-2010 00:00:00 -0.1725 C 4.38 g/m*3 -0.17 C 0 km/h
2420 02-01-2010 00:00:00 -1.51083 C 3.34 g/m*3 -1.51 C 0 km/h
2421 03-01-2010 00:00:00 -1.79667 C 3.45 g/m*3 -1.8 C 0 km/h
2422 04-01-2010 00:00:00 -5.24083 C 2.41 g/m*3 -5.24 C 0 km/h
2423 05-01-2010 00:00:00 -8.00083 C 2.22 g/m*3 -8 C 0 km/h
2424 06-01-2010 00:00:00 -6.88917 C 2.25 g/m*3 -6.89 C 0 km/h
2425 07-01-2010 00:00:00 -3.75966 C 2.79 g/m*3 -3.76 C 0 km/h
Sensor: Nr:Datum:Temp:Abs-Feuchte:Windchill:Wind:
Aussen-T/F 2426 08-01-2010 00:00:00 -4.82167 C 2.54 g/m*3 -4.82 C 0 km/h
2427 09-01-2010 00:00:00 -2.655 C 3.05 g/m*3 -2.66 C 0 km/h
2428 10-01-2010 00:00:00 -1.87083 C 3.27 g/m*3 -1.87 C 0 km/h
2429 11-01-2010 00:00:00 -1.42833 C 3.62 g/m*3 -1.43 C 0 km/h
2430 12-01-2010 00:00:00 -1.65833 C 3.4 g/m*3 -1.66 C 0 km/h
2431 13-01-2010 00:00:00 -2.2325 C 2.99 g/m*3 -2.23 C 0 km/h
2432 14-01-2010 00:00:00 0.35417 C 3.98 g/m*3 0.35 C 0 km/h
2433 15-01-2010 00:00:00 0.87333 C 4.07 g/m*3 0.87 C 0 km/h
2434 16-01-2010 00:00:00 -0.11833 C 3.75 g/m*3 -0.12 C 0 km/h
2435 17-01-2010 00:00:00 2.09667 C 5.1 g/m*3 2.1 C 0 km/h
2436 18-01-2010 00:00:00 3.38333 C 5.07 g/m*3 3.38 C 0 km/h
2437 19-01-2010 00:00:00 2.24583 C 5.1 g/m*3 2.25 C 0 km/h
2438 20-01-2010 00:00:00 1.97417 C 4.66 g/m*3 1.97 C 0 km/h
2439 21-01-2010 00:00:00 2.45126 C 4.02 g/m*3 2.45 C 0 km/h
2440 22-01-2010 00:00:00 2.93667 C 4.24 g/m*3 2.94 C 0 km/h
2441 23-01-2010 00:00:00 -0.41333 C 3.36 g/m*3 -0.41 C 0 km/h
2442 24-01-2010 00:00:00 0.27167 C 4.06 g/m*3 0.27 C 0 km/h
2443 25-01-2010 00:00:00 0.01667 C 4.19 g/m*3 0.02 C 0 km/h
2444 26-01-2010 00:00:00 -3.325 C 2.8 g/m*3 -3.33 C 0 km/h
2445 27-01-2010 00:00:00 -5.54083 C 2.18 g/m*3 -5.54 C 0 km/h
2446 28-01-2010 00:00:00 1.20667 C 4.04 g/m*3 1.21 C 0 km/h
2447 29-01-2010 00:00:00 1.39083 C 4.5 g/m*3 1.39 C 0 km/h
2448 30-01-2010 00:00:00 -1.54583 C 3.39 g/m*3 -1.55 C 0 km/h
2449 31-01-2010 00:00:00 -1.62333 C 3.2 g/m*3 -1.62 C 0 km/h
2450 01-02-2010 00:00:00 0.20167 C 3.69 g/m*3 0.2 C 0 km/h
Sensor: Nr:Datum:Temp:Abs-Feuchte:Windchill:Wind:
Aussen-T/F 2451 02-02-2010 00:00:00 0.69916 C 4 g/m*3 0.7 C 0 km/h
2452 03-02-2010 00:00:00 2.28899 C 5.05 g/m*3 2.29 C 0 km/h
2453 04-02-2010 00:00:00 4.17018 C 5.55 g/m*3 4.17 C 0 km/h
2454 05-02-2010 00:00:00 3.29649 C 4.9 g/m*3 3.3 C 0 km/h
2455 06-02-2010 00:00:00 4.55172 C 5.47 g/m*3 4.55 C 0 km/h
2456 07-02-2010 00:00:00 4.17018 C 5.02 g/m*3 4.17 C 0 km/h
2457 08-02-2010 00:00:00 -0.75 C 2.85 g/m*3 -0.75 C 0 km/h
2458 09-02-2010 00:00:00 -3.74483 C 2.17 g/m*3 -3.74 C 0 km/h
2459 10-02-2010 00:00:00 -4.8 C 2.32 g/m*3 -4.8 C 0 km/h
2460 11-02-2010 00:00:00 -3.79828 C 2.62 g/m*3 -3.8 C 0 km/h
2461 12-02-2010 00:00:00 -2.14737 C 2.95 g/m*3 -2.15 C 0 km/h
2462 13-02-2010 00:00:00 -2.57414 C 2.82 g/m*3 -2.57 C 0 km/h
2463 14-02-2010 00:00:00 -2.13621 C 3.1 g/m*3 -2.14 C 0 km/h
2464 15-02-2010 00:00:00 -1.12632 C 3.21 g/m*3 -1.13 C 0 km/h
2465 16-02-2010 00:00:00 -1.16379 C 3.02 g/m*3 -1.16 C 0 km/h
2466 17-02-2010 00:00:00 -1.61754 C 3.18 g/m*3 -1.62 C 0 km/h
2467 18-02-2010 00:00:00 3.2569 C 4.56 g/m*3 3.26 C 0 km/h
2468 19-02-2010 00:00:00 3.59375 C 4.12 g/m*3 3.59 C 0 km/h
2469 20-02-2010 00:00:00 1.69333 C 3.53 g/m*3 1.69 C 0 km/h
2470 21-02-2010 00:00:00 2.87833 C 4.25 g/m*3 2.88 C 0 km/h
2471 22-02-2010 00:00:00 6.76417 C 5.24 g/m*3 6.76 C 0 km/h
2472 23-02-2010 00:00:00 9.7875 C 7.07 g/m*3 9.79 C 0 km/h
2473 24-02-2010 00:00:00 9.55 C 6.5 g/m*3 9.55 C 0 km/h
2474 25-02-2010 00:00:00 9.58 C 5.92 g/m*3 9.58 C 0 km/h
2475 26-02-2010 00:00:00 8.62667 C 5.33 g/m*3 8.63 C 0 km/h
Sensor: Nr:Datum:Temp:Abs-Feuchte:Windchill:Wind:
Aussen-T/F 2476 27-02-2010 00:00:00 8.4025 C 4.07 g/m*3 8.4 C 0 km/h
2477 28-02-2010 00:00:00 8.30667 C 5.5 g/m*3 8.31 C 0 km/h
2478 01-03-2010 00:00:00 5.40917 C 3.85 g/m*3 5.41 C 0 km/h
2479 02-03-2010 00:00:00 3.135 C 3.87 g/m*3 3.14 C 0 km/h
2480 03-03-2010 00:00:00 2.9925 C 3.33 g/m*3 2.99 C 0 km/h
2481 04-03-2010 00:00:00 2.47395 C 2.67 g/m*3 2.47 C 0 km/h
2482 05-03-2010 00:00:00 0.77667 C 2.41 g/m*3 0.78 C 0 km/h
2483 06-03-2010 00:00:00 -0.47083 C 3.38 g/m*3 -0.47 C 0 km/h
2484 07-03-2010 00:00:00 -1.6825 C 2.27 g/m*3 -1.68 C 0 km/h
2485 08-03-2010 00:00:00 -1.21083 C 1.92 g/m*3 -1.21 C 0 km/h
2486 09-03-2010 00:00:00 -0.87167 C 1.76 g/m*3 -0.87 C 0 km/h
2487 10-03-2010 00:00:00 1.41667 C 1.75 g/m*3 1.42 C 0 km/h
2488 11-03-2010 00:00:00 0.40167 C 2.56 g/m*3 0.4 C 0 km/h
2489 12-03-2010 00:00:00 1.61167 C 3.86 g/m*3 1.61 C 0 km/h
2490 13-03-2010 00:00:00 4.36583 C 4.23 g/m*3 4.37 C 0 km/h
2491 14-03-2010 00:00:00 5.79833 C 4.06 g/m*3 5.8 C 0 km/h
2492 15-03-2010 00:00:00 6.445 C 5.04 g/m*3 6.45 C 0 km/h
2493 16-03-2010 00:00:00 6.08067 C 5.63 g/m*3 6.08 C 0 km/h
2494 17-03-2010 00:00:00 6.69417 C 4.48 g/m*3 6.69 C 0 km/h
2495 18-03-2010 00:00:00 10.12333 C 4.54 g/m*3 10.12 C 0 km/h
2496 19-03-2010 00:00:00 15.0225 C 4.66 g/m*3 15.02 C 0 km/h
2497 20-03-2010 00:00:00 14.37667 C 8.46 g/m*3 14.38 C 0 km/h
2498 21-03-2010 00:00:00 11.23667 C 8.65 g/m*3 11.24 C 0 km/h
2499 22-03-2010 00:00:00 9.7575 C 7.03 g/m*3 9.76 C 0 km/h
2500 23-03-2010 00:00:00 8.94 C 6.12 g/m*3 8.94 C 0 km/h
Sensor: Nr:Datum:Temp:Abs-Feuchte:Windchill:Wind:
Aussen-T/F 2501 24-03-2010 00:00:00 11.9975 C 6.24 g/m*3 12 C 0 km/h
2502 25-03-2010 00:00:00 14.27083 C 6.52 g/m*3 14.27 C 0 km/h
2503 26-03-2010 00:00:00 10.0325 C 7.02 g/m*3 10.03 C 0 km/h
2504 27-03-2010 00:00:00 9.34333 C 5.7 g/m*3 9.34 C 0 km/h
2505 28-03-2010 00:00:00 9.93478 C 6.19 g/m*3 9.93 C 0 km/h
2506 29-03-2010 00:00:00 11.88167 C 8.04 g/m*3 11.88 C 0 km/h
2507 30-03-2010 00:00:00 12.70672 C 6.43 g/m*3 12.71 C 0 km/h
2508 31-03-2010 00:00:00 8.18667 C 4.45 g/m*3 8.19 C 0 km/h
2509 01-04-2010 00:00:00 5.84333 C 3.76 g/m*3 5.84 C 0 km/h
2510 02-04-2010 00:00:00 6.48583 C 4.37 g/m*3 6.49 C 0 km/h
2511 03-04-2010 00:00:00 9.73667 C 5.47 g/m*3 9.74 C 0 km/h
2512 04-04-2010 00:00:00 8.98833 C 5.25 g/m*3 8.99 C 0 km/h
2513 05-04-2010 00:00:00 9.15083 C 4.56 g/m*3 9.15 C 0 km/h
2514 06-04-2010 00:00:00 10.38167 C 4.41 g/m*3 10.38 C 0 km/h
2515 07-04-2010 00:00:00 13.61167 C 5.07 g/m*3 13.61 C 0 km/h
2516 08-04-2010 00:00:00 12.375 C 6.96 g/m*3 12.38 C 0 km/h
2517 09-04-2010 00:00:00 11.49917 C 5.91 g/m*3 11.5 C 0 km/h
2518 10-04-2010 00:00:00 11.3575 C 4.66 g/m*3 11.36 C 0 km/h
2519 11-04-2010 00:00:00 7.86667 C 4.35 g/m*3 7.87 C 0 km/h
2520 12-04-2010 00:00:00 7.44958 C 5.35 g/m*3 7.45 C 0 km/h
2521 13-04-2010 00:00:00 11.85583 C 6.16 g/m*3 11.86 C 0 km/h
2522 14-04-2010 00:00:00 11.76417 C 4.66 g/m*3 11.76 C 0 km/h
2523 15-04-2010 00:00:00 11.8575 C 5 g/m*3 11.86 C 0 km/h
2524 16-04-2010 00:00:00 9.71583 C 4.32 g/m*3 9.72 C 0 km/h
2525 17-04-2010 00:00:00 11.1225 C 4.54 g/m*3 11.12 C 0 km/h
Sensor: Nr:Datum:Temp:Abs-Feuchte:Windchill:Wind:
Aussen-T/F 2526 18-04-2010 00:00:00 13.27917 C 4.52 g/m*3 13.28 C 0 km/h
2527 19-04-2010 00:00:00 11.18333 C 5.12 g/m*3 11.18 C 0 km/h
2528 20-04-2010 00:00:00 11.13833 C 5.11 g/m*3 11.14 C 0 km/h
2529 21-04-2010 00:00:00 7.34417 C 3.84 g/m*3 7.34 C 0 km/h
2530 22-04-2010 00:00:00 8.35333 C 3.82 g/m*3 8.35 C 0 km/h
2531 23-04-2010 00:00:00 11.44917 C 4.09 g/m*3 11.45 C 0 km/h
2532 24-04-2010 00:00:00 14.91167 C 4.56 g/m*3 14.91 C 0 km/h
2533 25-04-2010 00:00:00 17.1075 C 5.25 g/m*3 17.11 C 0 km/h
2534 26-04-2010 00:00:00 15.72269 C 7.07 g/m*3 15.72 C 0 km/h
2535 27-04-2010 00:00:00 15.50417 C 6.31 g/m*3 15.5 C 0 km/h
2536 28-04-2010 00:00:00 16.8925 C 6.33 g/m*3 16.89 C 0 km/h
2537 29-04-2010 00:00:00 19.21417 C 6.68 g/m*3 19.21 C 0 km/h
2538 30-04-2010 00:00:00 18.69583 C 7.11 g/m*3 18.7 C 0 km/h
2539 01-05-2010 00:00:00 15.09917 C 6.78 g/m*3 15.1 C 0 km/h
2540 02-05-2010 00:00:00 13.48583 C 7.64 g/m*3 13.49 C 0 km/h
2541 03-05-2010 00:00:00 10.01667 C 6.94 g/m*3 10.02 C 0 km/h
2542 04-05-2010 00:00:00 9.78833 C 5.53 g/m*3 9.79 C 0 km/h
2543 05-05-2010 00:00:00 10.09083 C 3.78 g/m*3 10.09 C 0 km/h
2544 06-05-2010 00:00:00 6.68167 C 6.78 g/m*3 6.68 C 0 km/h
2545 07-05-2010 00:00:00 6.49417 C 6.66 g/m*3 6.49 C 0 km/h
2546 08-05-2010 00:00:00 11.06218 C 6.38 g/m*3 11.06 C 0 km/h
2547 09-05-2010 00:00:00 12.575 C 6.93 g/m*3 12.58 C 0 km/h
2548 10-05-2010 00:00:00 11.99917 C 6.67 g/m*3 12 C 0 km/h
2549 11-05-2010 00:00:00 11.53167 C 6.84 g/m*3 11.53 C 0 km/h
2550 12-05-2010 00:00:00 8.62333 C 6.33 g/m*3 8.62 C 0 km/h
Sensor: Nr:Datum:Temp:Abs-Feuchte:Windchill:Wind:
Aussen-T/F 2551 13-05-2010 00:00:00 8.07667 C 6.31 g/m*3 8.08 C 0 km/h
2552 14-05-2010 00:00:00 8.97333 C 7.22 g/m*3 8.97 C 0 km/h
2553 15-05-2010 00:00:00 10.6825 C 5.92 g/m*3 10.68 C 0 km/h
2554 16-05-2010 00:00:00 13.32917 C 5.32 g/m*3 13.33 C 0 km/h
2555 17-05-2010 00:00:00 10.56917 C 7.13 g/m*3 10.57 C 0 km/h
2556 18-05-2010 00:00:00 11.44333 C 6.07 g/m*3 11.44 C 0 km/h
2557 19-05-2010 00:00:00 10.30583 C 6.32 g/m*3 10.31 C 0 km/h
2558 20-05-2010 00:00:00 12.64034 C 6.31 g/m*3 12.64 C 0 km/h
2559 21-05-2010 00:00:00 16.54333 C 7.66 g/m*3 16.54 C 0 km/h
2560 22-05-2010 00:00:00 18.32583 C 7.75 g/m*3 18.33 C 0 km/h
2561 23-05-2010 00:00:00 20.32083 C 8.65 g/m*3 20.32 C 0 km/h
2562 24-05-2010 00:00:00 21.23 C 8.94 g/m*3 21.23 C 0 km/h
2563 25-05-2010 00:00:00 20.64583 C 7.99 g/m*3 20.65 C 0 km/h
2564 26-05-2010 00:00:00 15.41917 C 9.07 g/m*3 15.42 C 0 km/h
2565 27-05-2010 00:00:00 15.6175 C 8.18 g/m*3 15.62 C 0 km/h
2566 28-05-2010 00:00:00 17.3075 C 7.94 g/m*3 17.31 C 0 km/h
2567 29-05-2010 00:00:00 16.34 C 7.23 g/m*3 16.34 C 0 km/h
2568 30-05-2010 00:00:00 14.5975 C 8.93 g/m*3 14.6 C 0 km/h
2569 31-05-2010 00:00:00 11.56667 C 8.16 g/m*3 11.57 C 0 km/h
2570 01-06-2010 00:00:00 16.01833 C 8.41 g/m*3 16.02 C 0 km/h
2571 02-06-2010 00:00:00 17.66471 C 7.79 g/m*3 17.66 C 0 km/h
2572 03-06-2010 00:00:00 20.49083 C 7.88 g/m*3 20.49 C 0 km/h
2573 04-06-2010 00:00:00 21.43 C 7.91 g/m*3 21.43 C 0 km/h
2574 05-06-2010 00:00:00 22.97667 C 8.82 g/m*3 22.98 C 0 km/h
2575 06-06-2010 00:00:00 20.91333 C 11.1 g/m*3 20.91 C 0 km/h
Sensor: Nr:Datum:Temp:Abs-Feuchte:Windchill:Wind:
Aussen-T/F 2576 07-06-2010 00:00:00 19.58833 C 9.05 g/m*3 19.59 C 0 km/h
2577 08-06-2010 00:00:00 19.76833 C 9.52 g/m*3 19.77 C 0 km/h
2578 09-06-2010 00:00:00 22.5625 C 11.34 g/m*3 22.56 C 0 km/h
2579 10-06-2010 00:00:00 22.76417 C 13.55 g/m*3 22.76 C 0 km/h
2580 11-06-2010 00:00:00 22.89167 C 11.59 g/m*3 22.89 C 0 km/h
2581 12-06-2010 00:00:00 18.84917 C 10.25 g/m*3 18.85 C 0 km/h
2582 13-06-2010 00:00:00 18.25083 C 7.8 g/m*3 18.25 C 0 km/h
2583 14-06-2010 00:00:00 19.76667 C 7.8 g/m*3 19.77 C 0 km/h
2584 15-06-2010 00:00:00 18.9 C 8.06 g/m*3 18.9 C 0 km/h
2585 16-06-2010 00:00:00 18.82833 C 6.18 g/m*3 18.83 C 0 km/h
2586 17-06-2010 00:00:00 15.08583 C 9.23 g/m*3 15.09 C 0 km/h
2587 18-06-2010 00:00:00 15.2325 C 9.35 g/m*3 15.23 C 0 km/h
2588 19-06-2010 00:00:00 14.2725 C 6.27 g/m*3 14.27 C 0 km/h
2589 20-06-2010 00:00:00 13.20333 C 6.8 g/m*3 13.2 C 0 km/h
2590 21-06-2010 00:00:00 14.11083 C 6.37 g/m*3 14.11 C 0 km/h
2591 22-06-2010 00:00:00 17.38667 C 7.03 g/m*3 17.39 C 0 km/h
2592 23-06-2010 00:00:00 19.75917 C 8.12 g/m*3 19.76 C 0 km/h
2593 24-06-2010 00:00:00 22.54833 C 8.68 g/m*3 22.55 C 0 km/h
2594 25-06-2010 00:00:00 23.37 C 8.65 g/m*3 23.37 C 0 km/h
2595 26-06-2010 00:00:00 23.635 C 8.77 g/m*3 23.64 C 0 km/h
2596 27-06-2010 00:00:00 24.49417 C 9.01 g/m*3 24.49 C 0 km/h
2597 28-06-2010 00:00:00 25.25546 C 9.1 g/m*3 25.26 C 0 km/h
2598 29-06-2010 00:00:00 24.86167 C 9.83 g/m*3 24.86 C 0 km/h
2599 30-06-2010 00:00:00 24.6175 C 10.06 g/m*3 24.62 C 0 km/h
2600 01-07-2010 00:00:00 25.8425 C 9.72 g/m*3 25.84 C 0 km/h
Sensor: Nr:Datum:Temp:Abs-Feuchte:Windchill:Wind:
Aussen-T/F 2601 02-07-2010 00:00:00 26.96667 C 9.63 g/m*3 26.97 C 0 km/h
2602 03-07-2010 00:00:00 26.33 C 11.31 g/m*3 26.33 C 0 km/h
2603 04-07-2010 00:00:00 26.44833 C 12.05 g/m*3 26.45 C 0 km/h
2604 05-07-2010 00:00:00 22.02083 C 9.04 g/m*3 22.02 C 0 km/h
2605 06-07-2010 00:00:00 20.17833 C 8.34 g/m*3 20.18 C 0 km/h
2606 07-07-2010 00:00:00 22.53417 C 8.16 g/m*3 22.53 C 0 km/h
2607 08-07-2010 00:00:00 26.43417 C 8.69 g/m*3 26.43 C 0 km/h
2608 09-07-2010 00:00:00 27.51333 C 9.42 g/m*3 27.51 C 0 km/h
2609 10-07-2010 00:00:00 29.25667 C 10.76 g/m*3 29.26 C 0 km/h
2610 11-07-2010 00:00:00 28.48319 C 12.85 g/m*3 28.48 C 0 km/h
2611 12-07-2010 00:00:00 27.1175 C 11.1 g/m*3 27.12 C 0 km/h
2612 13-07-2010 00:00:00 25.36083 C 10.39 g/m*3 25.36 C 0 km/h
2613 14-07-2010 00:00:00 25.98917 C 11.73 g/m*3 25.99 C 0 km/h
2614 15-07-2010 00:00:00 22.6525 C 8.81 g/m*3 22.65 C 0 km/h
2615 16-07-2010 00:00:00 23.97667 C 8.47 g/m*3 23.98 C 0 km/h
2616 17-07-2010 00:00:00 21.99167 C 10.18 g/m*3 21.99 C 0 km/h
2617 18-07-2010 00:00:00 21.73833 C 7.35 g/m*3 21.74 C 0 km/h
2618 19-07-2010 00:00:00 23.63167 C 8.01 g/m*3 23.63 C 0 km/h
2619 20-07-2010 00:00:00 25.03833 C 8.46 g/m*3 25.04 C 0 km/h
2620 21-07-2010 00:00:00 24.73833 C 9.31 g/m*3 24.74 C 0 km/h
2621 22-07-2010 00:00:00 21.34917 C 11.61 g/m*3 21.35 C 0 km/h
2622 23-07-2010 00:00:00 20.17059 C 11.52 g/m*3 20.17 C 0 km/h
2623 24-07-2010 00:00:00 19.00667 C 9.15 g/m*3 19.01 C 0 km/h
2624 25-07-2010 00:00:00 17.26833 C 7.8 g/m*3 17.27 C 0 km/h
2625 26-07-2010 00:00:00 17.2925 C 11.46 g/m*3 17.29 C 0 km/h
Sensor: Nr:Datum:Temp:Abs-Feuchte:Windchill:Wind:
Aussen-T/F 2626 27-07-2010 00:00:00 19.815 C 10.06 g/m*3 19.82 C 0 km/h
2627 28-07-2010 00:00:00 20.5075 C 11.17 g/m*3 20.51 C 0 km/h
2628 29-07-2010 00:00:00 16.32417 C 11.42 g/m*3 16.32 C 0 km/h
2629 30-07-2010 00:00:00 19.665 C 9.34 g/m*3 19.67 C 0 km/h
2630 31-07-2010 00:00:00 20.62417 C 9.08 g/m*3 20.62 C 0 km/h
2631 01-08-2010 00:00:00 22.90833 C 11.98 g/m*3 22.91 C 0 km/h
2632 02-08-2010 00:00:00 19.60917 C 11.25 g/m*3 19.61 C 0 km/h
2633 03-08-2010 00:00:00 18.94167 C 10.12 g/m*3 18.94 C 0 km/h
2634 04-08-2010 00:00:00 19.62269 C 9.16 g/m*3 19.62 C 0 km/h
2635 05-08-2010 00:00:00 18.49417 C 10 g/m*3 18.49 C 0 km/h
2636 06-08-2010 00:00:00 19.04667 C 8.08 g/m*3 19.05 C 0 km/h
2637 07-08-2010 00:00:00 19.46583 C 7.91 g/m*3 19.47 C 0 km/h
2638 08-08-2010 00:00:00 18.485 C 11.68 g/m*3 18.49 C 0 km/h
2639 09-08-2010 00:00:00 19.515 C 10.42 g/m*3 19.52 C 0 km/h
2640 10-08-2010 00:00:00 22.13583 C 9.74 g/m*3 22.14 C 0 km/h
2641 11-08-2010 00:00:00 20.32833 C 12.64 g/m*3 20.33 C 0 km/h
2642 12-08-2010 00:00:00 19.10917 C 11.28 g/m*3 19.11 C 0 km/h
2643 13-08-2010 00:00:00 18.77833 C 9.07 g/m*3 18.78 C 0 km/h
2644 14-08-2010 00:00:00 19.9675 C 9.59 g/m*3 19.97 C 0 km/h
2645 15-08-2010 00:00:00 16.88667 C 11.8 g/m*3 16.89 C 0 km/h
2646 16-08-2010 00:00:00 17.07479 C 11.15 g/m*3 17.07 C 0 km/h
2647 17-08-2010 00:00:00 16.06667 C 10.71 g/m*3 16.07 C 0 km/h
2648 18-08-2010 00:00:00 18.40917 C 9.91 g/m*3 18.41 C 0 km/h
2649 19-08-2010 00:00:00 18.88917 C 8.2 g/m*3 18.89 C 0 km/h
2650 20-08-2010 00:00:00 20.42605 C 9.9 g/m*3 20.43 C 0 km/h
Sensor: Nr:Datum:Temp:Abs-Feuchte:Windchill:Wind:
Aussen-T/F 2651 21-08-2010 00:00:00 23.76417 C 11.32 g/m*3 23.76 C 0 km/h
2652 22-08-2010 00:00:00 23.01667 C 12.14 g/m*3 23.02 C 0 km/h
2653 23-08-2010 00:00:00 21.205 C 13.12 g/m*3 21.21 C 0 km/h
2654 24-08-2010 00:00:00 19.27083 C 7.86 g/m*3 19.27 C 0 km/h
2655 25-08-2010 00:00:00 17.61917 C 7.68 g/m*3 17.62 C 0 km/h
2656 26-08-2010 00:00:00 20.68083 C 11.52 g/m*3 20.68 C 0 km/h
2657 27-08-2010 00:00:00 18.37667 C 13.18 g/m*3 18.38 C 0 km/h
2658 28-08-2010 00:00:00 14.0675 C 8.89 g/m*3 14.07 C 0 km/h
2659 29-08-2010 00:00:00 13.03167 C 8.58 g/m*3 13.03 C 0 km/h
2660 30-08-2010 00:00:00 12.5675 C 8.53 g/m*3 12.57 C 0 km/h
2661 31-08-2010 00:00:00 15.42917 C 8.4 g/m*3 15.43 C 0 km/h
2662 01-09-2010 00:00:00 14.82437 C 8.4 g/m*3 14.82 C 0 km/h
2663 02-09-2010 00:00:00 14.95333 C 8.79 g/m*3 14.95 C 0 km/h
2664 03-09-2010 00:00:00 15.91417 C 9.06 g/m*3 15.91 C 0 km/h
2665 04-09-2010 00:00:00 16.71417 C 8.43 g/m*3 16.71 C 0 km/h
2666 05-09-2010 00:00:00 15.205 C 7.52 g/m*3 15.21 C 0 km/h
2667 06-09-2010 00:00:00 15.675 C 6.76 g/m*3 15.68 C 0 km/h
2668 07-09-2010 00:00:00 13.36083 C 8.36 g/m*3 13.36 C 0 km/h
2669 08-09-2010 00:00:00 15.545 C 10.94 g/m*3 15.55 C 0 km/h
2670 09-09-2010 00:00:00 16.20583 C 9.61 g/m*3 16.21 C 0 km/h
2671 10-09-2010 00:00:00 16.18 C 10.13 g/m*3 16.18 C 0 km/h
2672 11-09-2010 00:00:00 18.13417 C 10.44 g/m*3 18.13 C 0 km/h
2673 12-09-2010 00:00:00 16.21667 C 10.52 g/m*3 16.22 C 0 km/h
2674 13-09-2010 00:00:00 15.67583 C 9.31 g/m*3 15.68 C 0 km/h
2675 14-09-2010 00:00:00 16.63697 C 8.96 g/m*3 16.64 C 0 km/h
Sensor: Nr:Datum:Temp:Abs-Feuchte:Windchill:Wind:
Aussen-T/F 2676 15-09-2010 00:00:00 16.3175 C 7.82 g/m*3 16.32 C 0 km/h
2677 16-09-2010 00:00:00 14.07 C 8.33 g/m*3 14.07 C 0 km/h
2678 17-09-2010 00:00:00 13.76667 C 7.53 g/m*3 13.77 C 0 km/h
2679 18-09-2010 00:00:00 11.45083 C 6.84 g/m*3 11.45 C 0 km/h
2680 19-09-2010 00:00:00 11.7425 C 6.69 g/m*3 11.74 C 0 km/h
2681 20-09-2010 00:00:00 14.01 C 7.27 g/m*3 14.01 C 0 km/h
2682 21-09-2010 00:00:00 14.27 C 8.52 g/m*3 14.27 C 0 km/h
2683 22-09-2010 00:00:00 15.86667 C 9.22 g/m*3 15.87 C 0 km/h
2684 23-09-2010 00:00:00 16.56167 C 9.98 g/m*3 16.56 C 0 km/h
2685 24-09-2010 00:00:00 14.165 C 11.47 g/m*3 14.17 C 0 km/h
2686 25-09-2010 00:00:00 12.41833 C 7.9 g/m*3 12.42 C 0 km/h
2687 26-09-2010 00:00:00 11.2425 C 7.29 g/m*3 11.24 C 0 km/h
2688 27-09-2010 00:00:00 9.86807 C 7.48 g/m*3 9.87 C 0 km/h
2689 28-09-2010 00:00:00 10.93083 C 9.4 g/m*3 10.93 C 0 km/h
2690 29-09-2010 00:00:00 13.39417 C 8.9 g/m*3 13.39 C 0 km/h
2691 30-09-2010 00:00:00 11.89667 C 8.83 g/m*3 11.9 C 0 km/h
2692 01-10-2010 00:00:00 12.33667 C 9.1 g/m*3 12.34 C 0 km/h
2693 02-10-2010 00:00:00 13.4525 C 10.36 g/m*3 13.45 C 0 km/h
2694 03-10-2010 00:00:00 17.83583 C 10.56 g/m*3 17.84 C 0 km/h
2695 04-10-2010 00:00:00 16.905 C 9.67 g/m*3 16.91 C 0 km/h
2696 05-10-2010 00:00:00 15.64833 C 10.9 g/m*3 15.65 C 0 km/h
2697 06-10-2010 00:00:00 17.22333 C 9.99 g/m*3 17.22 C 0 km/h
2698 07-10-2010 00:00:00 16.31167 C 10.3 g/m*3 16.31 C 0 km/h
2699 08-10-2010 00:00:00 16.02917 C 9.37 g/m*3 16.03 C 0 km/h
2700 09-10-2010 00:00:00 13.1475 C 8.13 g/m*3 13.15 C 0 km/h
Sensor: Nr:Datum:Temp:Abs-Feuchte:Windchill:Wind:
Aussen-T/F 2701 10-10-2010 00:00:00 11.6125 C 6.4 g/m*3 11.61 C 0 km/h
2702 11-10-2010 00:00:00 10.90084 C 5.45 g/m*3 10.9 C 0 km/h
2703 12-10-2010 00:00:00 8.71917 C 5.9 g/m*3 8.72 C 0 km/h
2704 13-10-2010 00:00:00 7.475 C 5.54 g/m*3 7.48 C 0 km/h
2705 14-10-2010 00:00:00 7.55583 C 5.99 g/m*3 7.56 C 0 km/h
2706 15-10-2010 00:00:00 10.475 C 7.36 g/m*3 10.48 C 0 km/h
2707 16-10-2010 00:00:00 8.375 C 7.62 g/m*3 8.38 C 0 km/h
2708 17-10-2010 00:00:00 7.22667 C 6.33 g/m*3 7.23 C 0 km/h
2709 18-10-2010 00:00:00 6.71833 C 5.58 g/m*3 6.72 C 0 km/h
2710 19-10-2010 00:00:00 7.28167 C 6.47 g/m*3 7.28 C 0 km/h
2711 20-10-2010 00:00:00 6.14167 C 5.97 g/m*3 6.14 C 0 km/h
2712 21-10-2010 00:00:00 5.27 C 4.63 g/m*3 5.27 C 0 km/h
2713 22-10-2010 00:00:00 4.20167 C 4.11 g/m*3 4.2 C 0 km/h
2714 23-10-2010 00:00:00 4.37899 C 4.82 g/m*3 4.38 C 0 km/h
2715 24-10-2010 00:00:00 8.55667 C 5.66 g/m*3 8.56 C 0 km/h
2716 25-10-2010 00:00:00 6.1525 C 5.22 g/m*3 6.15 C 0 km/h
2717 26-10-2010 00:00:00 3.62417 C 5.12 g/m*3 3.62 C 0 km/h
2718 27-10-2010 00:00:00 8.14917 C 4.91 g/m*3 8.15 C 0 km/h
2719 28-10-2010 00:00:00 9.1725 C 5.55 g/m*3 9.17 C 0 km/h
2720 29-10-2010 00:00:00 6.48333 C 6.48 g/m*3 6.48 C 0 km/h
2721 02-11-2010 00:00:00 11.31548 C 6.81 g/m*3 11.32 C 0 km/h
2722 03-11-2010 00:00:00 13.10333 C 7.84 g/m*3 13.1 C 0 km/h
2723 04-11-2010 00:00:00 16.41167 C 8.7 g/m*3 16.41 C 0 km/h
2724 05-11-2010 00:00:00 14.51917 C 7.32 g/m*3 14.52 C 0 km/h
2725 06-11-2010 00:00:00 10.40917 C 7.73 g/m*3 10.41 C 0 km/h
Sensor: Nr:Datum:Temp:Abs-Feuchte:Windchill:Wind:
Aussen-T/F 2726 07-11-2010 00:00:00 6.86917 C 7.11 g/m*3 6.87 C 0 km/h
2727 08-11-2010 00:00:00 4.65583 C 5.68 g/m*3 4.66 C 0 km/h
2728 09-11-2010 00:00:00 6.65667 C 6.48 g/m*3 6.66 C 0 km/h
2729 10-11-2010 00:00:00 7.08319 C 6.48 g/m*3 7.08 C 0 km/h
2730 11-11-2010 00:00:00 5.84167 C 5.32 g/m*3 5.84 C 0 km/h
2731 12-11-2010 00:00:00 11.04083 C 6.73 g/m*3 11.04 C 0 km/h
2732 13-11-2010 00:00:00 14.51917 C 8.83 g/m*3 14.52 C 0 km/h
2733 14-11-2010 00:00:00 14.60833 C 7.79 g/m*3 14.61 C 0 km/h
2734 15-11-2010 00:00:00 9.47833 C 6.15 g/m*3 9.48 C 0 km/h
2735 16-11-2010 00:00:00 6.0125 C 5.77 g/m*3 6.01 C 0 km/h
2736 17-11-2010 00:00:00 5.3125 C 5.17 g/m*3 5.31 C 0 km/h
2737 18-11-2010 00:00:00 5.61917 C 5.95 g/m*3 5.62 C 0 km/h
2738 19-11-2010 00:00:00 6.4275 C 6.1 g/m*3 6.43 C 0 km/h
2739 20-11-2010 00:00:00 4.8325 C 5.94 g/m*3 4.83 C 0 km/h
2740 21-11-2010 00:00:00 4.48333 C 4.84 g/m*3 4.48 C 0 km/h
2741 22-11-2010 00:00:00 4.47417 C 4.96 g/m*3 4.47 C 0 km/h
2742 23-11-2010 00:00:00 4.54118 C 4.59 g/m*3 4.54 C 0 km/h
2743 24-11-2010 00:00:00 3.415 C 4.9 g/m*3 3.42 C 0 km/h
2744 25-11-2010 00:00:00 1.74083 C 4.39 g/m*3 1.74 C 0 km/h
2745 26-11-2010 00:00:00 -0.29083 C 4.18 g/m*3 -0.29 C 0 km/h
2746 27-11-2010 00:00:00 -1.99167 C 3.56 g/m*3 -1.99 C 0 km/h
2747 28-11-2010 00:00:00 -1.325 C 3.55 g/m*3 -1.33 C 0 km/h
2748 29-11-2010 00:00:00 -1.55833 C 3.51 g/m*3 -1.56 C 0 km/h
2749 30-11-2010 00:00:00 -1.9425 C 3.4 g/m*3 -1.94 C 0 km/h
2750 01-12-2010 00:00:00 -5.7325 C 1.99 g/m*3 -5.73 C 0 km/h
Sensor: Nr:Datum:Temp:Abs-Feuchte:Windchill:Wind:
Aussen-T/F 2751 02-12-2010 00:00:00 -7.03167 C 2.03 g/m*3 -7.03 C 0 km/h
2752 03-12-2010 00:00:00 -7.38583 C 2.19 g/m*3 -7.39 C 0 km/h
2753 04-12-2010 00:00:00 -3.48167 C 2.61 g/m*3 -3.48 C 0 km/h
2754 05-12-2010 00:00:00 0.91667 C 3.38 g/m*3 0.92 C 0 km/h
2755 06-12-2010 00:00:00 0.24538 C 4.01 g/m*3 0.25 C 0 km/h
2756 07-12-2010 00:00:00 -0.20833 C 3.88 g/m*3 -0.21 C 0 km/h
2757 08-12-2010 00:00:00 -0.25917 C 4.32 g/m*3 -0.26 C 0 km/h
2758 09-12-2010 00:00:00 0.61333 C 3.92 g/m*3 0.61 C 0 km/h
2759 10-12-2010 00:00:00 1.73333 C 4.69 g/m*3 1.73 C 0 km/h
2760 11-12-2010 00:00:00 4.07583 C 5.18 g/m*3 4.08 C 0 km/h
2761 12-12-2010 00:00:00 3.085 C 4.57 g/m*3 3.09 C 0 km/h
2762 13-12-2010 00:00:00 -4.44833 C 2.51 g/m*3 -4.45 C 0 km/h
2763 14-12-2010 00:00:00 -3.65833 C 2.82 g/m*3 -3.66 C 0 km/h
2764 15-12-2010 00:00:00 -3.1275 C 2.86 g/m*3 -3.13 C 0 km/h
2765 16-12-2010 00:00:00 -3.4675 C 2.96 g/m*3 -3.47 C 0 km/h
2766 17-12-2010 00:00:00 -2.77417 C 2.92 g/m*3 -2.77 C 0 km/h
2767 18-12-2010 00:00:00 -4.65833 C 2.74 g/m*3 -4.66 C 0 km/h
2768 19-12-2010 00:00:00 -0.7125 C 3.86 g/m*3 -0.71 C 0 km/h
2769 20-12-2010 00:00:00 -1.53667 C 3.48 g/m*3 -1.54 C 0 km/h
2770 21-12-2010 00:00:00 -0.65546 C 4 g/m*3 -0.66 C 0 km/h
2771 22-12-2010 00:00:00 0.9225 C 4.66 g/m*3 0.92 C 0 km/h
2772 23-12-2010 00:00:00 -0.36833 C 4.23 g/m*3 -0.37 C 0 km/h
2773 24-12-2010 00:00:00 -1.77438 C 3.53 g/m*3 -1.77 C 0 km/h
2774 25-12-2010 00:00:00 -5.4775 C 2.37 g/m*3 -5.48 C 0 km/h
2775 26-12-2010 00:00:00 -4.87833 C 2.59 g/m*3 -4.88 C 0 km/h
Sensor: Nr:Datum:Temp:Abs-Feuchte:Windchill:Wind:
Aussen-T/F 2776 27-12-2010 00:00:00 -2.21833 C 3.28 g/m*3 -2.22 C 0 km/h
2777 28-12-2010 00:00:00 -2.07899 C 3.35 g/m*3 -2.08 C 0 km/h
2778 29-12-2010 00:00:00 -0.255 C 3.76 g/m*3 -0.26 C 0 km/h
2779 30-12-2010 00:00:00 -0.55333 C 3.62 g/m*3 -0.55 C 0 km/h
2780 31-12-2010 00:00:00 -1.09187 C 3.57 g/m*3 -1.09 C 0 km/h
2781 01-01-2011 00:00:00 1.07311 C 4.52 g/m*3 1.07 C 0 km/h
2782 02-01-2011 00:00:00 0.8025 C 4.39 g/m*3 0.8 C 0 km/h
2783 03-01-2011 00:00:00 -0.9125 C 3.88 g/m*3 -0.91 C 0 km/h
2784 04-01-2011 00:00:00 -2.36667 C 3.35 g/m*3 -2.37 C 0 km/h
2785 05-01-2011 00:00:00 -3.83583 C 2.66 g/m*3 -3.84 C 0 km/h
2786 06-01-2011 00:00:00 3.72667 C 5.49 g/m*3 3.73 C 0 km/h
2787 07-01-2011 00:00:00 6.91833 C 6.93 g/m*3 6.92 C 0 km/h
2788 08-01-2011 00:00:00 10.5675 C 7.09 g/m*3 10.57 C 0 km/h
2789 09-01-2011 00:00:00 5.08655 C 5.84 g/m*3 5.09 C 0 km/h
2790 10-01-2011 00:00:00 0.7175 C 4.39 g/m*3 0.72 C 0 km/h
2791 11-01-2011 00:00:00 3.43667 C 4.81 g/m*3 3.44 C 0 km/h
2792 12-01-2011 00:00:00 5.44 C 5.5 g/m*3 5.44 C 0 km/h
2793 13-01-2011 00:00:00 11.80333 C 8.2 g/m*3 11.8 C 0 km/h
2794 14-01-2011 00:00:00 11.77417 C 6.94 g/m*3 11.77 C 0 km/h
2795 15-01-2011 00:00:00 8.68167 C 5.98 g/m*3 8.68 C 0 km/h
2796 16-01-2011 00:00:00 6.84167 C 5.88 g/m*3 6.84 C 0 km/h
2797 17-01-2011 00:00:00 3.62917 C 5.41 g/m*3 3.63 C 0 km/h

Maximal/Minimal-Werte vom 17.05.2003 - 17.01.2011

Sensor Min Max Avg
Temp
(Aussen-T/F)
-16.4 °C
20-12-2009  01:30:01
36.2 °C
08-08-2003  16:43:01
11.69 °C
Abs-Feuchte
(Aussen-T/F)
1.12 g/m*3
19-12-2009  00:00:00
14.99 g/m*3
11-08-2004  00:00:00
7.21 g/m*3
Windchill
(Aussen-T/F)
-12.79 C
19-12-2009  00:00:00
29.26 C
10-07-2010  00:00:00
11.62 C

Die Daten stammen von einer Davis Vantage Pro 2 Wetter-Station und werden unter Linux mit der Software wview2wettercgi und aufbereitet. Alle Angaben erfolgen ohne Gewähr für ihre Vollständigkeit oder Richtigkeit.
Kontakt: Rainer Krienke krienke@uni-koblenz.de . Meine Webseiten an der Uni Koblenz oder privat.
Version: $Revision: 0.78 $